<?xml version="1.0" encoding="UTF-8" standalone="no" ?>
<gpx xmlns="http://www.topografix.com/GPX/1/1" xmlns:xsi="http://www.w3.org/2001/XMLSchema-instance" xsi:schemaLocation="http://www.topografix.com/GPX/1/1 http://www.topografix.com/GPX/1/1/gpx.xsd" version="1.1" creator="VisuGPX - https://www.visugpx.com">
  <metadata>
    <name>Sortie cyclos Beaufort</name>
    <desc><![CDATA[Très belle sortie vélo à la journée concoctée par Gérard Martin]]></desc>
  </metadata>
  <trk>
    <name><![CDATA[beaufort]]></name>
    <trkseg>
      <trkpt lat="46.75962" lon="5.54203">
        <ele>185.191162</ele>
        <time>2011-09-20T09:21:28Z</time>
      </trkpt>
      <trkpt lat="46.75962" lon="5.54203">
        <ele>188.555786</ele>
        <time>2011-09-20T09:21:34Z</time>
      </trkpt>
      <trkpt lat="46.75962" lon="5.54203">
        <ele>191.920288</ele>
        <time>2011-09-20T09:21:36Z</time>
      </trkpt>
      <trkpt lat="46.75962" lon="5.54203">
        <ele>196.246338</ele>
        <time>2011-09-20T09:21:39Z</time>
      </trkpt>
      <trkpt lat="46.75962" lon="5.54203">
        <ele>199.61084</ele>
        <time>2011-09-20T09:21:42Z</time>
      </trkpt>
      <trkpt lat="46.75963" lon="5.54202">
        <ele>203.456177</ele>
        <time>2011-09-20T09:21:45Z</time>
      </trkpt>
      <trkpt lat="46.75962" lon="5.54202">
        <ele>207.782104</ele>
        <time>2011-09-20T09:21:49Z</time>
      </trkpt>
      <trkpt lat="46.75962" lon="5.54202">
        <ele>207.301392</ele>
        <time>2011-09-20T09:21:50Z</time>
      </trkpt>
      <trkpt lat="46.75962" lon="5.54202">
        <ele>210.666016</ele>
        <time>2011-09-20T09:21:52Z</time>
      </trkpt>
      <trkpt lat="46.75962" lon="5.54202">
        <ele>211.146729</ele>
        <time>2011-09-20T09:21:54Z</time>
      </trkpt>
      <trkpt lat="46.75962" lon="5.54203">
        <ele>214.51123</ele>
        <time>2011-09-20T09:21:57Z</time>
      </trkpt>
      <trkpt lat="46.75963" lon="5.54203">
        <ele>218.356567</ele>
        <time>2011-09-20T09:22:03Z</time>
      </trkpt>
      <trkpt lat="46.75963" lon="5.54204">
        <ele>218.356567</ele>
        <time>2011-09-20T09:22:04Z</time>
      </trkpt>
      <trkpt lat="46.75964" lon="5.5421">
        <ele>222.201782</ele>
        <time>2011-09-20T09:22:10Z</time>
      </trkpt>
      <trkpt lat="46.75964" lon="5.54211">
        <ele>225.085938</ele>
        <time>2011-09-20T09:22:18Z</time>
      </trkpt>
      <trkpt lat="46.75963" lon="5.54211">
        <ele>228.450439</ele>
        <time>2011-09-20T09:22:29Z</time>
      </trkpt>
      <trkpt lat="46.75961" lon="5.54204">
        <ele>231.814941</ele>
        <time>2011-09-20T09:22:41Z</time>
      </trkpt>
      <trkpt lat="46.75961" lon="5.54194">
        <ele>234.218384</ele>
        <time>2011-09-20T09:22:58Z</time>
      </trkpt>
      <trkpt lat="46.75961" lon="5.54189">
        <ele>234.218384</ele>
        <time>2011-09-20T09:23:14Z</time>
      </trkpt>
      <trkpt lat="46.75961" lon="5.54188">
        <ele>234.218384</ele>
        <time>2011-09-20T09:23:47Z</time>
      </trkpt>
      <trkpt lat="46.75957" lon="5.54184">
        <ele>234.699097</ele>
        <time>2011-09-20T09:24:06Z</time>
      </trkpt>
      <trkpt lat="46.75955" lon="5.54182">
        <ele>234.699097</ele>
        <time>2011-09-20T09:24:32Z</time>
      </trkpt>
      <trkpt lat="46.75958" lon="5.54193">
        <ele>233.737671</ele>
        <time>2011-09-20T09:24:52Z</time>
      </trkpt>
      <trkpt lat="46.75959" lon="5.54199">
        <ele>233.737671</ele>
        <time>2011-09-20T09:24:57Z</time>
      </trkpt>
      <trkpt lat="46.75961" lon="5.54205">
        <ele>233.25708</ele>
        <time>2011-09-20T09:25:20Z</time>
      </trkpt>
      <trkpt lat="46.75962" lon="5.54206">
        <ele>233.25708</ele>
        <time>2011-09-20T09:25:52Z</time>
      </trkpt>
      <trkpt lat="46.75963" lon="5.54209">
        <ele>233.25708</ele>
        <time>2011-09-20T09:26:07Z</time>
      </trkpt>
      <trkpt lat="46.75963" lon="5.54209">
        <ele>233.25708</ele>
        <time>2011-09-20T09:26:39Z</time>
      </trkpt>
      <trkpt lat="46.75967" lon="5.54208">
        <ele>234.699097</ele>
        <time>2011-09-20T09:28:52Z</time>
      </trkpt>
      <trkpt lat="46.75967" lon="5.54208">
        <ele>233.25708</ele>
        <time>2011-09-20T09:28:55Z</time>
      </trkpt>
      <trkpt lat="46.75967" lon="5.54209">
        <ele>233.25708</ele>
        <time>2011-09-20T09:29:44Z</time>
      </trkpt>
      <trkpt lat="46.75967" lon="5.54215">
        <ele>230.373047</ele>
        <time>2011-09-20T09:29:58Z</time>
      </trkpt>
      <trkpt lat="46.75966" lon="5.54219">
        <ele>233.25708</ele>
        <time>2011-09-20T09:30:03Z</time>
      </trkpt>
      <trkpt lat="46.75966" lon="5.54221">
        <ele>229.892334</ele>
        <time>2011-09-20T09:30:05Z</time>
      </trkpt>
      <trkpt lat="46.75967" lon="5.54221">
        <ele>233.25708</ele>
        <time>2011-09-20T09:30:06Z</time>
      </trkpt>
      <trkpt lat="46.75967" lon="5.54221">
        <ele>234.218384</ele>
        <time>2011-09-20T09:30:26Z</time>
      </trkpt>
      <trkpt lat="46.75967" lon="5.5422">
        <ele>232.776489</ele>
        <time>2011-09-20T09:30:28Z</time>
      </trkpt>
      <trkpt lat="46.75967" lon="5.54219">
        <ele>229.411743</ele>
        <time>2011-09-20T09:30:31Z</time>
      </trkpt>
      <trkpt lat="46.75966" lon="5.54219">
        <ele>233.737671</ele>
        <time>2011-09-20T09:30:32Z</time>
      </trkpt>
      <trkpt lat="46.75968" lon="5.54217">
        <ele>233.25708</ele>
        <time>2011-09-20T09:31:22Z</time>
      </trkpt>
      <trkpt lat="46.75967" lon="5.54216">
        <ele>232.776489</ele>
        <time>2011-09-20T09:32:04Z</time>
      </trkpt>
      <trkpt lat="46.75968" lon="5.54226">
        <ele>232.776489</ele>
        <time>2011-09-20T09:32:16Z</time>
      </trkpt>
      <trkpt lat="46.75968" lon="5.54225">
        <ele>232.776489</ele>
        <time>2011-09-20T09:33:15Z</time>
      </trkpt>
      <trkpt lat="46.75968" lon="5.5423">
        <ele>232.295776</ele>
        <time>2011-09-20T09:33:37Z</time>
      </trkpt>
      <trkpt lat="46.75969" lon="5.5423">
        <ele>232.295776</ele>
        <time>2011-09-20T09:33:39Z</time>
      </trkpt>
      <trkpt lat="46.75966" lon="5.54216">
        <ele>232.776489</ele>
        <time>2011-09-20T09:33:52Z</time>
      </trkpt>
      <trkpt lat="46.7597" lon="5.54215">
        <ele>232.776489</ele>
        <time>2011-09-20T09:34:10Z</time>
      </trkpt>
      <trkpt lat="46.7597" lon="5.54216">
        <ele>232.776489</ele>
        <time>2011-09-20T09:35:28Z</time>
      </trkpt>
      <trkpt lat="46.7597" lon="5.54216">
        <ele>232.776489</ele>
        <time>2011-09-20T09:35:34Z</time>
      </trkpt>
      <trkpt lat="46.75971" lon="5.54229">
        <ele>232.776489</ele>
        <time>2011-09-20T09:35:41Z</time>
      </trkpt>
      <trkpt lat="46.75968" lon="5.54235">
        <ele>232.776489</ele>
        <time>2011-09-20T09:35:45Z</time>
      </trkpt>
      <trkpt lat="46.75962" lon="5.54238">
        <ele>232.776489</ele>
        <time>2011-09-20T09:35:49Z</time>
      </trkpt>
      <trkpt lat="46.75935" lon="5.54242">
        <ele>235.179688</ele>
        <time>2011-09-20T09:36:04Z</time>
      </trkpt>
      <trkpt lat="46.75905" lon="5.54241">
        <ele>237.582886</ele>
        <time>2011-09-20T09:36:17Z</time>
      </trkpt>
      <trkpt lat="46.7587" lon="5.54235">
        <ele>239.986206</ele>
        <time>2011-09-20T09:36:32Z</time>
      </trkpt>
      <trkpt lat="46.75822" lon="5.54225">
        <ele>242.870239</ele>
        <time>2011-09-20T09:36:50Z</time>
      </trkpt>
      <trkpt lat="46.75774" lon="5.54218">
        <ele>246.234863</ele>
        <time>2011-09-20T09:37:08Z</time>
      </trkpt>
      <trkpt lat="46.7573" lon="5.54206">
        <ele>248.638184</ele>
        <time>2011-09-20T09:37:24Z</time>
      </trkpt>
      <trkpt lat="46.75681" lon="5.54178">
        <ele>251.041382</ele>
        <time>2011-09-20T09:37:40Z</time>
      </trkpt>
      <trkpt lat="46.75636" lon="5.54165">
        <ele>252.483398</ele>
        <time>2011-09-20T09:37:54Z</time>
      </trkpt>
      <trkpt lat="46.75606" lon="5.54148">
        <ele>253.925415</ele>
        <time>2011-09-20T09:38:05Z</time>
      </trkpt>
      <trkpt lat="46.75558" lon="5.54137">
        <ele>255.36731</ele>
        <time>2011-09-20T09:38:16Z</time>
      </trkpt>
      <trkpt lat="46.75468" lon="5.54127">
        <ele>258.731934</ele>
        <time>2011-09-20T09:38:39Z</time>
      </trkpt>
      <trkpt lat="46.7542" lon="5.54118">
        <ele>261.615967</ele>
        <time>2011-09-20T09:38:54Z</time>
      </trkpt>
      <trkpt lat="46.75391" lon="5.541">
        <ele>264.980591</ele>
        <time>2011-09-20T09:39:07Z</time>
      </trkpt>
      <trkpt lat="46.75365" lon="5.54079">
        <ele>268.345093</ele>
        <time>2011-09-20T09:39:19Z</time>
      </trkpt>
      <trkpt lat="46.7533" lon="5.54059">
        <ele>271.229126</ele>
        <time>2011-09-20T09:39:34Z</time>
      </trkpt>
      <trkpt lat="46.75285" lon="5.54032">
        <ele>274.113037</ele>
        <time>2011-09-20T09:39:52Z</time>
      </trkpt>
      <trkpt lat="46.75245" lon="5.54012">
        <ele>276.516357</ele>
        <time>2011-09-20T09:40:08Z</time>
      </trkpt>
      <trkpt lat="46.75187" lon="5.53984">
        <ele>279.400269</ele>
        <time>2011-09-20T09:40:27Z</time>
      </trkpt>
      <trkpt lat="46.75143" lon="5.53961">
        <ele>281.322998</ele>
        <time>2011-09-20T09:40:42Z</time>
      </trkpt>
      <trkpt lat="46.75086" lon="5.53933">
        <ele>284.687622</ele>
        <time>2011-09-20T09:41:01Z</time>
      </trkpt>
      <trkpt lat="46.75025" lon="5.53902">
        <ele>287.571411</ele>
        <time>2011-09-20T09:41:23Z</time>
      </trkpt>
      <trkpt lat="46.7498" lon="5.53876">
        <ele>288.532959</ele>
        <time>2011-09-20T09:41:44Z</time>
      </trkpt>
      <trkpt lat="46.74979" lon="5.53875">
        <ele>288.532959</ele>
        <time>2011-09-20T09:41:52Z</time>
      </trkpt>
      <trkpt lat="46.74975" lon="5.53859">
        <ele>287.571411</ele>
        <time>2011-09-20T09:41:59Z</time>
      </trkpt>
      <trkpt lat="46.7499" lon="5.53798">
        <ele>285.648804</ele>
        <time>2011-09-20T09:42:10Z</time>
      </trkpt>
      <trkpt lat="46.74993" lon="5.53781">
        <ele>284.687622</ele>
        <time>2011-09-20T09:42:12Z</time>
      </trkpt>
      <trkpt lat="46.74999" lon="5.53694">
        <ele>281.803589</ele>
        <time>2011-09-20T09:42:25Z</time>
      </trkpt>
      <trkpt lat="46.75008" lon="5.53627">
        <ele>280.842407</ele>
        <time>2011-09-20T09:42:41Z</time>
      </trkpt>
      <trkpt lat="46.75" lon="5.53568">
        <ele>281.322998</ele>
        <time>2011-09-20T09:42:53Z</time>
      </trkpt>
      <trkpt lat="46.74984" lon="5.53522">
        <ele>284.206909</ele>
        <time>2011-09-20T09:43:04Z</time>
      </trkpt>
      <trkpt lat="46.74958" lon="5.53484">
        <ele>287.09082</ele>
        <time>2011-09-20T09:43:17Z</time>
      </trkpt>
      <trkpt lat="46.74928" lon="5.53474">
        <ele>287.571411</ele>
        <time>2011-09-20T09:43:28Z</time>
      </trkpt>
      <trkpt lat="46.74889" lon="5.53455">
        <ele>288.532959</ele>
        <time>2011-09-20T09:43:39Z</time>
      </trkpt>
      <trkpt lat="46.74852" lon="5.53437">
        <ele>288.052246</ele>
        <time>2011-09-20T09:43:50Z</time>
      </trkpt>
      <trkpt lat="46.74801" lon="5.53418">
        <ele>285.648804</ele>
        <time>2011-09-20T09:44:01Z</time>
      </trkpt>
      <trkpt lat="46.7478" lon="5.53409">
        <ele>285.168213</ele>
        <time>2011-09-20T09:44:05Z</time>
      </trkpt>
      <trkpt lat="46.74753" lon="5.53402">
        <ele>283.726196</ele>
        <time>2011-09-20T09:44:10Z</time>
      </trkpt>
      <trkpt lat="46.74731" lon="5.53383">
        <ele>281.803589</ele>
        <time>2011-09-20T09:44:14Z</time>
      </trkpt>
      <trkpt lat="46.74694" lon="5.53344">
        <ele>279.880859</ele>
        <time>2011-09-20T09:44:21Z</time>
      </trkpt>
      <trkpt lat="46.74679" lon="5.53329">
        <ele>278.438965</ele>
        <time>2011-09-20T09:44:24Z</time>
      </trkpt>
      <trkpt lat="46.74664" lon="5.53306">
        <ele>276.99707</ele>
        <time>2011-09-20T09:44:27Z</time>
      </trkpt>
      <trkpt lat="46.7462" lon="5.53278">
        <ele>275.074463</ele>
        <time>2011-09-20T09:44:33Z</time>
      </trkpt>
      <trkpt lat="46.74571" lon="5.5326">
        <ele>272.19043</ele>
        <time>2011-09-20T09:44:39Z</time>
      </trkpt>
      <trkpt lat="46.74512" lon="5.53236">
        <ele>269.787109</ele>
        <time>2011-09-20T09:44:45Z</time>
      </trkpt>
      <trkpt lat="46.74492" lon="5.53229">
        <ele>268.825806</ele>
        <time>2011-09-20T09:44:47Z</time>
      </trkpt>
      <trkpt lat="46.74461" lon="5.53225">
        <ele>267.864502</ele>
        <time>2011-09-20T09:44:50Z</time>
      </trkpt>
      <trkpt lat="46.74392" lon="5.53211">
        <ele>264.019287</ele>
        <time>2011-09-20T09:44:57Z</time>
      </trkpt>
      <trkpt lat="46.74368" lon="5.53199">
        <ele>262.577148</ele>
        <time>2011-09-20T09:45:00Z</time>
      </trkpt>
      <trkpt lat="46.74327" lon="5.53193">
        <ele>260.17395</ele>
        <time>2011-09-20T09:45:05Z</time>
      </trkpt>
      <trkpt lat="46.74298" lon="5.5319">
        <ele>258.731934</ele>
        <time>2011-09-20T09:45:08Z</time>
      </trkpt>
      <trkpt lat="46.74217" lon="5.53172">
        <ele>255.36731</ele>
        <time>2011-09-20T09:45:16Z</time>
      </trkpt>
      <trkpt lat="46.74198" lon="5.53164">
        <ele>254.406006</ele>
        <time>2011-09-20T09:45:18Z</time>
      </trkpt>
      <trkpt lat="46.74126" lon="5.53143">
        <ele>253.444702</ele>
        <time>2011-09-20T09:45:23Z</time>
      </trkpt>
      <trkpt lat="46.74009" lon="5.53081">
        <ele>250.0802</ele>
        <time>2011-09-20T09:45:37Z</time>
      </trkpt>
      <trkpt lat="46.73949" lon="5.53048">
        <ele>248.157593</ele>
        <time>2011-09-20T09:45:45Z</time>
      </trkpt>
      <trkpt lat="46.739" lon="5.5305">
        <ele>247.676758</ele>
        <time>2011-09-20T09:45:51Z</time>
      </trkpt>
      <trkpt lat="46.73884" lon="5.53058">
        <ele>246.715454</ele>
        <time>2011-09-20T09:45:53Z</time>
      </trkpt>
      <trkpt lat="46.73839" lon="5.53046">
        <ele>246.234863</ele>
        <time>2011-09-20T09:45:59Z</time>
      </trkpt>
      <trkpt lat="46.7373" lon="5.52966">
        <ele>245.75415</ele>
        <time>2011-09-20T09:46:16Z</time>
      </trkpt>
      <trkpt lat="46.73615" lon="5.52842">
        <ele>245.75415</ele>
        <time>2011-09-20T09:46:38Z</time>
      </trkpt>
      <trkpt lat="46.7357" lon="5.52847">
        <ele>246.234863</ele>
        <time>2011-09-20T09:46:46Z</time>
      </trkpt>
      <trkpt lat="46.73554" lon="5.52861">
        <ele>246.234863</ele>
        <time>2011-09-20T09:46:49Z</time>
      </trkpt>
      <trkpt lat="46.73515" lon="5.52865">
        <ele>246.234863</ele>
        <time>2011-09-20T09:46:56Z</time>
      </trkpt>
      <trkpt lat="46.73437" lon="5.5277">
        <ele>247.196045</ele>
        <time>2011-09-20T09:47:14Z</time>
      </trkpt>
      <trkpt lat="46.73379" lon="5.52728">
        <ele>247.196045</ele>
        <time>2011-09-20T09:47:26Z</time>
      </trkpt>
      <trkpt lat="46.73368" lon="5.52716">
        <ele>247.676758</ele>
        <time>2011-09-20T09:47:29Z</time>
      </trkpt>
      <trkpt lat="46.73367" lon="5.5269">
        <ele>247.676758</ele>
        <time>2011-09-20T09:47:33Z</time>
      </trkpt>
      <trkpt lat="46.73376" lon="5.52669">
        <ele>246.715454</ele>
        <time>2011-09-20T09:47:36Z</time>
      </trkpt>
      <trkpt lat="46.73403" lon="5.52616">
        <ele>244.312256</ele>
        <time>2011-09-20T09:47:43Z</time>
      </trkpt>
      <trkpt lat="46.73426" lon="5.52564">
        <ele>241.428223</ele>
        <time>2011-09-20T09:47:50Z</time>
      </trkpt>
      <trkpt lat="46.7343" lon="5.52538">
        <ele>240.947632</ele>
        <time>2011-09-20T09:47:54Z</time>
      </trkpt>
      <trkpt lat="46.73409" lon="5.52498">
        <ele>240.947632</ele>
        <time>2011-09-20T09:48:01Z</time>
      </trkpt>
      <trkpt lat="46.73336" lon="5.52401">
        <ele>243.35083</ele>
        <time>2011-09-20T09:48:20Z</time>
      </trkpt>
      <trkpt lat="46.73318" lon="5.52386">
        <ele>243.831543</ele>
        <time>2011-09-20T09:48:24Z</time>
      </trkpt>
      <trkpt lat="46.73232" lon="5.52352">
        <ele>245.273438</ele>
        <time>2011-09-20T09:48:41Z</time>
      </trkpt>
      <trkpt lat="46.73214" lon="5.5234">
        <ele>246.234863</ele>
        <time>2011-09-20T09:48:45Z</time>
      </trkpt>
      <trkpt lat="46.73191" lon="5.52329">
        <ele>247.196045</ele>
        <time>2011-09-20T09:48:50Z</time>
      </trkpt>
      <trkpt lat="46.73177" lon="5.52321">
        <ele>247.676758</ele>
        <time>2011-09-20T09:48:53Z</time>
      </trkpt>
      <trkpt lat="46.731" lon="5.52325">
        <ele>250.0802</ele>
        <time>2011-09-20T09:49:09Z</time>
      </trkpt>
      <trkpt lat="46.73017" lon="5.52355">
        <ele>253.444702</ele>
        <time>2011-09-20T09:49:28Z</time>
      </trkpt>
      <trkpt lat="46.72926" lon="5.52383">
        <ele>256.328735</ele>
        <time>2011-09-20T09:49:48Z</time>
      </trkpt>
      <trkpt lat="46.72838" lon="5.52413">
        <ele>259.212646</ele>
        <time>2011-09-20T09:50:08Z</time>
      </trkpt>
      <trkpt lat="46.72737" lon="5.52434">
        <ele>262.577148</ele>
        <time>2011-09-20T09:50:31Z</time>
      </trkpt>
      <trkpt lat="46.72713" lon="5.52428">
        <ele>263.057861</ele>
        <time>2011-09-20T09:50:36Z</time>
      </trkpt>
      <trkpt lat="46.72658" lon="5.52394">
        <ele>265.941895</ele>
        <time>2011-09-20T09:50:50Z</time>
      </trkpt>
      <trkpt lat="46.72608" lon="5.52365">
        <ele>267.864502</ele>
        <time>2011-09-20T09:51:02Z</time>
      </trkpt>
      <trkpt lat="46.72539" lon="5.52363">
        <ele>268.825806</ele>
        <time>2011-09-20T09:51:16Z</time>
      </trkpt>
      <trkpt lat="46.72462" lon="5.52371">
        <ele>270.2677</ele>
        <time>2011-09-20T09:51:32Z</time>
      </trkpt>
      <trkpt lat="46.72371" lon="5.52394">
        <ele>272.671143</ele>
        <time>2011-09-20T09:51:51Z</time>
      </trkpt>
      <trkpt lat="46.72282" lon="5.52411">
        <ele>273.632446</ele>
        <time>2011-09-20T09:52:09Z</time>
      </trkpt>
      <trkpt lat="46.72218" lon="5.52403">
        <ele>273.632446</ele>
        <time>2011-09-20T09:52:22Z</time>
      </trkpt>
      <trkpt lat="46.72209" lon="5.52402">
        <ele>273.632446</ele>
        <time>2011-09-20T09:52:24Z</time>
      </trkpt>
      <trkpt lat="46.7219" lon="5.52403">
        <ele>273.151855</ele>
        <time>2011-09-20T09:52:28Z</time>
      </trkpt>
      <trkpt lat="46.72171" lon="5.52403">
        <ele>272.671143</ele>
        <time>2011-09-20T09:52:31Z</time>
      </trkpt>
      <trkpt lat="46.72087" lon="5.52416">
        <ele>269.306519</ele>
        <time>2011-09-20T09:52:42Z</time>
      </trkpt>
      <trkpt lat="46.72048" lon="5.52417">
        <ele>266.422485</ele>
        <time>2011-09-20T09:52:46Z</time>
      </trkpt>
      <trkpt lat="46.72006" lon="5.52439">
        <ele>262.577148</ele>
        <time>2011-09-20T09:52:51Z</time>
      </trkpt>
      <trkpt lat="46.71997" lon="5.52447">
        <ele>261.135254</ele>
        <time>2011-09-20T09:52:53Z</time>
      </trkpt>
      <trkpt lat="46.7199" lon="5.52453">
        <ele>260.17395</ele>
        <time>2011-09-20T09:52:56Z</time>
      </trkpt>
      <trkpt lat="46.71985" lon="5.52454">
        <ele>259.693359</ele>
        <time>2011-09-20T09:53:16Z</time>
      </trkpt>
      <trkpt lat="46.71984" lon="5.52454">
        <ele>259.693359</ele>
        <time>2011-09-20T09:53:58Z</time>
      </trkpt>
      <trkpt lat="46.71973" lon="5.52474">
        <ele>259.693359</ele>
        <time>2011-09-20T09:54:08Z</time>
      </trkpt>
      <trkpt lat="46.71967" lon="5.52492">
        <ele>259.693359</ele>
        <time>2011-09-20T09:54:11Z</time>
      </trkpt>
      <trkpt lat="46.71929" lon="5.52549">
        <ele>258.251343</ele>
        <time>2011-09-20T09:54:21Z</time>
      </trkpt>
      <trkpt lat="46.71876" lon="5.52659">
        <ele>259.212646</ele>
        <time>2011-09-20T09:54:38Z</time>
      </trkpt>
      <trkpt lat="46.71839" lon="5.52789">
        <ele>260.654541</ele>
        <time>2011-09-20T09:54:56Z</time>
      </trkpt>
      <trkpt lat="46.71838" lon="5.52797">
        <ele>260.654541</ele>
        <time>2011-09-20T09:54:57Z</time>
      </trkpt>
      <trkpt lat="46.71815" lon="5.52915">
        <ele>262.577148</ele>
        <time>2011-09-20T09:55:14Z</time>
      </trkpt>
      <trkpt lat="46.71789" lon="5.53053">
        <ele>265.941895</ele>
        <time>2011-09-20T09:55:34Z</time>
      </trkpt>
      <trkpt lat="46.71757" lon="5.53193">
        <ele>266.903198</ele>
        <time>2011-09-20T09:55:53Z</time>
      </trkpt>
      <trkpt lat="46.71701" lon="5.53366">
        <ele>269.306519</ele>
        <time>2011-09-20T09:56:19Z</time>
      </trkpt>
      <trkpt lat="46.71689" lon="5.53411">
        <ele>270.2677</ele>
        <time>2011-09-20T09:56:26Z</time>
      </trkpt>
      <trkpt lat="46.71672" lon="5.53447">
        <ele>271.229126</ele>
        <time>2011-09-20T09:56:32Z</time>
      </trkpt>
      <trkpt lat="46.71597" lon="5.53509">
        <ele>273.151855</ele>
        <time>2011-09-20T09:56:48Z</time>
      </trkpt>
      <trkpt lat="46.71513" lon="5.53572">
        <ele>275.555054</ele>
        <time>2011-09-20T09:57:06Z</time>
      </trkpt>
      <trkpt lat="46.71434" lon="5.53658">
        <ele>277.477661</ele>
        <time>2011-09-20T09:57:25Z</time>
      </trkpt>
      <trkpt lat="46.71368" lon="5.53685">
        <ele>280.842407</ele>
        <time>2011-09-20T09:57:40Z</time>
      </trkpt>
      <trkpt lat="46.71293" lon="5.53699">
        <ele>283.245605</ele>
        <time>2011-09-20T09:57:56Z</time>
      </trkpt>
      <trkpt lat="46.71254" lon="5.5372">
        <ele>284.687622</ele>
        <time>2011-09-20T09:58:05Z</time>
      </trkpt>
      <trkpt lat="46.71227" lon="5.53711">
        <ele>286.610229</ele>
        <time>2011-09-20T09:58:12Z</time>
      </trkpt>
      <trkpt lat="46.7121" lon="5.53679">
        <ele>289.01355</ele>
        <time>2011-09-20T09:58:19Z</time>
      </trkpt>
      <trkpt lat="46.71169" lon="5.53634">
        <ele>290.936157</ele>
        <time>2011-09-20T09:58:32Z</time>
      </trkpt>
      <trkpt lat="46.71116" lon="5.53578">
        <ele>288.052246</ele>
        <time>2011-09-20T09:58:46Z</time>
      </trkpt>
      <trkpt lat="46.71072" lon="5.53507">
        <ele>284.687622</ele>
        <time>2011-09-20T09:58:58Z</time>
      </trkpt>
      <trkpt lat="46.7105" lon="5.53461">
        <ele>282.765015</ele>
        <time>2011-09-20T09:59:04Z</time>
      </trkpt>
      <trkpt lat="46.71037" lon="5.53436">
        <ele>280.842407</ele>
        <time>2011-09-20T09:59:07Z</time>
      </trkpt>
      <trkpt lat="46.71" lon="5.5337">
        <ele>277.477661</ele>
        <time>2011-09-20T09:59:15Z</time>
      </trkpt>
      <trkpt lat="46.70975" lon="5.53331">
        <ele>275.555054</ele>
        <time>2011-09-20T09:59:19Z</time>
      </trkpt>
      <trkpt lat="46.70944" lon="5.53257">
        <ele>271.709717</ele>
        <time>2011-09-20T09:59:25Z</time>
      </trkpt>
      <trkpt lat="46.70904" lon="5.53152">
        <ele>267.864502</ele>
        <time>2011-09-20T09:59:32Z</time>
      </trkpt>
      <trkpt lat="46.70871" lon="5.53048">
        <ele>264.499878</ele>
        <time>2011-09-20T09:59:39Z</time>
      </trkpt>
      <trkpt lat="46.70865" lon="5.53034">
        <ele>264.499878</ele>
        <time>2011-09-20T09:59:40Z</time>
      </trkpt>
      <trkpt lat="46.70845" lon="5.52977">
        <ele>263.057861</ele>
        <time>2011-09-20T09:59:44Z</time>
      </trkpt>
      <trkpt lat="46.70836" lon="5.52948">
        <ele>263.057861</ele>
        <time>2011-09-20T09:59:46Z</time>
      </trkpt>
      <trkpt lat="46.70825" lon="5.52879">
        <ele>261.615967</ele>
        <time>2011-09-20T09:59:51Z</time>
      </trkpt>
      <trkpt lat="46.70786" lon="5.52786">
        <ele>260.654541</ele>
        <time>2011-09-20T10:00:01Z</time>
      </trkpt>
      <trkpt lat="46.70763" lon="5.52762">
        <ele>259.693359</ele>
        <time>2011-09-20T10:00:05Z</time>
      </trkpt>
      <trkpt lat="46.70744" lon="5.5275">
        <ele>259.212646</ele>
        <time>2011-09-20T10:00:08Z</time>
      </trkpt>
      <trkpt lat="46.70717" lon="5.52718">
        <ele>258.251343</ele>
        <time>2011-09-20T10:00:18Z</time>
      </trkpt>
      <trkpt lat="46.70717" lon="5.52714">
        <ele>257.770752</ele>
        <time>2011-09-20T10:00:31Z</time>
      </trkpt>
      <trkpt lat="46.70718" lon="5.52713">
        <ele>258.251343</ele>
        <time>2011-09-20T10:01:04Z</time>
      </trkpt>
      <trkpt lat="46.70746" lon="5.52675">
        <ele>259.693359</ele>
        <time>2011-09-20T10:01:21Z</time>
      </trkpt>
      <trkpt lat="46.70783" lon="5.52629">
        <ele>263.057861</ele>
        <time>2011-09-20T10:01:37Z</time>
      </trkpt>
      <trkpt lat="46.70812" lon="5.52593">
        <ele>266.422485</ele>
        <time>2011-09-20T10:01:50Z</time>
      </trkpt>
      <trkpt lat="46.7084" lon="5.52564">
        <ele>269.306519</ele>
        <time>2011-09-20T10:02:01Z</time>
      </trkpt>
      <trkpt lat="46.70888" lon="5.52546">
        <ele>272.671143</ele>
        <time>2011-09-20T10:02:15Z</time>
      </trkpt>
      <trkpt lat="46.70965" lon="5.52498">
        <ele>275.074463</ele>
        <time>2011-09-20T10:02:36Z</time>
      </trkpt>
      <trkpt lat="46.70986" lon="5.5244">
        <ele>278.438965</ele>
        <time>2011-09-20T10:02:49Z</time>
      </trkpt>
      <trkpt lat="46.71009" lon="5.52367">
        <ele>279.880859</ele>
        <time>2011-09-20T10:03:03Z</time>
      </trkpt>
      <trkpt lat="46.7102" lon="5.52348">
        <ele>280.361694</ele>
        <time>2011-09-20T10:03:07Z</time>
      </trkpt>
      <trkpt lat="46.71056" lon="5.5231">
        <ele>279.880859</ele>
        <time>2011-09-20T10:03:18Z</time>
      </trkpt>
      <trkpt lat="46.711" lon="5.52268">
        <ele>277.958252</ele>
        <time>2011-09-20T10:03:27Z</time>
      </trkpt>
      <trkpt lat="46.71126" lon="5.52192">
        <ele>273.632446</ele>
        <time>2011-09-20T10:03:34Z</time>
      </trkpt>
      <trkpt lat="46.71127" lon="5.52163">
        <ele>272.671143</ele>
        <time>2011-09-20T10:03:36Z</time>
      </trkpt>
      <trkpt lat="46.7111" lon="5.52093">
        <ele>270.2677</ele>
        <time>2011-09-20T10:03:41Z</time>
      </trkpt>
      <trkpt lat="46.71092" lon="5.52056">
        <ele>268.825806</ele>
        <time>2011-09-20T10:03:44Z</time>
      </trkpt>
      <trkpt lat="46.71043" lon="5.51964">
        <ele>265.461304</ele>
        <time>2011-09-20T10:03:52Z</time>
      </trkpt>
      <trkpt lat="46.71039" lon="5.51951">
        <ele>264.980591</ele>
        <time>2011-09-20T10:03:53Z</time>
      </trkpt>
      <trkpt lat="46.71021" lon="5.5185">
        <ele>266.903198</ele>
        <time>2011-09-20T10:04:02Z</time>
      </trkpt>
      <trkpt lat="46.70979" lon="5.5177">
        <ele>269.306519</ele>
        <time>2011-09-20T10:04:14Z</time>
      </trkpt>
      <trkpt lat="46.70932" lon="5.51722">
        <ele>272.671143</ele>
        <time>2011-09-20T10:04:25Z</time>
      </trkpt>
      <trkpt lat="46.70888" lon="5.51671">
        <ele>276.035645</ele>
        <time>2011-09-20T10:04:36Z</time>
      </trkpt>
      <trkpt lat="46.70849" lon="5.5162">
        <ele>278.919678</ele>
        <time>2011-09-20T10:04:47Z</time>
      </trkpt>
      <trkpt lat="46.70785" lon="5.51539">
        <ele>281.322998</ele>
        <time>2011-09-20T10:05:04Z</time>
      </trkpt>
      <trkpt lat="46.70779" lon="5.51512">
        <ele>281.322998</ele>
        <time>2011-09-20T10:05:08Z</time>
      </trkpt>
      <trkpt lat="46.70778" lon="5.51499">
        <ele>281.803589</ele>
        <time>2011-09-20T10:05:10Z</time>
      </trkpt>
      <trkpt lat="46.70772" lon="5.51442">
        <ele>282.765015</ele>
        <time>2011-09-20T10:05:19Z</time>
      </trkpt>
      <trkpt lat="46.70767" lon="5.51352">
        <ele>279.400269</ele>
        <time>2011-09-20T10:05:30Z</time>
      </trkpt>
      <trkpt lat="46.70797" lon="5.51302">
        <ele>277.477661</ele>
        <time>2011-09-20T10:05:36Z</time>
      </trkpt>
      <trkpt lat="46.70837" lon="5.5125">
        <ele>274.113037</ele>
        <time>2011-09-20T10:05:42Z</time>
      </trkpt>
      <trkpt lat="46.70863" lon="5.51167">
        <ele>272.671143</ele>
        <time>2011-09-20T10:05:49Z</time>
      </trkpt>
      <trkpt lat="46.70855" lon="5.51053">
        <ele>271.229126</ele>
        <time>2011-09-20T10:06:00Z</time>
      </trkpt>
      <trkpt lat="46.70844" lon="5.51017">
        <ele>270.748413</ele>
        <time>2011-09-20T10:06:04Z</time>
      </trkpt>
      <trkpt lat="46.70821" lon="5.50979">
        <ele>268.825806</ele>
        <time>2011-09-20T10:06:08Z</time>
      </trkpt>
      <trkpt lat="46.70798" lon="5.50933">
        <ele>265.941895</ele>
        <time>2011-09-20T10:06:12Z</time>
      </trkpt>
      <trkpt lat="46.70792" lon="5.50921">
        <ele>264.980591</ele>
        <time>2011-09-20T10:06:13Z</time>
      </trkpt>
      <trkpt lat="46.70781" lon="5.50866">
        <ele>261.615967</ele>
        <time>2011-09-20T10:06:17Z</time>
      </trkpt>
      <trkpt lat="46.7078" lon="5.50804">
        <ele>257.290039</ele>
        <time>2011-09-20T10:06:22Z</time>
      </trkpt>
      <trkpt lat="46.70778" lon="5.50746">
        <ele>253.444702</ele>
        <time>2011-09-20T10:06:27Z</time>
      </trkpt>
      <trkpt lat="46.70781" lon="5.50723">
        <ele>252.002808</ele>
        <time>2011-09-20T10:06:29Z</time>
      </trkpt>
      <trkpt lat="46.70792" lon="5.50691">
        <ele>249.118774</ele>
        <time>2011-09-20T10:06:32Z</time>
      </trkpt>
      <trkpt lat="46.70811" lon="5.50653">
        <ele>247.196045</ele>
        <time>2011-09-20T10:06:36Z</time>
      </trkpt>
      <trkpt lat="46.7082" lon="5.50597">
        <ele>243.35083</ele>
        <time>2011-09-20T10:06:41Z</time>
      </trkpt>
      <trkpt lat="46.70813" lon="5.50573">
        <ele>241.908936</ele>
        <time>2011-09-20T10:06:43Z</time>
      </trkpt>
      <trkpt lat="46.70801" lon="5.50495">
        <ele>236.140991</ele>
        <time>2011-09-20T10:06:49Z</time>
      </trkpt>
      <trkpt lat="46.70802" lon="5.50481">
        <ele>235.660278</ele>
        <time>2011-09-20T10:06:50Z</time>
      </trkpt>
      <trkpt lat="46.7081" lon="5.50421">
        <ele>232.295776</ele>
        <time>2011-09-20T10:06:54Z</time>
      </trkpt>
      <trkpt lat="46.70791" lon="5.50333">
        <ele>227.969727</ele>
        <time>2011-09-20T10:07:00Z</time>
      </trkpt>
      <trkpt lat="46.70768" lon="5.50296">
        <ele>226.047119</ele>
        <time>2011-09-20T10:07:03Z</time>
      </trkpt>
      <trkpt lat="46.70719" lon="5.50217">
        <ele>224.124512</ele>
        <time>2011-09-20T10:07:10Z</time>
      </trkpt>
      <trkpt lat="46.70703" lon="5.50167">
        <ele>224.124512</ele>
        <time>2011-09-20T10:07:14Z</time>
      </trkpt>
      <trkpt lat="46.70699" lon="5.5011">
        <ele>224.124512</ele>
        <time>2011-09-20T10:07:19Z</time>
      </trkpt>
      <trkpt lat="46.7069" lon="5.50007">
        <ele>225.085938</ele>
        <time>2011-09-20T10:07:29Z</time>
      </trkpt>
      <trkpt lat="46.70676" lon="5.49931">
        <ele>226.047119</ele>
        <time>2011-09-20T10:07:38Z</time>
      </trkpt>
      <trkpt lat="46.7067" lon="5.49888">
        <ele>226.527832</ele>
        <time>2011-09-20T10:07:44Z</time>
      </trkpt>
      <trkpt lat="46.70649" lon="5.49803">
        <ele>227.008545</ele>
        <time>2011-09-20T10:07:55Z</time>
      </trkpt>
      <trkpt lat="46.7065" lon="5.49776">
        <ele>227.008545</ele>
        <time>2011-09-20T10:07:58Z</time>
      </trkpt>
      <trkpt lat="46.70646" lon="5.4971">
        <ele>226.527832</ele>
        <time>2011-09-20T10:08:06Z</time>
      </trkpt>
      <trkpt lat="46.70609" lon="5.4957">
        <ele>225.566528</ele>
        <time>2011-09-20T10:08:21Z</time>
      </trkpt>
      <trkpt lat="46.70577" lon="5.49442">
        <ele>227.969727</ele>
        <time>2011-09-20T10:08:37Z</time>
      </trkpt>
      <trkpt lat="46.70571" lon="5.49406">
        <ele>229.411743</ele>
        <time>2011-09-20T10:08:43Z</time>
      </trkpt>
      <trkpt lat="46.70567" lon="5.49383">
        <ele>229.411743</ele>
        <time>2011-09-20T10:08:46Z</time>
      </trkpt>
      <trkpt lat="46.70546" lon="5.49259">
        <ele>227.489136</ele>
        <time>2011-09-20T10:09:01Z</time>
      </trkpt>
      <trkpt lat="46.70541" lon="5.49213">
        <ele>226.527832</ele>
        <time>2011-09-20T10:09:05Z</time>
      </trkpt>
      <trkpt lat="46.70512" lon="5.49105">
        <ele>227.008545</ele>
        <time>2011-09-20T10:09:16Z</time>
      </trkpt>
      <trkpt lat="46.70509" lon="5.49081">
        <ele>227.008545</ele>
        <time>2011-09-20T10:09:19Z</time>
      </trkpt>
      <trkpt lat="46.70484" lon="5.48983">
        <ele>227.489136</ele>
        <time>2011-09-20T10:09:31Z</time>
      </trkpt>
      <trkpt lat="46.70461" lon="5.48866">
        <ele>228.931152</ele>
        <time>2011-09-20T10:09:43Z</time>
      </trkpt>
      <trkpt lat="46.70431" lon="5.48747">
        <ele>231.334351</ele>
        <time>2011-09-20T10:09:56Z</time>
      </trkpt>
      <trkpt lat="46.70405" lon="5.48606">
        <ele>232.295776</ele>
        <time>2011-09-20T10:10:14Z</time>
      </trkpt>
      <trkpt lat="46.70394" lon="5.48545">
        <ele>232.295776</ele>
        <time>2011-09-20T10:10:23Z</time>
      </trkpt>
      <trkpt lat="46.70392" lon="5.48533">
        <ele>231.814941</ele>
        <time>2011-09-20T10:10:25Z</time>
      </trkpt>
      <trkpt lat="46.70378" lon="5.48452">
        <ele>231.814941</ele>
        <time>2011-09-20T10:10:39Z</time>
      </trkpt>
      <trkpt lat="46.70366" lon="5.48415">
        <ele>231.334351</ele>
        <time>2011-09-20T10:10:51Z</time>
      </trkpt>
      <trkpt lat="46.70366" lon="5.48414">
        <ele>231.814941</ele>
        <time>2011-09-20T10:11:01Z</time>
      </trkpt>
      <trkpt lat="46.7036" lon="5.48407">
        <ele>232.295776</ele>
        <time>2011-09-20T10:11:05Z</time>
      </trkpt>
      <trkpt lat="46.70315" lon="5.48418">
        <ele>232.776489</ele>
        <time>2011-09-20T10:11:15Z</time>
      </trkpt>
      <trkpt lat="46.70287" lon="5.4843">
        <ele>233.25708</ele>
        <time>2011-09-20T10:11:20Z</time>
      </trkpt>
      <trkpt lat="46.7026" lon="5.48444">
        <ele>233.25708</ele>
        <time>2011-09-20T10:11:26Z</time>
      </trkpt>
      <trkpt lat="46.70196" lon="5.48474">
        <ele>233.737671</ele>
        <time>2011-09-20T10:11:39Z</time>
      </trkpt>
      <trkpt lat="46.70145" lon="5.48509">
        <ele>234.218384</ele>
        <time>2011-09-20T10:11:51Z</time>
      </trkpt>
      <trkpt lat="46.70075" lon="5.48574">
        <ele>234.699097</ele>
        <time>2011-09-20T10:12:08Z</time>
      </trkpt>
      <trkpt lat="46.7006" lon="5.4859">
        <ele>234.699097</ele>
        <time>2011-09-20T10:12:12Z</time>
      </trkpt>
      <trkpt lat="46.70032" lon="5.48597">
        <ele>234.699097</ele>
        <time>2011-09-20T10:12:18Z</time>
      </trkpt>
      <trkpt lat="46.70022" lon="5.48594">
        <ele>235.179688</ele>
        <time>2011-09-20T10:12:20Z</time>
      </trkpt>
      <trkpt lat="46.69981" lon="5.48539">
        <ele>234.699097</ele>
        <time>2011-09-20T10:12:31Z</time>
      </trkpt>
      <trkpt lat="46.69917" lon="5.48437">
        <ele>233.25708</ele>
        <time>2011-09-20T10:12:48Z</time>
      </trkpt>
      <trkpt lat="46.69874" lon="5.48373">
        <ele>232.776489</ele>
        <time>2011-09-20T10:12:59Z</time>
      </trkpt>
      <trkpt lat="46.69863" lon="5.48359">
        <ele>232.776489</ele>
        <time>2011-09-20T10:13:02Z</time>
      </trkpt>
      <trkpt lat="46.69852" lon="5.48341">
        <ele>233.25708</ele>
        <time>2011-09-20T10:13:06Z</time>
      </trkpt>
      <trkpt lat="46.6982" lon="5.48288">
        <ele>233.737671</ele>
        <time>2011-09-20T10:13:16Z</time>
      </trkpt>
      <trkpt lat="46.6978" lon="5.48215">
        <ele>232.776489</ele>
        <time>2011-09-20T10:13:27Z</time>
      </trkpt>
      <trkpt lat="46.69765" lon="5.4819">
        <ele>232.776489</ele>
        <time>2011-09-20T10:13:31Z</time>
      </trkpt>
      <trkpt lat="46.69708" lon="5.48086">
        <ele>232.295776</ele>
        <time>2011-09-20T10:13:46Z</time>
      </trkpt>
      <trkpt lat="46.696" lon="5.47917">
        <ele>231.334351</ele>
        <time>2011-09-20T10:14:10Z</time>
      </trkpt>
      <trkpt lat="46.69564" lon="5.47891">
        <ele>230.373047</ele>
        <time>2011-09-20T10:14:15Z</time>
      </trkpt>
      <trkpt lat="46.6952" lon="5.47877">
        <ele>228.931152</ele>
        <time>2011-09-20T10:14:20Z</time>
      </trkpt>
      <trkpt lat="46.69421" lon="5.47885">
        <ele>228.450439</ele>
        <time>2011-09-20T10:14:31Z</time>
      </trkpt>
      <trkpt lat="46.69328" lon="5.47897">
        <ele>228.450439</ele>
        <time>2011-09-20T10:14:45Z</time>
      </trkpt>
      <trkpt lat="46.69302" lon="5.47907">
        <ele>228.931152</ele>
        <time>2011-09-20T10:14:49Z</time>
      </trkpt>
      <trkpt lat="46.69258" lon="5.47948">
        <ele>229.892334</ele>
        <time>2011-09-20T10:14:58Z</time>
      </trkpt>
      <trkpt lat="46.6922" lon="5.47942">
        <ele>231.814941</ele>
        <time>2011-09-20T10:15:05Z</time>
      </trkpt>
      <trkpt lat="46.69155" lon="5.47837">
        <ele>233.737671</ele>
        <time>2011-09-20T10:15:21Z</time>
      </trkpt>
      <trkpt lat="46.69054" lon="5.47674">
        <ele>233.737671</ele>
        <time>2011-09-20T10:15:44Z</time>
      </trkpt>
      <trkpt lat="46.68979" lon="5.47556">
        <ele>233.737671</ele>
        <time>2011-09-20T10:16:02Z</time>
      </trkpt>
      <trkpt lat="46.68872" lon="5.47395">
        <ele>231.814941</ele>
        <time>2011-09-20T10:16:26Z</time>
      </trkpt>
      <trkpt lat="46.68848" lon="5.4737">
        <ele>230.85376</ele>
        <time>2011-09-20T10:16:30Z</time>
      </trkpt>
      <trkpt lat="46.68756" lon="5.47344">
        <ele>228.931152</ele>
        <time>2011-09-20T10:16:41Z</time>
      </trkpt>
      <trkpt lat="46.68749" lon="5.47343">
        <ele>228.450439</ele>
        <time>2011-09-20T10:16:42Z</time>
      </trkpt>
      <trkpt lat="46.68712" lon="5.4731">
        <ele>229.411743</ele>
        <time>2011-09-20T10:16:48Z</time>
      </trkpt>
      <trkpt lat="46.6862" lon="5.4714">
        <ele>232.295776</ele>
        <time>2011-09-20T10:17:11Z</time>
      </trkpt>
      <trkpt lat="46.68508" lon="5.46943">
        <ele>230.373047</ele>
        <time>2011-09-20T10:17:37Z</time>
      </trkpt>
      <trkpt lat="46.68407" lon="5.46771">
        <ele>227.008545</ele>
        <time>2011-09-20T10:17:58Z</time>
      </trkpt>
      <trkpt lat="46.68334" lon="5.46664">
        <ele>225.085938</ele>
        <time>2011-09-20T10:18:11Z</time>
      </trkpt>
      <trkpt lat="46.68261" lon="5.46605">
        <ele>228.450439</ele>
        <time>2011-09-20T10:18:24Z</time>
      </trkpt>
      <trkpt lat="46.68135" lon="5.46515">
        <ele>230.85376</ele>
        <time>2011-09-20T10:18:47Z</time>
      </trkpt>
      <trkpt lat="46.68035" lon="5.46466">
        <ele>231.334351</ele>
        <time>2011-09-20T10:19:06Z</time>
      </trkpt>
      <trkpt lat="46.67875" lon="5.46389">
        <ele>231.334351</ele>
        <time>2011-09-20T10:19:32Z</time>
      </trkpt>
      <trkpt lat="46.67689" lon="5.46296">
        <ele>230.85376</ele>
        <time>2011-09-20T10:20:01Z</time>
      </trkpt>
      <trkpt lat="46.67543" lon="5.46226">
        <ele>230.85376</ele>
        <time>2011-09-20T10:20:23Z</time>
      </trkpt>
      <trkpt lat="46.67372" lon="5.46143">
        <ele>229.411743</ele>
        <time>2011-09-20T10:20:50Z</time>
      </trkpt>
      <trkpt lat="46.67227" lon="5.46071">
        <ele>229.411743</ele>
        <time>2011-09-20T10:21:16Z</time>
      </trkpt>
      <trkpt lat="46.67191" lon="5.4605">
        <ele>228.931152</ele>
        <time>2011-09-20T10:21:28Z</time>
      </trkpt>
      <trkpt lat="46.67181" lon="5.46042">
        <ele>228.450439</ele>
        <time>2011-09-20T10:21:39Z</time>
      </trkpt>
      <trkpt lat="46.67179" lon="5.4604">
        <ele>228.450439</ele>
        <time>2011-09-20T10:22:10Z</time>
      </trkpt>
      <trkpt lat="46.6717" lon="5.46041">
        <ele>229.411743</ele>
        <time>2011-09-20T10:22:35Z</time>
      </trkpt>
      <trkpt lat="46.67113" lon="5.46049">
        <ele>228.931152</ele>
        <time>2011-09-20T10:22:49Z</time>
      </trkpt>
      <trkpt lat="46.67063" lon="5.46051">
        <ele>228.931152</ele>
        <time>2011-09-20T10:22:59Z</time>
      </trkpt>
      <trkpt lat="46.67051" lon="5.46051">
        <ele>228.450439</ele>
        <time>2011-09-20T10:23:01Z</time>
      </trkpt>
      <trkpt lat="46.67031" lon="5.46042">
        <ele>228.450439</ele>
        <time>2011-09-20T10:23:05Z</time>
      </trkpt>
      <trkpt lat="46.66958" lon="5.45997">
        <ele>228.450439</ele>
        <time>2011-09-20T10:23:19Z</time>
      </trkpt>
      <trkpt lat="46.66932" lon="5.45985">
        <ele>228.450439</ele>
        <time>2011-09-20T10:23:24Z</time>
      </trkpt>
      <trkpt lat="46.66912" lon="5.45972">
        <ele>228.450439</ele>
        <time>2011-09-20T10:23:28Z</time>
      </trkpt>
      <trkpt lat="46.66864" lon="5.45893">
        <ele>227.969727</ele>
        <time>2011-09-20T10:23:42Z</time>
      </trkpt>
      <trkpt lat="46.66821" lon="5.45821">
        <ele>227.489136</ele>
        <time>2011-09-20T10:23:55Z</time>
      </trkpt>
      <trkpt lat="46.66777" lon="5.45802">
        <ele>227.489136</ele>
        <time>2011-09-20T10:24:03Z</time>
      </trkpt>
      <trkpt lat="46.66722" lon="5.45817">
        <ele>226.527832</ele>
        <time>2011-09-20T10:24:15Z</time>
      </trkpt>
      <trkpt lat="46.66643" lon="5.45844">
        <ele>226.047119</ele>
        <time>2011-09-20T10:24:29Z</time>
      </trkpt>
      <trkpt lat="46.66534" lon="5.45918">
        <ele>222.682495</ele>
        <time>2011-09-20T10:24:46Z</time>
      </trkpt>
      <trkpt lat="46.66498" lon="5.45938">
        <ele>221.721191</ele>
        <time>2011-09-20T10:24:56Z</time>
      </trkpt>
      <trkpt lat="46.66493" lon="5.45935">
        <ele>221.240601</ele>
        <time>2011-09-20T10:24:58Z</time>
      </trkpt>
      <trkpt lat="46.6649" lon="5.45931">
        <ele>220.759888</ele>
        <time>2011-09-20T10:25:14Z</time>
      </trkpt>
      <trkpt lat="46.66489" lon="5.45931">
        <ele>220.759888</ele>
        <time>2011-09-20T10:25:16Z</time>
      </trkpt>
      <trkpt lat="46.6649" lon="5.45938">
        <ele>221.240601</ele>
        <time>2011-09-20T10:25:24Z</time>
      </trkpt>
      <trkpt lat="46.66497" lon="5.45945">
        <ele>221.721191</ele>
        <time>2011-09-20T10:25:34Z</time>
      </trkpt>
      <trkpt lat="46.66505" lon="5.45998">
        <ele>222.682495</ele>
        <time>2011-09-20T10:25:47Z</time>
      </trkpt>
      <trkpt lat="46.6651" lon="5.46072">
        <ele>224.124512</ele>
        <time>2011-09-20T10:26:02Z</time>
      </trkpt>
      <trkpt lat="46.66513" lon="5.46161">
        <ele>225.566528</ele>
        <time>2011-09-20T10:26:17Z</time>
      </trkpt>
      <trkpt lat="46.66508" lon="5.46219">
        <ele>227.008545</ele>
        <time>2011-09-20T10:26:26Z</time>
      </trkpt>
      <trkpt lat="46.66502" lon="5.46245">
        <ele>226.047119</ele>
        <time>2011-09-20T10:26:30Z</time>
      </trkpt>
      <trkpt lat="46.66494" lon="5.46265">
        <ele>225.566528</ele>
        <time>2011-09-20T10:26:33Z</time>
      </trkpt>
      <trkpt lat="46.6649" lon="5.46309">
        <ele>224.605225</ele>
        <time>2011-09-20T10:26:38Z</time>
      </trkpt>
      <trkpt lat="46.66455" lon="5.46355">
        <ele>222.201782</ele>
        <time>2011-09-20T10:26:45Z</time>
      </trkpt>
      <trkpt lat="46.66447" lon="5.46356">
        <ele>221.721191</ele>
        <time>2011-09-20T10:26:46Z</time>
      </trkpt>
      <trkpt lat="46.66438" lon="5.46355">
        <ele>221.240601</ele>
        <time>2011-09-20T10:26:47Z</time>
      </trkpt>
      <trkpt lat="46.66421" lon="5.46352">
        <ele>220.759888</ele>
        <time>2011-09-20T10:26:49Z</time>
      </trkpt>
      <trkpt lat="46.66389" lon="5.46371">
        <ele>219.798584</ele>
        <time>2011-09-20T10:26:53Z</time>
      </trkpt>
      <trkpt lat="46.66368" lon="5.46401">
        <ele>218.83728</ele>
        <time>2011-09-20T10:26:56Z</time>
      </trkpt>
      <trkpt lat="46.66342" lon="5.46426">
        <ele>216.43396</ele>
        <time>2011-09-20T10:26:59Z</time>
      </trkpt>
      <trkpt lat="46.66315" lon="5.4645">
        <ele>214.991943</ele>
        <time>2011-09-20T10:27:02Z</time>
      </trkpt>
      <trkpt lat="46.66293" lon="5.46496">
        <ele>214.51123</ele>
        <time>2011-09-20T10:27:06Z</time>
      </trkpt>
      <trkpt lat="46.66287" lon="5.46534">
        <ele>213.550049</ele>
        <time>2011-09-20T10:27:09Z</time>
      </trkpt>
      <trkpt lat="46.66236" lon="5.46562">
        <ele>213.069336</ele>
        <time>2011-09-20T10:27:16Z</time>
      </trkpt>
      <trkpt lat="46.66147" lon="5.46583">
        <ele>212.108032</ele>
        <time>2011-09-20T10:27:27Z</time>
      </trkpt>
      <trkpt lat="46.66124" lon="5.4658">
        <ele>212.108032</ele>
        <time>2011-09-20T10:27:30Z</time>
      </trkpt>
      <trkpt lat="46.66097" lon="5.46616">
        <ele>212.108032</ele>
        <time>2011-09-20T10:27:36Z</time>
      </trkpt>
      <trkpt lat="46.66091" lon="5.46795">
        <ele>213.069336</ele>
        <time>2011-09-20T10:27:54Z</time>
      </trkpt>
      <trkpt lat="46.6609" lon="5.46805">
        <ele>213.069336</ele>
        <time>2011-09-20T10:27:55Z</time>
      </trkpt>
      <trkpt lat="46.66071" lon="5.46869">
        <ele>213.069336</ele>
        <time>2011-09-20T10:28:02Z</time>
      </trkpt>
      <trkpt lat="46.66072" lon="5.46983">
        <ele>213.550049</ele>
        <time>2011-09-20T10:28:14Z</time>
      </trkpt>
      <trkpt lat="46.66063" lon="5.4702">
        <ele>213.550049</ele>
        <time>2011-09-20T10:28:19Z</time>
      </trkpt>
      <trkpt lat="46.66054" lon="5.47031">
        <ele>213.550049</ele>
        <time>2011-09-20T10:28:21Z</time>
      </trkpt>
      <trkpt lat="46.6597" lon="5.47096">
        <ele>213.550049</ele>
        <time>2011-09-20T10:28:36Z</time>
      </trkpt>
      <trkpt lat="46.65902" lon="5.47204">
        <ele>214.03064</ele>
        <time>2011-09-20T10:28:51Z</time>
      </trkpt>
      <trkpt lat="46.6584" lon="5.47363">
        <ele>214.51123</ele>
        <time>2011-09-20T10:29:10Z</time>
      </trkpt>
      <trkpt lat="46.65783" lon="5.47537">
        <ele>215.953247</ele>
        <time>2011-09-20T10:29:32Z</time>
      </trkpt>
      <trkpt lat="46.65756" lon="5.47728">
        <ele>216.914673</ele>
        <time>2011-09-20T10:29:54Z</time>
      </trkpt>
      <trkpt lat="46.6575" lon="5.47851">
        <ele>217.395386</ele>
        <time>2011-09-20T10:30:08Z</time>
      </trkpt>
      <trkpt lat="46.65703" lon="5.47968">
        <ele>217.875977</ele>
        <time>2011-09-20T10:30:24Z</time>
      </trkpt>
      <trkpt lat="46.65683" lon="5.48067">
        <ele>218.356567</ele>
        <time>2011-09-20T10:30:36Z</time>
      </trkpt>
      <trkpt lat="46.65676" lon="5.48108">
        <ele>218.356567</ele>
        <time>2011-09-20T10:30:41Z</time>
      </trkpt>
      <trkpt lat="46.65645" lon="5.48138">
        <ele>218.83728</ele>
        <time>2011-09-20T10:30:49Z</time>
      </trkpt>
      <trkpt lat="46.65604" lon="5.48114">
        <ele>218.83728</ele>
        <time>2011-09-20T10:30:56Z</time>
      </trkpt>
      <trkpt lat="46.65565" lon="5.48128">
        <ele>218.356567</ele>
        <time>2011-09-20T10:31:03Z</time>
      </trkpt>
      <trkpt lat="46.65563" lon="5.48137">
        <ele>218.356567</ele>
        <time>2011-09-20T10:31:04Z</time>
      </trkpt>
      <trkpt lat="46.6554" lon="5.4833">
        <ele>220.759888</ele>
        <time>2011-09-20T10:31:27Z</time>
      </trkpt>
      <trkpt lat="46.65539" lon="5.48389">
        <ele>223.643799</ele>
        <time>2011-09-20T10:31:37Z</time>
      </trkpt>
      <trkpt lat="46.65529" lon="5.48443">
        <ele>227.008545</ele>
        <time>2011-09-20T10:31:47Z</time>
      </trkpt>
      <trkpt lat="46.65525" lon="5.48461">
        <ele>227.008545</ele>
        <time>2011-09-20T10:31:50Z</time>
      </trkpt>
      <trkpt lat="46.65517" lon="5.48482">
        <ele>228.450439</ele>
        <time>2011-09-20T10:31:54Z</time>
      </trkpt>
      <trkpt lat="46.65485" lon="5.48511">
        <ele>231.334351</ele>
        <time>2011-09-20T10:32:03Z</time>
      </trkpt>
      <trkpt lat="46.65471" lon="5.48525">
        <ele>232.776489</ele>
        <time>2011-09-20T10:32:07Z</time>
      </trkpt>
      <trkpt lat="46.6543" lon="5.48583">
        <ele>234.699097</ele>
        <time>2011-09-20T10:32:21Z</time>
      </trkpt>
      <trkpt lat="46.65407" lon="5.48638">
        <ele>233.737671</ele>
        <time>2011-09-20T10:32:31Z</time>
      </trkpt>
      <trkpt lat="46.65373" lon="5.48654">
        <ele>232.776489</ele>
        <time>2011-09-20T10:32:38Z</time>
      </trkpt>
      <trkpt lat="46.65338" lon="5.48652">
        <ele>233.25708</ele>
        <time>2011-09-20T10:32:48Z</time>
      </trkpt>
      <trkpt lat="46.65316" lon="5.48654">
        <ele>233.737671</ele>
        <time>2011-09-20T10:32:55Z</time>
      </trkpt>
      <trkpt lat="46.65312" lon="5.48656">
        <ele>234.218384</ele>
        <time>2011-09-20T10:32:57Z</time>
      </trkpt>
      <trkpt lat="46.6527" lon="5.48631">
        <ele>235.179688</ele>
        <time>2011-09-20T10:33:09Z</time>
      </trkpt>
      <trkpt lat="46.6525" lon="5.4862">
        <ele>235.660278</ele>
        <time>2011-09-20T10:33:15Z</time>
      </trkpt>
      <trkpt lat="46.65235" lon="5.4864">
        <ele>235.660278</ele>
        <time>2011-09-20T10:33:21Z</time>
      </trkpt>
      <trkpt lat="46.65221" lon="5.4867">
        <ele>235.660278</ele>
        <time>2011-09-20T10:33:27Z</time>
      </trkpt>
      <trkpt lat="46.65214" lon="5.48685">
        <ele>236.140991</ele>
        <time>2011-09-20T10:33:30Z</time>
      </trkpt>
      <trkpt lat="46.652" lon="5.48766">
        <ele>239.505493</ele>
        <time>2011-09-20T10:33:44Z</time>
      </trkpt>
      <trkpt lat="46.65185" lon="5.48846">
        <ele>242.870239</ele>
        <time>2011-09-20T10:33:57Z</time>
      </trkpt>
      <trkpt lat="46.65184" lon="5.48851">
        <ele>242.870239</ele>
        <time>2011-09-20T10:33:58Z</time>
      </trkpt>
      <trkpt lat="46.65156" lon="5.48874">
        <ele>244.792847</ele>
        <time>2011-09-20T10:34:06Z</time>
      </trkpt>
      <trkpt lat="46.65064" lon="5.48864">
        <ele>246.715454</ele>
        <time>2011-09-20T10:34:24Z</time>
      </trkpt>
      <trkpt lat="46.65019" lon="5.48882">
        <ele>248.157593</ele>
        <time>2011-09-20T10:34:33Z</time>
      </trkpt>
      <trkpt lat="46.6496" lon="5.48904">
        <ele>250.0802</ele>
        <time>2011-09-20T10:34:46Z</time>
      </trkpt>
      <trkpt lat="46.6489" lon="5.48915">
        <ele>252.002808</ele>
        <time>2011-09-20T10:35:02Z</time>
      </trkpt>
      <trkpt lat="46.6482" lon="5.48931">
        <ele>249.118774</ele>
        <time>2011-09-20T10:35:15Z</time>
      </trkpt>
      <trkpt lat="46.64793" lon="5.4894">
        <ele>247.676758</ele>
        <time>2011-09-20T10:35:25Z</time>
      </trkpt>
      <trkpt lat="46.64776" lon="5.48942">
        <ele>247.196045</ele>
        <time>2011-09-20T10:35:34Z</time>
      </trkpt>
      <trkpt lat="46.6474" lon="5.48945">
        <ele>245.75415</ele>
        <time>2011-09-20T10:35:41Z</time>
      </trkpt>
      <trkpt lat="46.64712" lon="5.48931">
        <ele>244.792847</ele>
        <time>2011-09-20T10:35:45Z</time>
      </trkpt>
      <trkpt lat="46.64668" lon="5.48951">
        <ele>242.389648</ele>
        <time>2011-09-20T10:35:51Z</time>
      </trkpt>
      <trkpt lat="46.64663" lon="5.48961">
        <ele>241.908936</ele>
        <time>2011-09-20T10:35:52Z</time>
      </trkpt>
      <trkpt lat="46.64636" lon="5.49012">
        <ele>240.947632</ele>
        <time>2011-09-20T10:35:57Z</time>
      </trkpt>
      <trkpt lat="46.64566" lon="5.49067">
        <ele>240.467041</ele>
        <time>2011-09-20T10:36:08Z</time>
      </trkpt>
      <trkpt lat="46.64481" lon="5.49127">
        <ele>242.870239</ele>
        <time>2011-09-20T10:36:23Z</time>
      </trkpt>
      <trkpt lat="46.64464" lon="5.49162">
        <ele>243.831543</ele>
        <time>2011-09-20T10:36:29Z</time>
      </trkpt>
      <trkpt lat="46.64446" lon="5.49188">
        <ele>242.870239</ele>
        <time>2011-09-20T10:36:34Z</time>
      </trkpt>
      <trkpt lat="46.64394" lon="5.49216">
        <ele>240.467041</ele>
        <time>2011-09-20T10:36:42Z</time>
      </trkpt>
      <trkpt lat="46.64371" lon="5.4924">
        <ele>240.467041</ele>
        <time>2011-09-20T10:36:46Z</time>
      </trkpt>
      <trkpt lat="46.64302" lon="5.49373">
        <ele>241.428223</ele>
        <time>2011-09-20T10:37:04Z</time>
      </trkpt>
      <trkpt lat="46.64268" lon="5.49478">
        <ele>244.312256</ele>
        <time>2011-09-20T10:37:21Z</time>
      </trkpt>
      <trkpt lat="46.64266" lon="5.49482">
        <ele>244.792847</ele>
        <time>2011-09-20T10:37:22Z</time>
      </trkpt>
      <trkpt lat="46.6425" lon="5.49501">
        <ele>246.234863</ele>
        <time>2011-09-20T10:37:27Z</time>
      </trkpt>
      <trkpt lat="46.64239" lon="5.49507">
        <ele>247.676758</ele>
        <time>2011-09-20T10:37:30Z</time>
      </trkpt>
      <trkpt lat="46.64223" lon="5.4951">
        <ele>248.638184</ele>
        <time>2011-09-20T10:37:34Z</time>
      </trkpt>
      <trkpt lat="46.64201" lon="5.4951">
        <ele>250.0802</ele>
        <time>2011-09-20T10:37:39Z</time>
      </trkpt>
      <trkpt lat="46.64183" lon="5.49541">
        <ele>252.483398</ele>
        <time>2011-09-20T10:37:49Z</time>
      </trkpt>
      <trkpt lat="46.64183" lon="5.49544">
        <ele>252.483398</ele>
        <time>2011-09-20T10:37:50Z</time>
      </trkpt>
      <trkpt lat="46.64181" lon="5.4957">
        <ele>252.483398</ele>
        <time>2011-09-20T10:38:05Z</time>
      </trkpt>
      <trkpt lat="46.6418" lon="5.49571">
        <ele>252.002808</ele>
        <time>2011-09-20T10:40:27Z</time>
      </trkpt>
      <trkpt lat="46.64178" lon="5.49589">
        <ele>252.483398</ele>
        <time>2011-09-20T10:42:50Z</time>
      </trkpt>
      <trkpt lat="46.64178" lon="5.49649">
        <ele>252.002808</ele>
        <time>2011-09-20T10:43:00Z</time>
      </trkpt>
      <trkpt lat="46.64163" lon="5.49706">
        <ele>252.483398</ele>
        <time>2011-09-20T10:43:08Z</time>
      </trkpt>
      <trkpt lat="46.64105" lon="5.4979">
        <ele>255.36731</ele>
        <time>2011-09-20T10:43:25Z</time>
      </trkpt>
      <trkpt lat="46.64077" lon="5.49848">
        <ele>255.848022</ele>
        <time>2011-09-20T10:43:35Z</time>
      </trkpt>
      <trkpt lat="46.64034" lon="5.49969">
        <ele>258.251343</ele>
        <time>2011-09-20T10:43:56Z</time>
      </trkpt>
      <trkpt lat="46.64024" lon="5.49999">
        <ele>258.251343</ele>
        <time>2011-09-20T10:44:02Z</time>
      </trkpt>
      <trkpt lat="46.64023" lon="5.50011">
        <ele>258.731934</ele>
        <time>2011-09-20T10:44:05Z</time>
      </trkpt>
      <trkpt lat="46.64019" lon="5.50012">
        <ele>258.731934</ele>
        <time>2011-09-20T10:44:19Z</time>
      </trkpt>
      <trkpt lat="46.64002" lon="5.50016">
        <ele>258.731934</ele>
        <time>2011-09-20T10:44:38Z</time>
      </trkpt>
      <trkpt lat="46.63977" lon="5.50064">
        <ele>259.693359</ele>
        <time>2011-09-20T10:44:51Z</time>
      </trkpt>
      <trkpt lat="46.63943" lon="5.50147">
        <ele>261.135254</ele>
        <time>2011-09-20T10:45:09Z</time>
      </trkpt>
      <trkpt lat="46.63903" lon="5.50219">
        <ele>263.057861</ele>
        <time>2011-09-20T10:45:25Z</time>
      </trkpt>
      <trkpt lat="46.63857" lon="5.50299">
        <ele>265.941895</ele>
        <time>2011-09-20T10:45:44Z</time>
      </trkpt>
      <trkpt lat="46.63818" lon="5.50369">
        <ele>268.345093</ele>
        <time>2011-09-20T10:46:01Z</time>
      </trkpt>
      <trkpt lat="46.63786" lon="5.50435">
        <ele>271.229126</ele>
        <time>2011-09-20T10:46:16Z</time>
      </trkpt>
      <trkpt lat="46.63769" lon="5.50481">
        <ele>273.151855</ele>
        <time>2011-09-20T10:46:28Z</time>
      </trkpt>
      <trkpt lat="46.63759" lon="5.50496">
        <ele>274.113037</ele>
        <time>2011-09-20T10:46:33Z</time>
      </trkpt>
      <trkpt lat="46.63724" lon="5.50472">
        <ele>275.074463</ele>
        <time>2011-09-20T10:46:44Z</time>
      </trkpt>
      <trkpt lat="46.63652" lon="5.50405">
        <ele>275.555054</ele>
        <time>2011-09-20T10:47:04Z</time>
      </trkpt>
      <trkpt lat="46.63644" lon="5.50389">
        <ele>275.555054</ele>
        <time>2011-09-20T10:47:08Z</time>
      </trkpt>
      <trkpt lat="46.63643" lon="5.50356">
        <ele>275.074463</ele>
        <time>2011-09-20T10:47:13Z</time>
      </trkpt>
      <trkpt lat="46.63653" lon="5.50295">
        <ele>273.151855</ele>
        <time>2011-09-20T10:47:21Z</time>
      </trkpt>
      <trkpt lat="46.63651" lon="5.50206">
        <ele>269.787109</ele>
        <time>2011-09-20T10:47:30Z</time>
      </trkpt>
      <trkpt lat="46.63641" lon="5.50122">
        <ele>266.903198</ele>
        <time>2011-09-20T10:47:37Z</time>
      </trkpt>
      <trkpt lat="46.63629" lon="5.50087">
        <ele>265.461304</ele>
        <time>2011-09-20T10:47:40Z</time>
      </trkpt>
      <trkpt lat="46.63616" lon="5.50069">
        <ele>264.499878</ele>
        <time>2011-09-20T10:47:42Z</time>
      </trkpt>
      <trkpt lat="46.63551" lon="5.5001">
        <ele>263.057861</ele>
        <time>2011-09-20T10:47:51Z</time>
      </trkpt>
      <trkpt lat="46.63534" lon="5.49971">
        <ele>262.096558</ele>
        <time>2011-09-20T10:47:55Z</time>
      </trkpt>
      <trkpt lat="46.63524" lon="5.49837">
        <ele>260.17395</ele>
        <time>2011-09-20T10:48:09Z</time>
      </trkpt>
      <trkpt lat="46.63521" lon="5.49789">
        <ele>258.731934</ele>
        <time>2011-09-20T10:48:15Z</time>
      </trkpt>
      <trkpt lat="46.63516" lon="5.49742">
        <ele>258.731934</ele>
        <time>2011-09-20T10:48:21Z</time>
      </trkpt>
      <trkpt lat="46.63496" lon="5.49669">
        <ele>256.328735</ele>
        <time>2011-09-20T10:48:29Z</time>
      </trkpt>
      <trkpt lat="46.63442" lon="5.49507">
        <ele>255.848022</ele>
        <time>2011-09-20T10:48:46Z</time>
      </trkpt>
      <trkpt lat="46.63395" lon="5.49453">
        <ele>252.963989</ele>
        <time>2011-09-20T10:48:55Z</time>
      </trkpt>
      <trkpt lat="46.63285" lon="5.49349">
        <ele>253.925415</ele>
        <time>2011-09-20T10:49:13Z</time>
      </trkpt>
      <trkpt lat="46.6321" lon="5.49304">
        <ele>257.290039</ele>
        <time>2011-09-20T10:49:29Z</time>
      </trkpt>
      <trkpt lat="46.63184" lon="5.49301">
        <ele>257.770752</ele>
        <time>2011-09-20T10:49:34Z</time>
      </trkpt>
      <trkpt lat="46.63158" lon="5.49311">
        <ele>258.251343</ele>
        <time>2011-09-20T10:49:39Z</time>
      </trkpt>
      <trkpt lat="46.63108" lon="5.49368">
        <ele>259.212646</ele>
        <time>2011-09-20T10:49:51Z</time>
      </trkpt>
      <trkpt lat="46.63095" lon="5.4938">
        <ele>259.693359</ele>
        <time>2011-09-20T10:49:54Z</time>
      </trkpt>
      <trkpt lat="46.63059" lon="5.49398">
        <ele>261.135254</ele>
        <time>2011-09-20T10:50:02Z</time>
      </trkpt>
      <trkpt lat="46.62989" lon="5.49437">
        <ele>264.019287</ele>
        <time>2011-09-20T10:50:18Z</time>
      </trkpt>
      <trkpt lat="46.62946" lon="5.49465">
        <ele>267.383911</ele>
        <time>2011-09-20T10:50:30Z</time>
      </trkpt>
      <trkpt lat="46.62913" lon="5.49421">
        <ele>266.903198</ele>
        <time>2011-09-20T10:50:41Z</time>
      </trkpt>
      <trkpt lat="46.62892" lon="5.49406">
        <ele>266.422485</ele>
        <time>2011-09-20T10:50:45Z</time>
      </trkpt>
      <trkpt lat="46.62794" lon="5.49388">
        <ele>264.980591</ele>
        <time>2011-09-20T10:51:02Z</time>
      </trkpt>
      <trkpt lat="46.62715" lon="5.4938">
        <ele>263.538574</ele>
        <time>2011-09-20T10:51:14Z</time>
      </trkpt>
      <trkpt lat="46.62618" lon="5.49427">
        <ele>261.615967</ele>
        <time>2011-09-20T10:51:30Z</time>
      </trkpt>
      <trkpt lat="46.62576" lon="5.4945">
        <ele>259.212646</ele>
        <time>2011-09-20T10:51:39Z</time>
      </trkpt>
      <trkpt lat="46.62558" lon="5.49461">
        <ele>259.212646</ele>
        <time>2011-09-20T10:51:46Z</time>
      </trkpt>
      <trkpt lat="46.62515" lon="5.49532">
        <ele>259.212646</ele>
        <time>2011-09-20T10:51:59Z</time>
      </trkpt>
      <trkpt lat="46.62496" lon="5.49516">
        <ele>257.770752</ele>
        <time>2011-09-20T10:52:05Z</time>
      </trkpt>
      <trkpt lat="46.6248" lon="5.49403">
        <ele>257.770752</ele>
        <time>2011-09-20T10:52:18Z</time>
      </trkpt>
      <trkpt lat="46.62481" lon="5.49382">
        <ele>258.731934</ele>
        <time>2011-09-20T10:52:21Z</time>
      </trkpt>
      <trkpt lat="46.62473" lon="5.49353">
        <ele>259.693359</ele>
        <time>2011-09-20T10:52:26Z</time>
      </trkpt>
      <trkpt lat="46.62466" lon="5.49344">
        <ele>260.17395</ele>
        <time>2011-09-20T10:52:28Z</time>
      </trkpt>
      <trkpt lat="46.62399" lon="5.49269">
        <ele>262.096558</ele>
        <time>2011-09-20T10:52:43Z</time>
      </trkpt>
      <trkpt lat="46.62337" lon="5.49205">
        <ele>262.096558</ele>
        <time>2011-09-20T10:52:56Z</time>
      </trkpt>
      <trkpt lat="46.62326" lon="5.49177">
        <ele>262.096558</ele>
        <time>2011-09-20T10:53:00Z</time>
      </trkpt>
      <trkpt lat="46.62323" lon="5.49159">
        <ele>261.615967</ele>
        <time>2011-09-20T10:53:02Z</time>
      </trkpt>
      <trkpt lat="46.62309" lon="5.49126">
        <ele>260.654541</ele>
        <time>2011-09-20T10:53:06Z</time>
      </trkpt>
      <trkpt lat="46.62257" lon="5.49043">
        <ele>257.290039</ele>
        <time>2011-09-20T10:53:17Z</time>
      </trkpt>
      <trkpt lat="46.62239" lon="5.49018">
        <ele>255.848022</ele>
        <time>2011-09-20T10:53:20Z</time>
      </trkpt>
      <trkpt lat="46.62184" lon="5.48945">
        <ele>252.483398</ele>
        <time>2011-09-20T10:53:28Z</time>
      </trkpt>
      <trkpt lat="46.62151" lon="5.48907">
        <ele>249.118774</ele>
        <time>2011-09-20T10:53:32Z</time>
      </trkpt>
      <trkpt lat="46.6211" lon="5.48875">
        <ele>245.273438</ele>
        <time>2011-09-20T10:53:36Z</time>
      </trkpt>
      <trkpt lat="46.62034" lon="5.48816">
        <ele>241.908936</ele>
        <time>2011-09-20T10:53:43Z</time>
      </trkpt>
      <trkpt lat="46.62024" lon="5.48806">
        <ele>241.908936</ele>
        <time>2011-09-20T10:53:44Z</time>
      </trkpt>
      <trkpt lat="46.61953" lon="5.48717">
        <ele>240.467041</ele>
        <time>2011-09-20T10:53:53Z</time>
      </trkpt>
      <trkpt lat="46.61889" lon="5.48615">
        <ele>243.831543</ele>
        <time>2011-09-20T10:54:07Z</time>
      </trkpt>
      <trkpt lat="46.61842" lon="5.48554">
        <ele>246.715454</ele>
        <time>2011-09-20T10:54:18Z</time>
      </trkpt>
      <trkpt lat="46.61814" lon="5.48518">
        <ele>247.676758</ele>
        <time>2011-09-20T10:54:25Z</time>
      </trkpt>
      <trkpt lat="46.61762" lon="5.48452">
        <ele>244.792847</ele>
        <time>2011-09-20T10:54:36Z</time>
      </trkpt>
      <trkpt lat="46.61728" lon="5.48416">
        <ele>242.389648</ele>
        <time>2011-09-20T10:54:42Z</time>
      </trkpt>
      <trkpt lat="46.61598" lon="5.48301">
        <ele>239.505493</ele>
        <time>2011-09-20T10:55:02Z</time>
      </trkpt>
      <trkpt lat="46.61542" lon="5.48248">
        <ele>238.063599</ele>
        <time>2011-09-20T10:55:13Z</time>
      </trkpt>
      <trkpt lat="46.61537" lon="5.48223">
        <ele>238.544312</ele>
        <time>2011-09-20T10:55:18Z</time>
      </trkpt>
      <trkpt lat="46.61526" lon="5.48192">
        <ele>236.621704</ele>
        <time>2011-09-20T10:55:24Z</time>
      </trkpt>
      <trkpt lat="46.61452" lon="5.4811">
        <ele>234.699097</ele>
        <time>2011-09-20T10:55:38Z</time>
      </trkpt>
      <trkpt lat="46.61354" lon="5.47978">
        <ele>232.776489</ele>
        <time>2011-09-20T10:55:58Z</time>
      </trkpt>
      <trkpt lat="46.61255" lon="5.47831">
        <ele>231.814941</ele>
        <time>2011-09-20T10:56:20Z</time>
      </trkpt>
      <trkpt lat="46.61189" lon="5.47709">
        <ele>231.334351</ele>
        <time>2011-09-20T10:56:37Z</time>
      </trkpt>
      <trkpt lat="46.61134" lon="5.47641">
        <ele>230.373047</ele>
        <time>2011-09-20T10:56:48Z</time>
      </trkpt>
      <trkpt lat="46.61121" lon="5.47606">
        <ele>230.373047</ele>
        <time>2011-09-20T10:56:52Z</time>
      </trkpt>
      <trkpt lat="46.61114" lon="5.47579">
        <ele>229.892334</ele>
        <time>2011-09-20T10:56:55Z</time>
      </trkpt>
      <trkpt lat="46.61094" lon="5.47544">
        <ele>229.892334</ele>
        <time>2011-09-20T10:57:00Z</time>
      </trkpt>
      <trkpt lat="46.60996" lon="5.4747">
        <ele>228.450439</ele>
        <time>2011-09-20T10:57:19Z</time>
      </trkpt>
      <trkpt lat="46.60966" lon="5.47438">
        <ele>227.489136</ele>
        <time>2011-09-20T10:57:31Z</time>
      </trkpt>
      <trkpt lat="46.60956" lon="5.47427">
        <ele>227.489136</ele>
        <time>2011-09-20T10:57:34Z</time>
      </trkpt>
      <trkpt lat="46.6094" lon="5.47418">
        <ele>227.969727</ele>
        <time>2011-09-20T10:57:38Z</time>
      </trkpt>
      <trkpt lat="46.6093" lon="5.47416">
        <ele>227.969727</ele>
        <time>2011-09-20T10:57:40Z</time>
      </trkpt>
      <trkpt lat="46.60868" lon="5.4735">
        <ele>229.411743</ele>
        <time>2011-09-20T10:57:55Z</time>
      </trkpt>
      <trkpt lat="46.60865" lon="5.47346">
        <ele>229.411743</ele>
        <time>2011-09-20T10:57:56Z</time>
      </trkpt>
      <trkpt lat="46.6083" lon="5.47328">
        <ele>230.373047</ele>
        <time>2011-09-20T10:58:04Z</time>
      </trkpt>
      <trkpt lat="46.60814" lon="5.4733">
        <ele>230.373047</ele>
        <time>2011-09-20T10:58:07Z</time>
      </trkpt>
      <trkpt lat="46.60786" lon="5.47339">
        <ele>229.892334</ele>
        <time>2011-09-20T10:58:15Z</time>
      </trkpt>
      <trkpt lat="46.60755" lon="5.47333">
        <ele>229.892334</ele>
        <time>2011-09-20T10:58:21Z</time>
      </trkpt>
      <trkpt lat="46.60719" lon="5.47344">
        <ele>229.411743</ele>
        <time>2011-09-20T10:58:27Z</time>
      </trkpt>
      <trkpt lat="46.60612" lon="5.4736">
        <ele>227.489136</ele>
        <time>2011-09-20T10:58:43Z</time>
      </trkpt>
      <trkpt lat="46.60533" lon="5.47365">
        <ele>225.566528</ele>
        <time>2011-09-20T10:58:53Z</time>
      </trkpt>
      <trkpt lat="46.6046" lon="5.47417">
        <ele>225.566528</ele>
        <time>2011-09-20T10:59:05Z</time>
      </trkpt>
      <trkpt lat="46.60416" lon="5.47442">
        <ele>226.047119</ele>
        <time>2011-09-20T10:59:13Z</time>
      </trkpt>
      <trkpt lat="46.60392" lon="5.47442">
        <ele>225.566528</ele>
        <time>2011-09-20T10:59:17Z</time>
      </trkpt>
      <trkpt lat="46.60322" lon="5.47404">
        <ele>222.201782</ele>
        <time>2011-09-20T10:59:30Z</time>
      </trkpt>
      <trkpt lat="46.60297" lon="5.47392">
        <ele>220.759888</ele>
        <time>2011-09-20T10:59:38Z</time>
      </trkpt>
      <trkpt lat="46.6029" lon="5.47412">
        <ele>221.240601</ele>
        <time>2011-09-20T10:59:43Z</time>
      </trkpt>
      <trkpt lat="46.6029" lon="5.47433">
        <ele>220.759888</ele>
        <time>2011-09-20T10:59:46Z</time>
      </trkpt>
      <trkpt lat="46.60293" lon="5.47457">
        <ele>221.240601</ele>
        <time>2011-09-20T10:59:49Z</time>
      </trkpt>
      <trkpt lat="46.60279" lon="5.4758">
        <ele>224.124512</ele>
        <time>2011-09-20T11:00:07Z</time>
      </trkpt>
      <trkpt lat="46.60277" lon="5.47587">
        <ele>224.124512</ele>
        <time>2011-09-20T11:00:08Z</time>
      </trkpt>
      <trkpt lat="46.60267" lon="5.47609">
        <ele>224.124512</ele>
        <time>2011-09-20T11:00:11Z</time>
      </trkpt>
      <trkpt lat="46.60241" lon="5.47629">
        <ele>224.124512</ele>
        <time>2011-09-20T11:00:16Z</time>
      </trkpt>
      <trkpt lat="46.60187" lon="5.47641">
        <ele>224.124512</ele>
        <time>2011-09-20T11:00:25Z</time>
      </trkpt>
      <trkpt lat="46.60117" lon="5.47705">
        <ele>224.605225</ele>
        <time>2011-09-20T11:00:40Z</time>
      </trkpt>
      <trkpt lat="46.60082" lon="5.47757">
        <ele>226.527832</ele>
        <time>2011-09-20T11:00:50Z</time>
      </trkpt>
      <trkpt lat="46.60071" lon="5.47782">
        <ele>227.969727</ele>
        <time>2011-09-20T11:00:55Z</time>
      </trkpt>
      <trkpt lat="46.60065" lon="5.47806">
        <ele>228.931152</ele>
        <time>2011-09-20T11:00:59Z</time>
      </trkpt>
      <trkpt lat="46.60063" lon="5.47825">
        <ele>229.892334</ele>
        <time>2011-09-20T11:01:02Z</time>
      </trkpt>
      <trkpt lat="46.6006" lon="5.47864">
        <ele>231.334351</ele>
        <time>2011-09-20T11:01:09Z</time>
      </trkpt>
      <trkpt lat="46.60051" lon="5.47887">
        <ele>230.85376</ele>
        <time>2011-09-20T11:01:13Z</time>
      </trkpt>
      <trkpt lat="46.60039" lon="5.47904">
        <ele>229.411743</ele>
        <time>2011-09-20T11:01:16Z</time>
      </trkpt>
      <trkpt lat="46.60029" lon="5.47914">
        <ele>228.931152</ele>
        <time>2011-09-20T11:01:18Z</time>
      </trkpt>
      <trkpt lat="46.60011" lon="5.47941">
        <ele>228.450439</ele>
        <time>2011-09-20T11:01:22Z</time>
      </trkpt>
      <trkpt lat="46.60005" lon="5.47956">
        <ele>228.931152</ele>
        <time>2011-09-20T11:01:24Z</time>
      </trkpt>
      <trkpt lat="46.60008" lon="5.48009">
        <ele>230.85376</ele>
        <time>2011-09-20T11:01:31Z</time>
      </trkpt>
      <trkpt lat="46.60013" lon="5.4803">
        <ele>231.334351</ele>
        <time>2011-09-20T11:01:34Z</time>
      </trkpt>
      <trkpt lat="46.60021" lon="5.48048">
        <ele>231.814941</ele>
        <time>2011-09-20T11:01:38Z</time>
      </trkpt>
      <trkpt lat="46.60027" lon="5.4809">
        <ele>231.814941</ele>
        <time>2011-09-20T11:01:46Z</time>
      </trkpt>
      <trkpt lat="46.60029" lon="5.48149">
        <ele>227.969727</ele>
        <time>2011-09-20T11:01:53Z</time>
      </trkpt>
      <trkpt lat="46.6003" lon="5.48159">
        <ele>227.489136</ele>
        <time>2011-09-20T11:01:55Z</time>
      </trkpt>
      <trkpt lat="46.60033" lon="5.48184">
        <ele>226.047119</ele>
        <time>2011-09-20T11:01:59Z</time>
      </trkpt>
      <trkpt lat="46.60027" lon="5.48241">
        <ele>224.124512</ele>
        <time>2011-09-20T11:02:05Z</time>
      </trkpt>
      <trkpt lat="46.59961" lon="5.48458">
        <ele>222.682495</ele>
        <time>2011-09-20T11:02:27Z</time>
      </trkpt>
      <trkpt lat="46.59926" lon="5.48632">
        <ele>222.682495</ele>
        <time>2011-09-20T11:02:46Z</time>
      </trkpt>
      <trkpt lat="46.59927" lon="5.4869">
        <ele>223.643799</ele>
        <time>2011-09-20T11:02:53Z</time>
      </trkpt>
      <trkpt lat="46.59922" lon="5.48776">
        <ele>224.124512</ele>
        <time>2011-09-20T11:03:04Z</time>
      </trkpt>
      <trkpt lat="46.59884" lon="5.48898">
        <ele>224.605225</ele>
        <time>2011-09-20T11:03:20Z</time>
      </trkpt>
      <trkpt lat="46.59869" lon="5.49009">
        <ele>227.489136</ele>
        <time>2011-09-20T11:03:35Z</time>
      </trkpt>
      <trkpt lat="46.59885" lon="5.49149">
        <ele>227.969727</ele>
        <time>2011-09-20T11:03:52Z</time>
      </trkpt>
      <trkpt lat="46.59889" lon="5.49179">
        <ele>227.969727</ele>
        <time>2011-09-20T11:03:55Z</time>
      </trkpt>
      <trkpt lat="46.599" lon="5.49232">
        <ele>227.489136</ele>
        <time>2011-09-20T11:04:01Z</time>
      </trkpt>
      <trkpt lat="46.59898" lon="5.49307">
        <ele>228.450439</ele>
        <time>2011-09-20T11:04:10Z</time>
      </trkpt>
      <trkpt lat="46.59918" lon="5.49404">
        <ele>228.931152</ele>
        <time>2011-09-20T11:04:23Z</time>
      </trkpt>
      <trkpt lat="46.59921" lon="5.49428">
        <ele>228.931152</ele>
        <time>2011-09-20T11:04:26Z</time>
      </trkpt>
      <trkpt lat="46.59923" lon="5.49507">
        <ele>229.892334</ele>
        <time>2011-09-20T11:04:36Z</time>
      </trkpt>
      <trkpt lat="46.59927" lon="5.49528">
        <ele>230.85376</ele>
        <time>2011-09-20T11:04:39Z</time>
      </trkpt>
      <trkpt lat="46.59938" lon="5.49565">
        <ele>232.295776</ele>
        <time>2011-09-20T11:04:45Z</time>
      </trkpt>
      <trkpt lat="46.59944" lon="5.49689">
        <ele>233.25708</ele>
        <time>2011-09-20T11:05:01Z</time>
      </trkpt>
      <trkpt lat="46.5993" lon="5.49827">
        <ele>235.660278</ele>
        <time>2011-09-20T11:05:19Z</time>
      </trkpt>
      <trkpt lat="46.59917" lon="5.49955">
        <ele>238.544312</ele>
        <time>2011-09-20T11:05:37Z</time>
      </trkpt>
      <trkpt lat="46.59917" lon="5.49975">
        <ele>239.505493</ele>
        <time>2011-09-20T11:05:40Z</time>
      </trkpt>
      <trkpt lat="46.59916" lon="5.50001">
        <ele>239.986206</ele>
        <time>2011-09-20T11:05:44Z</time>
      </trkpt>
      <trkpt lat="46.59879" lon="5.50082">
        <ele>242.389648</ele>
        <time>2011-09-20T11:05:58Z</time>
      </trkpt>
      <trkpt lat="46.59852" lon="5.50131">
        <ele>245.75415</ele>
        <time>2011-09-20T11:06:10Z</time>
      </trkpt>
      <trkpt lat="46.59829" lon="5.50163">
        <ele>247.676758</ele>
        <time>2011-09-20T11:06:19Z</time>
      </trkpt>
      <trkpt lat="46.59783" lon="5.50211">
        <ele>249.599487</ele>
        <time>2011-09-20T11:06:33Z</time>
      </trkpt>
      <trkpt lat="46.59716" lon="5.50238">
        <ele>250.0802</ele>
        <time>2011-09-20T11:06:48Z</time>
      </trkpt>
      <trkpt lat="46.59684" lon="5.50278">
        <ele>252.002808</ele>
        <time>2011-09-20T11:07:00Z</time>
      </trkpt>
      <trkpt lat="46.59709" lon="5.50301">
        <ele>253.925415</ele>
        <time>2011-09-20T11:07:11Z</time>
      </trkpt>
      <trkpt lat="46.5975" lon="5.50269">
        <ele>257.290039</ele>
        <time>2011-09-20T11:07:25Z</time>
      </trkpt>
      <trkpt lat="46.59792" lon="5.50236">
        <ele>260.17395</ele>
        <time>2011-09-20T11:07:39Z</time>
      </trkpt>
      <trkpt lat="46.59839" lon="5.50204">
        <ele>263.538574</ele>
        <time>2011-09-20T11:07:54Z</time>
      </trkpt>
      <trkpt lat="46.59886" lon="5.50185">
        <ele>266.422485</ele>
        <time>2011-09-20T11:08:08Z</time>
      </trkpt>
      <trkpt lat="46.5994" lon="5.50179">
        <ele>269.306519</ele>
        <time>2011-09-20T11:08:23Z</time>
      </trkpt>
      <trkpt lat="46.59969" lon="5.50207">
        <ele>271.709717</ele>
        <time>2011-09-20T11:08:33Z</time>
      </trkpt>
      <trkpt lat="46.59999" lon="5.50265">
        <ele>275.074463</ele>
        <time>2011-09-20T11:08:48Z</time>
      </trkpt>
      <trkpt lat="46.60042" lon="5.50289">
        <ele>277.958252</ele>
        <time>2011-09-20T11:09:03Z</time>
      </trkpt>
      <trkpt lat="46.60086" lon="5.50287">
        <ele>280.842407</ele>
        <time>2011-09-20T11:09:17Z</time>
      </trkpt>
      <trkpt lat="46.60132" lon="5.50314">
        <ele>283.726196</ele>
        <time>2011-09-20T11:09:32Z</time>
      </trkpt>
      <trkpt lat="46.60174" lon="5.50341">
        <ele>286.610229</ele>
        <time>2011-09-20T11:09:47Z</time>
      </trkpt>
      <trkpt lat="46.60224" lon="5.50355">
        <ele>289.974854</ele>
        <time>2011-09-20T11:10:03Z</time>
      </trkpt>
      <trkpt lat="46.60269" lon="5.50361">
        <ele>292.858765</ele>
        <time>2011-09-20T11:10:18Z</time>
      </trkpt>
      <trkpt lat="46.6031" lon="5.50404">
        <ele>296.223511</ele>
        <time>2011-09-20T11:10:33Z</time>
      </trkpt>
      <trkpt lat="46.60347" lon="5.50463">
        <ele>299.1073</ele>
        <time>2011-09-20T11:10:50Z</time>
      </trkpt>
      <trkpt lat="46.60382" lon="5.50541">
        <ele>302.471924</ele>
        <time>2011-09-20T11:11:09Z</time>
      </trkpt>
      <trkpt lat="46.60418" lon="5.5058">
        <ele>305.355957</ele>
        <time>2011-09-20T11:11:23Z</time>
      </trkpt>
      <trkpt lat="46.60459" lon="5.50611">
        <ele>308.720459</ele>
        <time>2011-09-20T11:11:39Z</time>
      </trkpt>
      <trkpt lat="46.60498" lon="5.50636">
        <ele>312.085205</ele>
        <time>2011-09-20T11:11:53Z</time>
      </trkpt>
      <trkpt lat="46.60554" lon="5.5065">
        <ele>314.969116</ele>
        <time>2011-09-20T11:12:11Z</time>
      </trkpt>
      <trkpt lat="46.60615" lon="5.50637">
        <ele>318.333618</ele>
        <time>2011-09-20T11:12:30Z</time>
      </trkpt>
      <trkpt lat="46.60664" lon="5.50644">
        <ele>321.217773</ele>
        <time>2011-09-20T11:12:45Z</time>
      </trkpt>
      <trkpt lat="46.60726" lon="5.50645">
        <ele>324.582275</ele>
        <time>2011-09-20T11:13:05Z</time>
      </trkpt>
      <trkpt lat="46.6078" lon="5.5065">
        <ele>327.946777</ele>
        <time>2011-09-20T11:13:23Z</time>
      </trkpt>
      <trkpt lat="46.60817" lon="5.50688">
        <ele>331.311523</ele>
        <time>2011-09-20T11:13:40Z</time>
      </trkpt>
      <trkpt lat="46.60807" lon="5.50713">
        <ele>332.75354</ele>
        <time>2011-09-20T11:13:49Z</time>
      </trkpt>
      <trkpt lat="46.60775" lon="5.50713">
        <ele>334.676147</ele>
        <time>2011-09-20T11:14:00Z</time>
      </trkpt>
      <trkpt lat="46.60713" lon="5.50729">
        <ele>337.560059</ele>
        <time>2011-09-20T11:14:19Z</time>
      </trkpt>
      <trkpt lat="46.60651" lon="5.50764">
        <ele>340.444092</ele>
        <time>2011-09-20T11:14:37Z</time>
      </trkpt>
      <trkpt lat="46.60589" lon="5.50776">
        <ele>343.808594</ele>
        <time>2011-09-20T11:14:55Z</time>
      </trkpt>
      <trkpt lat="46.6052" lon="5.50779">
        <ele>347.173218</ele>
        <time>2011-09-20T11:15:14Z</time>
      </trkpt>
      <trkpt lat="46.60449" lon="5.5077">
        <ele>350.537842</ele>
        <time>2011-09-20T11:15:34Z</time>
      </trkpt>
      <trkpt lat="46.60385" lon="5.5075">
        <ele>353.421875</ele>
        <time>2011-09-20T11:15:52Z</time>
      </trkpt>
      <trkpt lat="46.60328" lon="5.50731">
        <ele>355.825195</ele>
        <time>2011-09-20T11:16:08Z</time>
      </trkpt>
      <trkpt lat="46.60254" lon="5.50734">
        <ele>359.189697</ele>
        <time>2011-09-20T11:16:28Z</time>
      </trkpt>
      <trkpt lat="46.60228" lon="5.50729">
        <ele>361.112427</ele>
        <time>2011-09-20T11:16:38Z</time>
      </trkpt>
      <trkpt lat="46.60195" lon="5.50705">
        <ele>363.515747</ele>
        <time>2011-09-20T11:16:50Z</time>
      </trkpt>
      <trkpt lat="46.60174" lon="5.50689">
        <ele>365.438354</ele>
        <time>2011-09-20T11:17:00Z</time>
      </trkpt>
      <trkpt lat="46.60142" lon="5.5066">
        <ele>367.360962</ele>
        <time>2011-09-20T11:17:11Z</time>
      </trkpt>
      <trkpt lat="46.60073" lon="5.50617">
        <ele>369.764282</ele>
        <time>2011-09-20T11:17:27Z</time>
      </trkpt>
      <trkpt lat="46.60032" lon="5.50573">
        <ele>372.16748</ele>
        <time>2011-09-20T11:17:41Z</time>
      </trkpt>
      <trkpt lat="46.5998" lon="5.50545">
        <ele>374.570801</ele>
        <time>2011-09-20T11:17:57Z</time>
      </trkpt>
      <trkpt lat="46.59939" lon="5.50564">
        <ele>376.974243</ele>
        <time>2011-09-20T11:18:10Z</time>
      </trkpt>
      <trkpt lat="46.59946" lon="5.50593">
        <ele>377.935425</ele>
        <time>2011-09-20T11:18:18Z</time>
      </trkpt>
      <trkpt lat="46.59976" lon="5.50577">
        <ele>379.377441</ele>
        <time>2011-09-20T11:18:29Z</time>
      </trkpt>
      <trkpt lat="46.60008" lon="5.50603">
        <ele>381.78064</ele>
        <time>2011-09-20T11:18:42Z</time>
      </trkpt>
      <trkpt lat="46.60034" lon="5.5063">
        <ele>384.184082</ele>
        <time>2011-09-20T11:18:53Z</time>
      </trkpt>
      <trkpt lat="46.6002" lon="5.50646">
        <ele>385.145386</ele>
        <time>2011-09-20T11:19:00Z</time>
      </trkpt>
      <trkpt lat="46.60017" lon="5.50644">
        <ele>385.145386</ele>
        <time>2011-09-20T11:19:01Z</time>
      </trkpt>
      <trkpt lat="46.5997" lon="5.50605">
        <ele>387.548584</ele>
        <time>2011-09-20T11:19:18Z</time>
      </trkpt>
      <trkpt lat="46.59951" lon="5.50637">
        <ele>388.990601</ele>
        <time>2011-09-20T11:19:28Z</time>
      </trkpt>
      <trkpt lat="46.59937" lon="5.5071">
        <ele>391.874512</ele>
        <time>2011-09-20T11:19:44Z</time>
      </trkpt>
      <trkpt lat="46.59909" lon="5.50777">
        <ele>395.239136</ele>
        <time>2011-09-20T11:20:00Z</time>
      </trkpt>
      <trkpt lat="46.59884" lon="5.5084">
        <ele>398.123169</ele>
        <time>2011-09-20T11:20:15Z</time>
      </trkpt>
      <trkpt lat="46.59895" lon="5.50895">
        <ele>400.526489</ele>
        <time>2011-09-20T11:20:28Z</time>
      </trkpt>
      <trkpt lat="46.5992" lon="5.5094">
        <ele>402.929688</ele>
        <time>2011-09-20T11:20:41Z</time>
      </trkpt>
      <trkpt lat="46.59909" lon="5.51013">
        <ele>406.294312</ele>
        <time>2011-09-20T11:20:57Z</time>
      </trkpt>
      <trkpt lat="46.59887" lon="5.51039">
        <ele>408.217041</ele>
        <time>2011-09-20T11:21:07Z</time>
      </trkpt>
      <trkpt lat="46.59838" lon="5.51056">
        <ele>410.620239</ele>
        <time>2011-09-20T11:21:22Z</time>
      </trkpt>
      <trkpt lat="46.59794" lon="5.5107">
        <ele>413.504272</ele>
        <time>2011-09-20T11:21:35Z</time>
      </trkpt>
      <trkpt lat="46.59764" lon="5.51054">
        <ele>415.42688</ele>
        <time>2011-09-20T11:21:47Z</time>
      </trkpt>
      <trkpt lat="46.59732" lon="5.51041">
        <ele>417.349609</ele>
        <time>2011-09-20T11:21:58Z</time>
      </trkpt>
      <trkpt lat="46.59689" lon="5.51035">
        <ele>420.233398</ele>
        <time>2011-09-20T11:22:13Z</time>
      </trkpt>
      <trkpt lat="46.59658" lon="5.51021">
        <ele>422.636719</ele>
        <time>2011-09-20T11:22:24Z</time>
      </trkpt>
      <trkpt lat="46.59627" lon="5.51005">
        <ele>425.040161</ele>
        <time>2011-09-20T11:22:34Z</time>
      </trkpt>
      <trkpt lat="46.59595" lon="5.50997">
        <ele>426.482056</ele>
        <time>2011-09-20T11:22:43Z</time>
      </trkpt>
      <trkpt lat="46.59564" lon="5.50986">
        <ele>428.885376</ele>
        <time>2011-09-20T11:22:54Z</time>
      </trkpt>
      <trkpt lat="46.59548" lon="5.50985">
        <ele>429.846558</ele>
        <time>2011-09-20T11:22:58Z</time>
      </trkpt>
      <trkpt lat="46.59508" lon="5.50992">
        <ele>432.25</ele>
        <time>2011-09-20T11:23:09Z</time>
      </trkpt>
      <trkpt lat="46.59463" lon="5.51017">
        <ele>434.65332</ele>
        <time>2011-09-20T11:23:20Z</time>
      </trkpt>
      <trkpt lat="46.59431" lon="5.51078">
        <ele>437.056519</ele>
        <time>2011-09-20T11:23:34Z</time>
      </trkpt>
      <trkpt lat="46.59422" lon="5.51154">
        <ele>440.421265</ele>
        <time>2011-09-20T11:23:49Z</time>
      </trkpt>
      <trkpt lat="46.59426" lon="5.51222">
        <ele>443.305054</ele>
        <time>2011-09-20T11:24:03Z</time>
      </trkpt>
      <trkpt lat="46.59427" lon="5.5128">
        <ele>445.708374</ele>
        <time>2011-09-20T11:24:17Z</time>
      </trkpt>
      <trkpt lat="46.59449" lon="5.51311">
        <ele>447.150269</ele>
        <time>2011-09-20T11:24:31Z</time>
      </trkpt>
      <trkpt lat="46.59476" lon="5.51351">
        <ele>448.592407</ele>
        <time>2011-09-20T11:24:42Z</time>
      </trkpt>
      <trkpt lat="46.59488" lon="5.51364">
        <ele>448.592407</ele>
        <time>2011-09-20T11:24:46Z</time>
      </trkpt>
      <trkpt lat="46.59523" lon="5.51382">
        <ele>447.630981</ele>
        <time>2011-09-20T11:24:54Z</time>
      </trkpt>
      <trkpt lat="46.59593" lon="5.51395">
        <ele>445.227661</ele>
        <time>2011-09-20T11:25:05Z</time>
      </trkpt>
      <trkpt lat="46.59642" lon="5.51432">
        <ele>447.630981</ele>
        <time>2011-09-20T11:25:15Z</time>
      </trkpt>
      <trkpt lat="46.59697" lon="5.5146">
        <ele>450.995605</ele>
        <time>2011-09-20T11:25:28Z</time>
      </trkpt>
      <trkpt lat="46.59727" lon="5.51474">
        <ele>451.957031</ele>
        <time>2011-09-20T11:25:35Z</time>
      </trkpt>
      <trkpt lat="46.59769" lon="5.5148">
        <ele>450.995605</ele>
        <time>2011-09-20T11:25:48Z</time>
      </trkpt>
      <trkpt lat="46.59773" lon="5.51477">
        <ele>450.995605</ele>
        <time>2011-09-20T11:25:52Z</time>
      </trkpt>
      <trkpt lat="46.59771" lon="5.51479">
        <ele>450.515015</ele>
        <time>2011-09-20T11:25:56Z</time>
      </trkpt>
      <trkpt lat="46.59766" lon="5.51482">
        <ele>450.515015</ele>
        <time>2011-09-20T11:26:00Z</time>
      </trkpt>
      <trkpt lat="46.59769" lon="5.51487">
        <ele>450.515015</ele>
        <time>2011-09-20T11:26:08Z</time>
      </trkpt>
      <trkpt lat="46.5977" lon="5.51487">
        <ele>447.150269</ele>
        <time>2011-09-20T11:26:40Z</time>
      </trkpt>
      <trkpt lat="46.5977" lon="5.51487">
        <ele>451.476318</ele>
        <time>2011-09-20T11:26:41Z</time>
      </trkpt>
      <trkpt lat="46.59772" lon="5.51485">
        <ele>450.515015</ele>
        <time>2011-09-20T11:32:57Z</time>
      </trkpt>
      <trkpt lat="46.59773" lon="5.51479">
        <ele>450.034424</ele>
        <time>2011-09-20T11:33:00Z</time>
      </trkpt>
      <trkpt lat="46.59797" lon="5.51456">
        <ele>450.515015</ele>
        <time>2011-09-20T11:33:12Z</time>
      </trkpt>
      <trkpt lat="46.59847" lon="5.51429">
        <ele>453.879639</ele>
        <time>2011-09-20T11:33:26Z</time>
      </trkpt>
      <trkpt lat="46.59883" lon="5.51408">
        <ele>455.802246</ele>
        <time>2011-09-20T11:33:37Z</time>
      </trkpt>
      <trkpt lat="46.59881" lon="5.51398">
        <ele>456.282959</ele>
        <time>2011-09-20T11:33:42Z</time>
      </trkpt>
      <trkpt lat="46.5983" lon="5.51405">
        <ele>458.686157</ele>
        <time>2011-09-20T11:33:57Z</time>
      </trkpt>
      <trkpt lat="46.5981" lon="5.5138">
        <ele>460.128174</ele>
        <time>2011-09-20T11:34:06Z</time>
      </trkpt>
      <trkpt lat="46.59833" lon="5.51355">
        <ele>461.57019</ele>
        <time>2011-09-20T11:34:15Z</time>
      </trkpt>
      <trkpt lat="46.59902" lon="5.51343">
        <ele>464.934814</ele>
        <time>2011-09-20T11:34:35Z</time>
      </trkpt>
      <trkpt lat="46.59949" lon="5.51287">
        <ele>467.338135</ele>
        <time>2011-09-20T11:34:52Z</time>
      </trkpt>
      <trkpt lat="46.5998" lon="5.51272">
        <ele>468.780029</ele>
        <time>2011-09-20T11:35:03Z</time>
      </trkpt>
      <trkpt lat="46.60008" lon="5.51259">
        <ele>472.144653</ele>
        <time>2011-09-20T11:35:14Z</time>
      </trkpt>
      <trkpt lat="46.6001" lon="5.51257">
        <ele>472.144653</ele>
        <time>2011-09-20T11:35:15Z</time>
      </trkpt>
      <trkpt lat="46.60023" lon="5.51238">
        <ele>475.028687</ele>
        <time>2011-09-20T11:35:24Z</time>
      </trkpt>
      <trkpt lat="46.60028" lon="5.51233">
        <ele>475.989868</ele>
        <time>2011-09-20T11:35:27Z</time>
      </trkpt>
      <trkpt lat="46.60033" lon="5.51226">
        <ele>477.431885</ele>
        <time>2011-09-20T11:35:31Z</time>
      </trkpt>
      <trkpt lat="46.60041" lon="5.5121">
        <ele>479.835083</ele>
        <time>2011-09-20T11:35:38Z</time>
      </trkpt>
      <trkpt lat="46.60063" lon="5.512">
        <ele>483.199829</ele>
        <time>2011-09-20T11:35:49Z</time>
      </trkpt>
      <trkpt lat="46.60082" lon="5.5119">
        <ele>485.122437</ele>
        <time>2011-09-20T11:36:05Z</time>
      </trkpt>
      <trkpt lat="46.60086" lon="5.5119">
        <ele>485.122437</ele>
        <time>2011-09-20T11:36:22Z</time>
      </trkpt>
      <trkpt lat="46.60088" lon="5.5119">
        <ele>485.122437</ele>
        <time>2011-09-20T11:36:44Z</time>
      </trkpt>
      <trkpt lat="46.60087" lon="5.51189">
        <ele>484.641846</ele>
        <time>2011-09-20T11:37:04Z</time>
      </trkpt>
      <trkpt lat="46.60088" lon="5.51183">
        <ele>486.564453</ele>
        <time>2011-09-20T11:37:17Z</time>
      </trkpt>
      <trkpt lat="46.60095" lon="5.51177">
        <ele>488.967773</ele>
        <time>2011-09-20T11:37:32Z</time>
      </trkpt>
      <trkpt lat="46.60109" lon="5.51169">
        <ele>492.332397</ele>
        <time>2011-09-20T11:37:52Z</time>
      </trkpt>
      <trkpt lat="46.60111" lon="5.51168">
        <ele>492.332397</ele>
        <time>2011-09-20T11:37:54Z</time>
      </trkpt>
      <trkpt lat="46.60121" lon="5.51153">
        <ele>495.696899</ele>
        <time>2011-09-20T11:38:13Z</time>
      </trkpt>
      <trkpt lat="46.60126" lon="5.51139">
        <ele>499.061523</ele>
        <time>2011-09-20T11:38:28Z</time>
      </trkpt>
      <trkpt lat="46.60127" lon="5.51122">
        <ele>501.945557</ele>
        <time>2011-09-20T11:38:45Z</time>
      </trkpt>
      <trkpt lat="46.60126" lon="5.51121">
        <ele>501.945557</ele>
        <time>2011-09-20T11:39:12Z</time>
      </trkpt>
      <trkpt lat="46.60115" lon="5.5112">
        <ele>502.906738</ele>
        <time>2011-09-20T11:39:23Z</time>
      </trkpt>
      <trkpt lat="46.60092" lon="5.5111">
        <ele>504.829468</ele>
        <time>2011-09-20T11:39:43Z</time>
      </trkpt>
      <trkpt lat="46.60071" lon="5.51105">
        <ele>507.713501</ele>
        <time>2011-09-20T11:40:00Z</time>
      </trkpt>
      <trkpt lat="46.60057" lon="5.51102">
        <ele>510.59729</ele>
        <time>2011-09-20T11:40:14Z</time>
      </trkpt>
      <trkpt lat="46.60042" lon="5.5111">
        <ele>513.000732</ele>
        <time>2011-09-20T11:40:36Z</time>
      </trkpt>
      <trkpt lat="46.60039" lon="5.51108">
        <ele>513.000732</ele>
        <time>2011-09-20T11:40:55Z</time>
      </trkpt>
      <trkpt lat="46.60042" lon="5.5111">
        <ele>513.000732</ele>
        <time>2011-09-20T11:41:17Z</time>
      </trkpt>
      <trkpt lat="46.60044" lon="5.51107">
        <ele>513.000732</ele>
        <time>2011-09-20T11:41:37Z</time>
      </trkpt>
      <trkpt lat="46.60047" lon="5.51104">
        <ele>513.000732</ele>
        <time>2011-09-20T11:41:45Z</time>
      </trkpt>
      <trkpt lat="46.6005" lon="5.51107">
        <ele>513.000732</ele>
        <time>2011-09-20T11:42:04Z</time>
      </trkpt>
      <trkpt lat="46.6005" lon="5.51107">
        <ele>512.52002</ele>
        <time>2011-09-20T11:42:19Z</time>
      </trkpt>
      <trkpt lat="46.60051" lon="5.51105">
        <ele>512.52002</ele>
        <time>2011-09-20T11:42:33Z</time>
      </trkpt>
      <trkpt lat="46.60053" lon="5.51103">
        <ele>512.52002</ele>
        <time>2011-09-20T11:42:54Z</time>
      </trkpt>
      <trkpt lat="46.60052" lon="5.51105">
        <ele>512.52002</ele>
        <time>2011-09-20T11:43:02Z</time>
      </trkpt>
      <trkpt lat="46.6005" lon="5.51104">
        <ele>512.52002</ele>
        <time>2011-09-20T11:43:18Z</time>
      </trkpt>
      <trkpt lat="46.60046" lon="5.51105">
        <ele>512.52002</ele>
        <time>2011-09-20T11:43:35Z</time>
      </trkpt>
      <trkpt lat="46.60053" lon="5.51098">
        <ele>510.116699</ele>
        <time>2011-09-20T11:43:52Z</time>
      </trkpt>
      <trkpt lat="46.60057" lon="5.51097">
        <ele>509.155396</ele>
        <time>2011-09-20T11:43:59Z</time>
      </trkpt>
      <trkpt lat="46.60072" lon="5.51097">
        <ele>505.790894</ele>
        <time>2011-09-20T11:44:15Z</time>
      </trkpt>
      <trkpt lat="46.60097" lon="5.51107">
        <ele>503.387451</ele>
        <time>2011-09-20T11:44:36Z</time>
      </trkpt>
      <trkpt lat="46.60123" lon="5.51116">
        <ele>501.464844</ele>
        <time>2011-09-20T11:44:56Z</time>
      </trkpt>
      <trkpt lat="46.60127" lon="5.51132">
        <ele>499.061523</ele>
        <time>2011-09-20T11:45:12Z</time>
      </trkpt>
      <trkpt lat="46.60126" lon="5.51143">
        <ele>497.619629</ele>
        <time>2011-09-20T11:45:21Z</time>
      </trkpt>
      <trkpt lat="46.60123" lon="5.51162">
        <ele>494.255005</ele>
        <time>2011-09-20T11:45:37Z</time>
      </trkpt>
      <trkpt lat="46.6012" lon="5.51169">
        <ele>493.293579</ele>
        <time>2011-09-20T11:45:46Z</time>
      </trkpt>
      <trkpt lat="46.60117" lon="5.51172">
        <ele>491.851685</ele>
        <time>2011-09-20T11:45:51Z</time>
      </trkpt>
      <trkpt lat="46.60104" lon="5.51182">
        <ele>488.967773</ele>
        <time>2011-09-20T11:46:10Z</time>
      </trkpt>
      <trkpt lat="46.60098" lon="5.51186">
        <ele>487.045044</ele>
        <time>2011-09-20T11:46:23Z</time>
      </trkpt>
      <trkpt lat="46.60092" lon="5.5119">
        <ele>485.122437</ele>
        <time>2011-09-20T11:46:38Z</time>
      </trkpt>
      <trkpt lat="46.60088" lon="5.51194">
        <ele>484.161133</ele>
        <time>2011-09-20T11:46:53Z</time>
      </trkpt>
      <trkpt lat="46.60089" lon="5.51194">
        <ele>484.161133</ele>
        <time>2011-09-20T11:47:28Z</time>
      </trkpt>
      <trkpt lat="46.6009" lon="5.51193">
        <ele>484.161133</ele>
        <time>2011-09-20T11:48:14Z</time>
      </trkpt>
      <trkpt lat="46.6009" lon="5.51193">
        <ele>484.161133</ele>
        <time>2011-09-20T11:48:22Z</time>
      </trkpt>
      <trkpt lat="46.6009" lon="5.51195">
        <ele>484.641846</ele>
        <time>2011-09-20T11:48:39Z</time>
      </trkpt>
      <trkpt lat="46.60089" lon="5.51196">
        <ele>484.641846</ele>
        <time>2011-09-20T11:49:07Z</time>
      </trkpt>
      <trkpt lat="46.6009" lon="5.51195">
        <ele>484.641846</ele>
        <time>2011-09-20T11:49:09Z</time>
      </trkpt>
      <trkpt lat="46.60122" lon="5.51191">
        <ele>482.719238</ele>
        <time>2011-09-20T11:49:21Z</time>
      </trkpt>
      <trkpt lat="46.60142" lon="5.51189">
        <ele>481.277222</ele>
        <time>2011-09-20T11:49:25Z</time>
      </trkpt>
      <trkpt lat="46.60164" lon="5.51189">
        <ele>479.354492</ele>
        <time>2011-09-20T11:49:29Z</time>
      </trkpt>
      <trkpt lat="46.60192" lon="5.512">
        <ele>476.470581</ele>
        <time>2011-09-20T11:49:35Z</time>
      </trkpt>
      <trkpt lat="46.60214" lon="5.51215">
        <ele>473.106079</ele>
        <time>2011-09-20T11:49:39Z</time>
      </trkpt>
      <trkpt lat="46.6023" lon="5.51228">
        <ele>471.66394</ele>
        <time>2011-09-20T11:49:42Z</time>
      </trkpt>
      <trkpt lat="46.60264" lon="5.51258">
        <ele>470.221924</ele>
        <time>2011-09-20T11:49:48Z</time>
      </trkpt>
      <trkpt lat="46.60296" lon="5.51271">
        <ele>469.741333</ele>
        <time>2011-09-20T11:49:53Z</time>
      </trkpt>
      <trkpt lat="46.60309" lon="5.51271">
        <ele>469.741333</ele>
        <time>2011-09-20T11:49:55Z</time>
      </trkpt>
      <trkpt lat="46.60334" lon="5.51282">
        <ele>468.780029</ele>
        <time>2011-09-20T11:49:59Z</time>
      </trkpt>
      <trkpt lat="46.60355" lon="5.51324">
        <ele>466.376709</ele>
        <time>2011-09-20T11:50:05Z</time>
      </trkpt>
      <trkpt lat="46.60358" lon="5.51363">
        <ele>465.415527</ele>
        <time>2011-09-20T11:50:09Z</time>
      </trkpt>
      <trkpt lat="46.60358" lon="5.51396">
        <ele>465.415527</ele>
        <time>2011-09-20T11:50:14Z</time>
      </trkpt>
      <trkpt lat="46.60343" lon="5.51403">
        <ele>464.934814</ele>
        <time>2011-09-20T11:50:19Z</time>
      </trkpt>
      <trkpt lat="46.60296" lon="5.51387">
        <ele>462.050781</ele>
        <time>2011-09-20T11:50:27Z</time>
      </trkpt>
      <trkpt lat="46.60252" lon="5.51364">
        <ele>459.16687</ele>
        <time>2011-09-20T11:50:33Z</time>
      </trkpt>
      <trkpt lat="46.60213" lon="5.51338">
        <ele>456.282959</ele>
        <time>2011-09-20T11:50:40Z</time>
      </trkpt>
      <trkpt lat="46.6019" lon="5.51342">
        <ele>456.282959</ele>
        <time>2011-09-20T11:50:46Z</time>
      </trkpt>
      <trkpt lat="46.60179" lon="5.51357">
        <ele>455.802246</ele>
        <time>2011-09-20T11:50:49Z</time>
      </trkpt>
      <trkpt lat="46.60165" lon="5.5141">
        <ele>453.398926</ele>
        <time>2011-09-20T11:50:55Z</time>
      </trkpt>
      <trkpt lat="46.60163" lon="5.51432">
        <ele>452.918213</ele>
        <time>2011-09-20T11:50:57Z</time>
      </trkpt>
      <trkpt lat="46.60134" lon="5.5149">
        <ele>454.84082</ele>
        <time>2011-09-20T11:51:06Z</time>
      </trkpt>
      <trkpt lat="46.60124" lon="5.51492">
        <ele>454.84082</ele>
        <time>2011-09-20T11:51:08Z</time>
      </trkpt>
      <trkpt lat="46.60105" lon="5.51494">
        <ele>455.321533</ele>
        <time>2011-09-20T11:51:12Z</time>
      </trkpt>
      <trkpt lat="46.60032" lon="5.51519">
        <ele>455.321533</ele>
        <time>2011-09-20T11:51:28Z</time>
      </trkpt>
      <trkpt lat="46.60027" lon="5.51522">
        <ele>455.321533</ele>
        <time>2011-09-20T11:51:29Z</time>
      </trkpt>
      <trkpt lat="46.60014" lon="5.51533">
        <ele>454.84082</ele>
        <time>2011-09-20T11:51:32Z</time>
      </trkpt>
      <trkpt lat="46.59985" lon="5.51558">
        <ele>454.360229</ele>
        <time>2011-09-20T11:51:41Z</time>
      </trkpt>
      <trkpt lat="46.59982" lon="5.5158">
        <ele>454.84082</ele>
        <time>2011-09-20T11:51:45Z</time>
      </trkpt>
      <trkpt lat="46.59959" lon="5.51645">
        <ele>458.205566</ele>
        <time>2011-09-20T11:51:58Z</time>
      </trkpt>
      <trkpt lat="46.59935" lon="5.51683">
        <ele>461.57019</ele>
        <time>2011-09-20T11:52:08Z</time>
      </trkpt>
      <trkpt lat="46.59912" lon="5.51768">
        <ele>464.934814</ele>
        <time>2011-09-20T11:52:24Z</time>
      </trkpt>
      <trkpt lat="46.59871" lon="5.51834">
        <ele>467.818726</ele>
        <time>2011-09-20T11:52:39Z</time>
      </trkpt>
      <trkpt lat="46.59806" lon="5.51885">
        <ele>470.702637</ele>
        <time>2011-09-20T11:52:56Z</time>
      </trkpt>
      <trkpt lat="46.59719" lon="5.51926">
        <ele>473.106079</ele>
        <time>2011-09-20T11:53:17Z</time>
      </trkpt>
      <trkpt lat="46.59697" lon="5.51922">
        <ele>474.067261</ele>
        <time>2011-09-20T11:53:22Z</time>
      </trkpt>
      <trkpt lat="46.59666" lon="5.51944">
        <ele>475.028687</ele>
        <time>2011-09-20T11:53:31Z</time>
      </trkpt>
      <trkpt lat="46.59639" lon="5.5197">
        <ele>474.547974</ele>
        <time>2011-09-20T11:53:38Z</time>
      </trkpt>
      <trkpt lat="46.59633" lon="5.5197">
        <ele>474.547974</ele>
        <time>2011-09-20T11:53:39Z</time>
      </trkpt>
      <trkpt lat="46.59516" lon="5.5198">
        <ele>471.18335</ele>
        <time>2011-09-20T11:53:56Z</time>
      </trkpt>
      <trkpt lat="46.59366" lon="5.51991">
        <ele>468.299316</ele>
        <time>2011-09-20T11:54:13Z</time>
      </trkpt>
      <trkpt lat="46.59243" lon="5.51982">
        <ele>468.299316</ele>
        <time>2011-09-20T11:54:29Z</time>
      </trkpt>
      <trkpt lat="46.59122" lon="5.51959">
        <ele>470.221924</ele>
        <time>2011-09-20T11:54:47Z</time>
      </trkpt>
      <trkpt lat="46.59042" lon="5.51947">
        <ele>470.702637</ele>
        <time>2011-09-20T11:54:59Z</time>
      </trkpt>
      <trkpt lat="46.58943" lon="5.51942">
        <ele>470.702637</ele>
        <time>2011-09-20T11:55:13Z</time>
      </trkpt>
      <trkpt lat="46.5884" lon="5.51923">
        <ele>471.18335</ele>
        <time>2011-09-20T11:55:27Z</time>
      </trkpt>
      <trkpt lat="46.58755" lon="5.51919">
        <ele>471.18335</ele>
        <time>2011-09-20T11:55:39Z</time>
      </trkpt>
      <trkpt lat="46.58676" lon="5.51881">
        <ele>470.221924</ele>
        <time>2011-09-20T11:55:50Z</time>
      </trkpt>
      <trkpt lat="46.58561" lon="5.51824">
        <ele>467.818726</ele>
        <time>2011-09-20T11:56:05Z</time>
      </trkpt>
      <trkpt lat="46.5846" lon="5.51788">
        <ele>464.934814</ele>
        <time>2011-09-20T11:56:17Z</time>
      </trkpt>
      <trkpt lat="46.58377" lon="5.51764">
        <ele>461.57019</ele>
        <time>2011-09-20T11:56:26Z</time>
      </trkpt>
      <trkpt lat="46.58349" lon="5.51751">
        <ele>460.128174</ele>
        <time>2011-09-20T11:56:29Z</time>
      </trkpt>
      <trkpt lat="46.58229" lon="5.51663">
        <ele>459.16687</ele>
        <time>2011-09-20T11:56:44Z</time>
      </trkpt>
      <trkpt lat="46.58108" lon="5.51626">
        <ele>456.282959</ele>
        <time>2011-09-20T11:56:58Z</time>
      </trkpt>
      <trkpt lat="46.58014" lon="5.51604">
        <ele>453.398926</ele>
        <time>2011-09-20T11:57:08Z</time>
      </trkpt>
      <trkpt lat="46.57939" lon="5.51579">
        <ele>450.515015</ele>
        <time>2011-09-20T11:57:16Z</time>
      </trkpt>
      <trkpt lat="46.57858" lon="5.51548">
        <ele>447.150269</ele>
        <time>2011-09-20T11:57:24Z</time>
      </trkpt>
      <trkpt lat="46.57818" lon="5.51533">
        <ele>444.74707</ele>
        <time>2011-09-20T11:57:28Z</time>
      </trkpt>
      <trkpt lat="46.57767" lon="5.51513">
        <ele>441.863159</ele>
        <time>2011-09-20T11:57:33Z</time>
      </trkpt>
      <trkpt lat="46.57705" lon="5.51489">
        <ele>439.94043</ele>
        <time>2011-09-20T11:57:39Z</time>
      </trkpt>
      <trkpt lat="46.5763" lon="5.51421">
        <ele>438.498535</ele>
        <time>2011-09-20T11:57:48Z</time>
      </trkpt>
      <trkpt lat="46.57574" lon="5.51334">
        <ele>441.863159</ele>
        <time>2011-09-20T11:57:59Z</time>
      </trkpt>
      <trkpt lat="46.57515" lon="5.51261">
        <ele>444.74707</ele>
        <time>2011-09-20T11:58:12Z</time>
      </trkpt>
      <trkpt lat="46.57462" lon="5.51224">
        <ele>447.150269</ele>
        <time>2011-09-20T11:58:23Z</time>
      </trkpt>
      <trkpt lat="46.57397" lon="5.51185">
        <ele>450.515015</ele>
        <time>2011-09-20T11:58:37Z</time>
      </trkpt>
      <trkpt lat="46.57343" lon="5.51153">
        <ele>453.879639</ele>
        <time>2011-09-20T11:58:50Z</time>
      </trkpt>
      <trkpt lat="46.57289" lon="5.51134">
        <ele>456.282959</ele>
        <time>2011-09-20T11:59:04Z</time>
      </trkpt>
      <trkpt lat="46.57251" lon="5.51116">
        <ele>458.686157</ele>
        <time>2011-09-20T11:59:15Z</time>
      </trkpt>
      <trkpt lat="46.57239" lon="5.51108">
        <ele>459.16687</ele>
        <time>2011-09-20T11:59:18Z</time>
      </trkpt>
      <trkpt lat="46.57194" lon="5.51051">
        <ele>462.531372</ele>
        <time>2011-09-20T11:59:32Z</time>
      </trkpt>
      <trkpt lat="46.57135" lon="5.51006">
        <ele>465.415527</ele>
        <time>2011-09-20T11:59:49Z</time>
      </trkpt>
      <trkpt lat="46.57062" lon="5.50972">
        <ele>468.299316</ele>
        <time>2011-09-20T12:00:08Z</time>
      </trkpt>
      <trkpt lat="46.57008" lon="5.50913">
        <ele>471.18335</ele>
        <time>2011-09-20T12:00:24Z</time>
      </trkpt>
      <trkpt lat="46.56981" lon="5.50845">
        <ele>474.547974</ele>
        <time>2011-09-20T12:00:39Z</time>
      </trkpt>
      <trkpt lat="46.56958" lon="5.5076">
        <ele>477.912476</ele>
        <time>2011-09-20T12:00:55Z</time>
      </trkpt>
      <trkpt lat="46.56937" lon="5.50691">
        <ele>480.796631</ele>
        <time>2011-09-20T12:01:08Z</time>
      </trkpt>
      <trkpt lat="46.56884" lon="5.50613">
        <ele>483.199829</ele>
        <time>2011-09-20T12:01:26Z</time>
      </trkpt>
      <trkpt lat="46.56783" lon="5.50562">
        <ele>484.641846</ele>
        <time>2011-09-20T12:01:46Z</time>
      </trkpt>
      <trkpt lat="46.56656" lon="5.50507">
        <ele>485.603027</ele>
        <time>2011-09-20T12:02:06Z</time>
      </trkpt>
      <trkpt lat="46.56518" lon="5.50449">
        <ele>486.08374</ele>
        <time>2011-09-20T12:02:27Z</time>
      </trkpt>
      <trkpt lat="46.56408" lon="5.50376">
        <ele>483.68042</ele>
        <time>2011-09-20T12:02:43Z</time>
      </trkpt>
      <trkpt lat="46.5635" lon="5.50326">
        <ele>480.315918</ele>
        <time>2011-09-20T12:02:50Z</time>
      </trkpt>
      <trkpt lat="46.56341" lon="5.50318">
        <ele>480.315918</ele>
        <time>2011-09-20T12:02:51Z</time>
      </trkpt>
      <trkpt lat="46.56267" lon="5.50252">
        <ele>477.431885</ele>
        <time>2011-09-20T12:02:59Z</time>
      </trkpt>
      <trkpt lat="46.5614" lon="5.50152">
        <ele>474.067261</ele>
        <time>2011-09-20T12:03:12Z</time>
      </trkpt>
      <trkpt lat="46.55993" lon="5.50077">
        <ele>474.067261</ele>
        <time>2011-09-20T12:03:28Z</time>
      </trkpt>
      <trkpt lat="46.55878" lon="5.50011">
        <ele>473.58667</ele>
        <time>2011-09-20T12:03:43Z</time>
      </trkpt>
      <trkpt lat="46.55734" lon="5.49832">
        <ele>475.028687</ele>
        <time>2011-09-20T12:04:07Z</time>
      </trkpt>
      <trkpt lat="46.55628" lon="5.49663">
        <ele>475.989868</ele>
        <time>2011-09-20T12:04:29Z</time>
      </trkpt>
      <trkpt lat="46.55503" lon="5.49496">
        <ele>476.951294</ele>
        <time>2011-09-20T12:04:53Z</time>
      </trkpt>
      <trkpt lat="46.55443" lon="5.49424">
        <ele>480.315918</ele>
        <time>2011-09-20T12:05:05Z</time>
      </trkpt>
      <trkpt lat="46.55409" lon="5.49386">
        <ele>481.757813</ele>
        <time>2011-09-20T12:05:13Z</time>
      </trkpt>
      <trkpt lat="46.55324" lon="5.49345">
        <ele>483.199829</ele>
        <time>2011-09-20T12:05:28Z</time>
      </trkpt>
      <trkpt lat="46.55296" lon="5.49337">
        <ele>483.199829</ele>
        <time>2011-09-20T12:05:33Z</time>
      </trkpt>
      <trkpt lat="46.55275" lon="5.49325">
        <ele>483.68042</ele>
        <time>2011-09-20T12:05:37Z</time>
      </trkpt>
      <trkpt lat="46.55254" lon="5.493">
        <ele>483.68042</ele>
        <time>2011-09-20T12:05:49Z</time>
      </trkpt>
      <trkpt lat="46.55253" lon="5.49299">
        <ele>483.68042</ele>
        <time>2011-09-20T12:05:52Z</time>
      </trkpt>
      <trkpt lat="46.55258" lon="5.49289">
        <ele>483.199829</ele>
        <time>2011-09-20T12:06:05Z</time>
      </trkpt>
      <trkpt lat="46.55259" lon="5.49286">
        <ele>483.199829</ele>
        <time>2011-09-20T12:07:15Z</time>
      </trkpt>
      <trkpt lat="46.55265" lon="5.49265">
        <ele>483.68042</ele>
        <time>2011-09-20T12:08:09Z</time>
      </trkpt>
      <trkpt lat="46.55304" lon="5.49201">
        <ele>482.238525</ele>
        <time>2011-09-20T12:08:21Z</time>
      </trkpt>
      <trkpt lat="46.55338" lon="5.49124">
        <ele>482.238525</ele>
        <time>2011-09-20T12:08:32Z</time>
      </trkpt>
      <trkpt lat="46.55354" lon="5.49109">
        <ele>484.161133</ele>
        <time>2011-09-20T12:08:36Z</time>
      </trkpt>
      <trkpt lat="46.55368" lon="5.49104">
        <ele>485.603027</ele>
        <time>2011-09-20T12:08:39Z</time>
      </trkpt>
      <trkpt lat="46.55397" lon="5.49095">
        <ele>486.564453</ele>
        <time>2011-09-20T12:08:46Z</time>
      </trkpt>
      <trkpt lat="46.55413" lon="5.49095">
        <ele>487.045044</ele>
        <time>2011-09-20T12:08:50Z</time>
      </trkpt>
      <trkpt lat="46.5543" lon="5.49101">
        <ele>487.525635</ele>
        <time>2011-09-20T12:08:54Z</time>
      </trkpt>
      <trkpt lat="46.55495" lon="5.49171">
        <ele>487.525635</ele>
        <time>2011-09-20T12:09:11Z</time>
      </trkpt>
      <trkpt lat="46.55577" lon="5.49223">
        <ele>485.603027</ele>
        <time>2011-09-20T12:09:26Z</time>
      </trkpt>
      <trkpt lat="46.55651" lon="5.49263">
        <ele>482.238525</ele>
        <time>2011-09-20T12:09:37Z</time>
      </trkpt>
      <trkpt lat="46.55662" lon="5.4927">
        <ele>481.277222</ele>
        <time>2011-09-20T12:09:39Z</time>
      </trkpt>
      <trkpt lat="46.55678" lon="5.49282">
        <ele>480.315918</ele>
        <time>2011-09-20T12:09:42Z</time>
      </trkpt>
      <trkpt lat="46.55698" lon="5.49263">
        <ele>479.354492</ele>
        <time>2011-09-20T12:09:48Z</time>
      </trkpt>
      <trkpt lat="46.55689" lon="5.49248">
        <ele>477.912476</ele>
        <time>2011-09-20T12:09:50Z</time>
      </trkpt>
      <trkpt lat="46.55678" lon="5.49233">
        <ele>477.431885</ele>
        <time>2011-09-20T12:09:52Z</time>
      </trkpt>
      <trkpt lat="46.5566" lon="5.49157">
        <ele>473.58667</ele>
        <time>2011-09-20T12:09:59Z</time>
      </trkpt>
      <trkpt lat="46.55661" lon="5.49146">
        <ele>472.625366</ele>
        <time>2011-09-20T12:10:00Z</time>
      </trkpt>
      <trkpt lat="46.5567" lon="5.49112">
        <ele>471.18335</ele>
        <time>2011-09-20T12:10:03Z</time>
      </trkpt>
      <trkpt lat="46.55696" lon="5.49068">
        <ele>468.780029</ele>
        <time>2011-09-20T12:10:08Z</time>
      </trkpt>
      <trkpt lat="46.55721" lon="5.49045">
        <ele>466.376709</ele>
        <time>2011-09-20T12:10:13Z</time>
      </trkpt>
      <trkpt lat="46.55731" lon="5.49031">
        <ele>465.415527</ele>
        <time>2011-09-20T12:10:21Z</time>
      </trkpt>
      <trkpt lat="46.55737" lon="5.49025">
        <ele>464.934814</ele>
        <time>2011-09-20T12:10:23Z</time>
      </trkpt>
      <trkpt lat="46.55754" lon="5.49004">
        <ele>464.454102</ele>
        <time>2011-09-20T12:10:27Z</time>
      </trkpt>
      <trkpt lat="46.5578" lon="5.48923">
        <ele>462.050781</ele>
        <time>2011-09-20T12:10:35Z</time>
      </trkpt>
      <trkpt lat="46.55781" lon="5.48857">
        <ele>460.128174</ele>
        <time>2011-09-20T12:10:40Z</time>
      </trkpt>
      <trkpt lat="46.55778" lon="5.48801">
        <ele>457.244263</ele>
        <time>2011-09-20T12:10:44Z</time>
      </trkpt>
      <trkpt lat="46.55771" lon="5.48697">
        <ele>458.686157</ele>
        <time>2011-09-20T12:10:52Z</time>
      </trkpt>
      <trkpt lat="46.55775" lon="5.48667">
        <ele>457.724976</ele>
        <time>2011-09-20T12:10:55Z</time>
      </trkpt>
      <trkpt lat="46.5578" lon="5.48659">
        <ele>457.724976</ele>
        <time>2011-09-20T12:10:56Z</time>
      </trkpt>
      <trkpt lat="46.55862" lon="5.48532">
        <ele>457.724976</ele>
        <time>2011-09-20T12:11:13Z</time>
      </trkpt>
      <trkpt lat="46.55916" lon="5.48506">
        <ele>461.089478</ele>
        <time>2011-09-20T12:11:24Z</time>
      </trkpt>
      <trkpt lat="46.55987" lon="5.48506">
        <ele>463.012085</ele>
        <time>2011-09-20T12:11:38Z</time>
      </trkpt>
      <trkpt lat="46.56061" lon="5.48548">
        <ele>463.012085</ele>
        <time>2011-09-20T12:11:51Z</time>
      </trkpt>
      <trkpt lat="46.56139" lon="5.48563">
        <ele>463.012085</ele>
        <time>2011-09-20T12:12:03Z</time>
      </trkpt>
      <trkpt lat="46.56166" lon="5.48587">
        <ele>463.012085</ele>
        <time>2011-09-20T12:12:08Z</time>
      </trkpt>
      <trkpt lat="46.56174" lon="5.48601">
        <ele>463.012085</ele>
        <time>2011-09-20T12:12:10Z</time>
      </trkpt>
      <trkpt lat="46.56194" lon="5.48626">
        <ele>463.012085</ele>
        <time>2011-09-20T12:12:14Z</time>
      </trkpt>
      <trkpt lat="46.56271" lon="5.4866">
        <ele>463.012085</ele>
        <time>2011-09-20T12:12:26Z</time>
      </trkpt>
      <trkpt lat="46.56318" lon="5.48719">
        <ele>462.531372</ele>
        <time>2011-09-20T12:12:35Z</time>
      </trkpt>
      <trkpt lat="46.56366" lon="5.48741">
        <ele>463.012085</ele>
        <time>2011-09-20T12:12:43Z</time>
      </trkpt>
      <trkpt lat="46.56378" lon="5.48733">
        <ele>463.492798</ele>
        <time>2011-09-20T12:12:45Z</time>
      </trkpt>
      <trkpt lat="46.5639" lon="5.48723">
        <ele>463.492798</ele>
        <time>2011-09-20T12:12:47Z</time>
      </trkpt>
      <trkpt lat="46.56457" lon="5.48719">
        <ele>462.531372</ele>
        <time>2011-09-20T12:12:57Z</time>
      </trkpt>
      <trkpt lat="46.56517" lon="5.48747">
        <ele>463.492798</ele>
        <time>2011-09-20T12:13:06Z</time>
      </trkpt>
      <trkpt lat="46.56548" lon="5.48797">
        <ele>463.012085</ele>
        <time>2011-09-20T12:13:13Z</time>
      </trkpt>
      <trkpt lat="46.56556" lon="5.48827">
        <ele>463.012085</ele>
        <time>2011-09-20T12:13:16Z</time>
      </trkpt>
      <trkpt lat="46.56593" lon="5.48887">
        <ele>463.492798</ele>
        <time>2011-09-20T12:13:24Z</time>
      </trkpt>
      <trkpt lat="46.56706" lon="5.48941">
        <ele>464.934814</ele>
        <time>2011-09-20T12:13:42Z</time>
      </trkpt>
      <trkpt lat="46.56793" lon="5.48998">
        <ele>466.376709</ele>
        <time>2011-09-20T12:13:58Z</time>
      </trkpt>
      <trkpt lat="46.56799" lon="5.49002">
        <ele>466.857422</ele>
        <time>2011-09-20T12:13:59Z</time>
      </trkpt>
      <trkpt lat="46.56813" lon="5.49018">
        <ele>467.338135</ele>
        <time>2011-09-20T12:14:02Z</time>
      </trkpt>
      <trkpt lat="46.56847" lon="5.49095">
        <ele>468.780029</ele>
        <time>2011-09-20T12:14:13Z</time>
      </trkpt>
      <trkpt lat="46.5688" lon="5.49126">
        <ele>469.741333</ele>
        <time>2011-09-20T12:14:20Z</time>
      </trkpt>
      <trkpt lat="46.56974" lon="5.49156">
        <ele>471.66394</ele>
        <time>2011-09-20T12:14:38Z</time>
      </trkpt>
      <trkpt lat="46.57001" lon="5.49171">
        <ele>472.625366</ele>
        <time>2011-09-20T12:14:43Z</time>
      </trkpt>
      <trkpt lat="46.57018" lon="5.49192">
        <ele>473.58667</ele>
        <time>2011-09-20T12:14:47Z</time>
      </trkpt>
      <trkpt lat="46.57025" lon="5.49205">
        <ele>473.58667</ele>
        <time>2011-09-20T12:14:49Z</time>
      </trkpt>
      <trkpt lat="46.57043" lon="5.49227">
        <ele>474.067261</ele>
        <time>2011-09-20T12:14:53Z</time>
      </trkpt>
      <trkpt lat="46.57079" lon="5.49232">
        <ele>475.028687</ele>
        <time>2011-09-20T12:15:00Z</time>
      </trkpt>
      <trkpt lat="46.57109" lon="5.49237">
        <ele>475.989868</ele>
        <time>2011-09-20T12:15:06Z</time>
      </trkpt>
      <trkpt lat="46.57183" lon="5.49269">
        <ele>477.912476</ele>
        <time>2011-09-20T12:15:21Z</time>
      </trkpt>
      <trkpt lat="46.57269" lon="5.49276">
        <ele>479.354492</ele>
        <time>2011-09-20T12:15:37Z</time>
      </trkpt>
      <trkpt lat="46.57343" lon="5.49301">
        <ele>481.277222</ele>
        <time>2011-09-20T12:15:51Z</time>
      </trkpt>
      <trkpt lat="46.57444" lon="5.49325">
        <ele>483.199829</ele>
        <time>2011-09-20T12:16:11Z</time>
      </trkpt>
      <trkpt lat="46.57502" lon="5.49322">
        <ele>486.564453</ele>
        <time>2011-09-20T12:16:24Z</time>
      </trkpt>
      <trkpt lat="46.57577" lon="5.49348">
        <ele>488.487183</ele>
        <time>2011-09-20T12:16:43Z</time>
      </trkpt>
      <trkpt lat="46.57609" lon="5.49355">
        <ele>489.448364</ele>
        <time>2011-09-20T12:16:50Z</time>
      </trkpt>
      <trkpt lat="46.57645" lon="5.49319">
        <ele>491.851685</ele>
        <time>2011-09-20T12:17:01Z</time>
      </trkpt>
      <trkpt lat="46.57644" lon="5.4929">
        <ele>492.332397</ele>
        <time>2011-09-20T12:17:06Z</time>
      </trkpt>
      <trkpt lat="46.5762" lon="5.4922">
        <ele>495.696899</ele>
        <time>2011-09-20T12:17:20Z</time>
      </trkpt>
      <trkpt lat="46.57585" lon="5.49137">
        <ele>499.061523</ele>
        <time>2011-09-20T12:17:37Z</time>
      </trkpt>
      <trkpt lat="46.57568" lon="5.49073">
        <ele>501.945557</ele>
        <time>2011-09-20T12:17:51Z</time>
      </trkpt>
      <trkpt lat="46.57546" lon="5.48986">
        <ele>505.790894</ele>
        <time>2011-09-20T12:18:10Z</time>
      </trkpt>
      <trkpt lat="46.57507" lon="5.48911">
        <ele>508.674683</ele>
        <time>2011-09-20T12:18:28Z</time>
      </trkpt>
      <trkpt lat="46.57526" lon="5.48899">
        <ele>510.59729</ele>
        <time>2011-09-20T12:18:36Z</time>
      </trkpt>
      <trkpt lat="46.57528" lon="5.48902">
        <ele>510.59729</ele>
        <time>2011-09-20T12:18:37Z</time>
      </trkpt>
      <trkpt lat="46.57582" lon="5.4894">
        <ele>514.442627</ele>
        <time>2011-09-20T12:18:56Z</time>
      </trkpt>
      <trkpt lat="46.57632" lon="5.48937">
        <ele>517.32666</ele>
        <time>2011-09-20T12:19:11Z</time>
      </trkpt>
      <trkpt lat="46.57693" lon="5.48926">
        <ele>520.691284</ele>
        <time>2011-09-20T12:19:28Z</time>
      </trkpt>
      <trkpt lat="46.57744" lon="5.48922">
        <ele>523.094604</ele>
        <time>2011-09-20T12:19:42Z</time>
      </trkpt>
      <trkpt lat="46.57778" lon="5.48916">
        <ele>524.055786</ele>
        <time>2011-09-20T12:19:51Z</time>
      </trkpt>
      <trkpt lat="46.57804" lon="5.48907">
        <ele>524.536499</ele>
        <time>2011-09-20T12:19:57Z</time>
      </trkpt>
      <trkpt lat="46.57834" lon="5.48907">
        <ele>523.094604</ele>
        <time>2011-09-20T12:20:03Z</time>
      </trkpt>
      <trkpt lat="46.57858" lon="5.48902">
        <ele>521.652588</ele>
        <time>2011-09-20T12:20:07Z</time>
      </trkpt>
      <trkpt lat="46.57891" lon="5.48888">
        <ele>520.691284</ele>
        <time>2011-09-20T12:20:11Z</time>
      </trkpt>
      <trkpt lat="46.57917" lon="5.48887">
        <ele>518.768555</ele>
        <time>2011-09-20T12:20:14Z</time>
      </trkpt>
      <trkpt lat="46.57943" lon="5.48894">
        <ele>517.807251</ele>
        <time>2011-09-20T12:20:17Z</time>
      </trkpt>
      <trkpt lat="46.57976" lon="5.48908">
        <ele>515.404053</ele>
        <time>2011-09-20T12:20:21Z</time>
      </trkpt>
      <trkpt lat="46.58014" lon="5.48895">
        <ele>513.481445</ele>
        <time>2011-09-20T12:20:25Z</time>
      </trkpt>
      <trkpt lat="46.58021" lon="5.48886">
        <ele>513.000732</ele>
        <time>2011-09-20T12:20:26Z</time>
      </trkpt>
      <trkpt lat="46.58055" lon="5.48828">
        <ele>511.078003</ele>
        <time>2011-09-20T12:20:31Z</time>
      </trkpt>
      <trkpt lat="46.58085" lon="5.48805">
        <ele>509.155396</ele>
        <time>2011-09-20T12:20:34Z</time>
      </trkpt>
      <trkpt lat="46.58122" lon="5.48797">
        <ele>506.271484</ele>
        <time>2011-09-20T12:20:38Z</time>
      </trkpt>
      <trkpt lat="46.58161" lon="5.48812">
        <ele>504.829468</ele>
        <time>2011-09-20T12:20:42Z</time>
      </trkpt>
      <trkpt lat="46.58188" lon="5.48829">
        <ele>504.348877</ele>
        <time>2011-09-20T12:20:45Z</time>
      </trkpt>
      <trkpt lat="46.58213" lon="5.48855">
        <ele>502.426147</ele>
        <time>2011-09-20T12:20:49Z</time>
      </trkpt>
      <trkpt lat="46.58241" lon="5.48864">
        <ele>500.984131</ele>
        <time>2011-09-20T12:20:55Z</time>
      </trkpt>
      <trkpt lat="46.58224" lon="5.4884">
        <ele>500.50354</ele>
        <time>2011-09-20T12:20:59Z</time>
      </trkpt>
      <trkpt lat="46.58191" lon="5.48812">
        <ele>499.061523</ele>
        <time>2011-09-20T12:21:04Z</time>
      </trkpt>
      <trkpt lat="46.58156" lon="5.4878">
        <ele>497.619629</ele>
        <time>2011-09-20T12:21:09Z</time>
      </trkpt>
      <trkpt lat="46.58111" lon="5.48752">
        <ele>494.735596</ele>
        <time>2011-09-20T12:21:14Z</time>
      </trkpt>
      <trkpt lat="46.58046" lon="5.48698">
        <ele>491.370972</ele>
        <time>2011-09-20T12:21:21Z</time>
      </trkpt>
      <trkpt lat="46.57989" lon="5.48651">
        <ele>487.525635</ele>
        <time>2011-09-20T12:21:27Z</time>
      </trkpt>
      <trkpt lat="46.57948" lon="5.48616">
        <ele>485.122437</ele>
        <time>2011-09-20T12:21:31Z</time>
      </trkpt>
      <trkpt lat="46.57924" lon="5.48583">
        <ele>482.719238</ele>
        <time>2011-09-20T12:21:34Z</time>
      </trkpt>
      <trkpt lat="46.57904" lon="5.48547">
        <ele>480.796631</ele>
        <time>2011-09-20T12:21:37Z</time>
      </trkpt>
      <trkpt lat="46.57891" lon="5.48523">
        <ele>480.315918</ele>
        <time>2011-09-20T12:21:39Z</time>
      </trkpt>
      <trkpt lat="46.57856" lon="5.48491">
        <ele>477.431885</ele>
        <time>2011-09-20T12:21:43Z</time>
      </trkpt>
      <trkpt lat="46.5783" lon="5.48473">
        <ele>476.470581</ele>
        <time>2011-09-20T12:21:46Z</time>
      </trkpt>
      <trkpt lat="46.57782" lon="5.48419">
        <ele>471.66394</ele>
        <time>2011-09-20T12:21:52Z</time>
      </trkpt>
      <trkpt lat="46.57765" lon="5.484">
        <ele>470.702637</ele>
        <time>2011-09-20T12:21:54Z</time>
      </trkpt>
      <trkpt lat="46.57724" lon="5.48346">
        <ele>468.299316</ele>
        <time>2011-09-20T12:21:59Z</time>
      </trkpt>
      <trkpt lat="46.57647" lon="5.48211">
        <ele>466.376709</ele>
        <time>2011-09-20T12:22:11Z</time>
      </trkpt>
      <trkpt lat="46.57553" lon="5.48091">
        <ele>463.492798</ele>
        <time>2011-09-20T12:22:26Z</time>
      </trkpt>
      <trkpt lat="46.57532" lon="5.48053">
        <ele>463.012085</ele>
        <time>2011-09-20T12:22:30Z</time>
      </trkpt>
      <trkpt lat="46.575" lon="5.47998">
        <ele>462.050781</ele>
        <time>2011-09-20T12:22:36Z</time>
      </trkpt>
      <trkpt lat="46.57485" lon="5.47984">
        <ele>461.57019</ele>
        <time>2011-09-20T12:22:38Z</time>
      </trkpt>
      <trkpt lat="46.57452" lon="5.4796">
        <ele>461.089478</ele>
        <time>2011-09-20T12:22:43Z</time>
      </trkpt>
      <trkpt lat="46.57434" lon="5.47948">
        <ele>460.608765</ele>
        <time>2011-09-20T12:22:46Z</time>
      </trkpt>
      <trkpt lat="46.57375" lon="5.47906">
        <ele>459.647583</ele>
        <time>2011-09-20T12:22:56Z</time>
      </trkpt>
      <trkpt lat="46.57331" lon="5.47887">
        <ele>459.16687</ele>
        <time>2011-09-20T12:23:01Z</time>
      </trkpt>
      <trkpt lat="46.57307" lon="5.47835">
        <ele>460.608765</ele>
        <time>2011-09-20T12:23:08Z</time>
      </trkpt>
      <trkpt lat="46.57315" lon="5.47808">
        <ele>461.57019</ele>
        <time>2011-09-20T12:23:12Z</time>
      </trkpt>
      <trkpt lat="46.57323" lon="5.4777">
        <ele>463.973389</ele>
        <time>2011-09-20T12:23:20Z</time>
      </trkpt>
      <trkpt lat="46.57337" lon="5.4775">
        <ele>465.415527</ele>
        <time>2011-09-20T12:23:24Z</time>
      </trkpt>
      <trkpt lat="46.57364" lon="5.47691">
        <ele>468.299316</ele>
        <time>2011-09-20T12:23:36Z</time>
      </trkpt>
      <trkpt lat="46.57381" lon="5.47653">
        <ele>470.221924</ele>
        <time>2011-09-20T12:23:45Z</time>
      </trkpt>
      <trkpt lat="46.57406" lon="5.47598">
        <ele>472.625366</ele>
        <time>2011-09-20T12:23:56Z</time>
      </trkpt>
      <trkpt lat="46.57404" lon="5.47567">
        <ele>474.547974</ele>
        <time>2011-09-20T12:24:04Z</time>
      </trkpt>
      <trkpt lat="46.57419" lon="5.47521">
        <ele>476.951294</ele>
        <time>2011-09-20T12:24:12Z</time>
      </trkpt>
      <trkpt lat="46.57421" lon="5.47495">
        <ele>477.912476</ele>
        <time>2011-09-20T12:24:16Z</time>
      </trkpt>
      <trkpt lat="46.57424" lon="5.47436">
        <ele>479.835083</ele>
        <time>2011-09-20T12:24:26Z</time>
      </trkpt>
      <trkpt lat="46.57418" lon="5.47391">
        <ele>479.835083</ele>
        <time>2011-09-20T12:24:32Z</time>
      </trkpt>
      <trkpt lat="46.57412" lon="5.47356">
        <ele>480.796631</ele>
        <time>2011-09-20T12:24:37Z</time>
      </trkpt>
      <trkpt lat="46.57408" lon="5.47343">
        <ele>480.796631</ele>
        <time>2011-09-20T12:24:39Z</time>
      </trkpt>
      <trkpt lat="46.57383" lon="5.4726">
        <ele>480.315918</ele>
        <time>2011-09-20T12:24:49Z</time>
      </trkpt>
      <trkpt lat="46.57358" lon="5.47187">
        <ele>477.431885</ele>
        <time>2011-09-20T12:24:56Z</time>
      </trkpt>
      <trkpt lat="46.57322" lon="5.47118">
        <ele>474.067261</ele>
        <time>2011-09-20T12:25:02Z</time>
      </trkpt>
      <trkpt lat="46.57313" lon="5.47108">
        <ele>474.067261</ele>
        <time>2011-09-20T12:25:03Z</time>
      </trkpt>
      <trkpt lat="46.57277" lon="5.47075">
        <ele>470.702637</ele>
        <time>2011-09-20T12:25:07Z</time>
      </trkpt>
      <trkpt lat="46.5726" lon="5.47058">
        <ele>469.260742</ele>
        <time>2011-09-20T12:25:09Z</time>
      </trkpt>
      <trkpt lat="46.57239" lon="5.47031">
        <ele>466.857422</ele>
        <time>2011-09-20T12:25:12Z</time>
      </trkpt>
      <trkpt lat="46.57222" lon="5.47002">
        <ele>465.415527</ele>
        <time>2011-09-20T12:25:15Z</time>
      </trkpt>
      <trkpt lat="46.572" lon="5.46943">
        <ele>463.012085</ele>
        <time>2011-09-20T12:25:20Z</time>
      </trkpt>
      <trkpt lat="46.57163" lon="5.46851">
        <ele>459.16687</ele>
        <time>2011-09-20T12:25:27Z</time>
      </trkpt>
      <trkpt lat="46.57152" lon="5.46824">
        <ele>458.686157</ele>
        <time>2011-09-20T12:25:29Z</time>
      </trkpt>
      <trkpt lat="46.57149" lon="5.46808">
        <ele>458.205566</ele>
        <time>2011-09-20T12:25:30Z</time>
      </trkpt>
      <trkpt lat="46.57141" lon="5.46762">
        <ele>456.76355</ele>
        <time>2011-09-20T12:25:33Z</time>
      </trkpt>
      <trkpt lat="46.57138" lon="5.46699">
        <ele>455.802246</ele>
        <time>2011-09-20T12:25:37Z</time>
      </trkpt>
      <trkpt lat="46.57112" lon="5.46638">
        <ele>452.918213</ele>
        <time>2011-09-20T12:25:42Z</time>
      </trkpt>
      <trkpt lat="46.57087" lon="5.46612">
        <ele>450.995605</ele>
        <time>2011-09-20T12:25:45Z</time>
      </trkpt>
      <trkpt lat="46.57064" lon="5.46547">
        <ele>448.592407</ele>
        <time>2011-09-20T12:25:50Z</time>
      </trkpt>
      <trkpt lat="46.57063" lon="5.46502">
        <ele>446.669678</ele>
        <time>2011-09-20T12:25:53Z</time>
      </trkpt>
      <trkpt lat="46.57061" lon="5.46459">
        <ele>444.74707</ele>
        <time>2011-09-20T12:25:56Z</time>
      </trkpt>
      <trkpt lat="46.57055" lon="5.46432">
        <ele>444.266479</ele>
        <time>2011-09-20T12:25:58Z</time>
      </trkpt>
      <trkpt lat="46.57038" lon="5.46398">
        <ele>442.824463</ele>
        <time>2011-09-20T12:26:01Z</time>
      </trkpt>
      <trkpt lat="46.57009" lon="5.46357">
        <ele>439.94043</ele>
        <time>2011-09-20T12:26:05Z</time>
      </trkpt>
      <trkpt lat="46.56957" lon="5.46282">
        <ele>437.056519</ele>
        <time>2011-09-20T12:26:12Z</time>
      </trkpt>
      <trkpt lat="46.56939" lon="5.46246">
        <ele>435.133911</ele>
        <time>2011-09-20T12:26:15Z</time>
      </trkpt>
      <trkpt lat="46.56919" lon="5.4621">
        <ele>434.172607</ele>
        <time>2011-09-20T12:26:18Z</time>
      </trkpt>
      <trkpt lat="46.56886" lon="5.46167">
        <ele>431.769165</ele>
        <time>2011-09-20T12:26:22Z</time>
      </trkpt>
      <trkpt lat="46.56839" lon="5.46057">
        <ele>428.404663</ele>
        <time>2011-09-20T12:26:30Z</time>
      </trkpt>
      <trkpt lat="46.56771" lon="5.45959">
        <ele>423.598022</ele>
        <time>2011-09-20T12:26:38Z</time>
      </trkpt>
      <trkpt lat="46.56753" lon="5.45935">
        <ele>422.636719</ele>
        <time>2011-09-20T12:26:40Z</time>
      </trkpt>
      <trkpt lat="46.56701" lon="5.45882">
        <ele>419.752808</ele>
        <time>2011-09-20T12:26:45Z</time>
      </trkpt>
      <trkpt lat="46.56667" lon="5.45854">
        <ele>418.310791</ele>
        <time>2011-09-20T12:26:48Z</time>
      </trkpt>
      <trkpt lat="46.56595" lon="5.45816">
        <ele>413.984863</ele>
        <time>2011-09-20T12:26:54Z</time>
      </trkpt>
      <trkpt lat="46.56555" lon="5.45778">
        <ele>413.02356</ele>
        <time>2011-09-20T12:26:58Z</time>
      </trkpt>
      <trkpt lat="46.56519" lon="5.45715">
        <ele>409.659058</ele>
        <time>2011-09-20T12:27:03Z</time>
      </trkpt>
      <trkpt lat="46.56519" lon="5.45656">
        <ele>406.774902</ele>
        <time>2011-09-20T12:27:08Z</time>
      </trkpt>
      <trkpt lat="46.56541" lon="5.45649">
        <ele>405.813721</ele>
        <time>2011-09-20T12:27:11Z</time>
      </trkpt>
      <trkpt lat="46.5656" lon="5.45656">
        <ele>405.813721</ele>
        <time>2011-09-20T12:27:13Z</time>
      </trkpt>
      <trkpt lat="46.56611" lon="5.45637">
        <ele>402.929688</ele>
        <time>2011-09-20T12:27:18Z</time>
      </trkpt>
      <trkpt lat="46.56672" lon="5.45593">
        <ele>400.526489</ele>
        <time>2011-09-20T12:27:24Z</time>
      </trkpt>
      <trkpt lat="46.56703" lon="5.4559">
        <ele>398.123169</ele>
        <time>2011-09-20T12:27:27Z</time>
      </trkpt>
      <trkpt lat="46.56758" lon="5.45565">
        <ele>395.719849</ele>
        <time>2011-09-20T12:27:32Z</time>
      </trkpt>
      <trkpt lat="46.56815" lon="5.45577">
        <ele>392.355347</ele>
        <time>2011-09-20T12:27:37Z</time>
      </trkpt>
      <trkpt lat="46.56845" lon="5.45602">
        <ele>390.913208</ele>
        <time>2011-09-20T12:27:40Z</time>
      </trkpt>
      <trkpt lat="46.56875" lon="5.45651">
        <ele>388.029297</ele>
        <time>2011-09-20T12:27:44Z</time>
      </trkpt>
      <trkpt lat="46.56888" lon="5.45676">
        <ele>386.587402</ele>
        <time>2011-09-20T12:27:46Z</time>
      </trkpt>
      <trkpt lat="46.56914" lon="5.45699">
        <ele>384.664795</ele>
        <time>2011-09-20T12:27:49Z</time>
      </trkpt>
      <trkpt lat="46.56981" lon="5.45731">
        <ele>380.819458</ele>
        <time>2011-09-20T12:27:56Z</time>
      </trkpt>
      <trkpt lat="46.57028" lon="5.45756">
        <ele>378.416138</ele>
        <time>2011-09-20T12:28:01Z</time>
      </trkpt>
      <trkpt lat="46.57036" lon="5.45761">
        <ele>377.454834</ele>
        <time>2011-09-20T12:28:02Z</time>
      </trkpt>
      <trkpt lat="46.57089" lon="5.45745">
        <ele>375.051514</ele>
        <time>2011-09-20T12:28:08Z</time>
      </trkpt>
      <trkpt lat="46.57141" lon="5.4569">
        <ele>371.206299</ele>
        <time>2011-09-20T12:28:14Z</time>
      </trkpt>
      <trkpt lat="46.57159" lon="5.4567">
        <ele>369.764282</ele>
        <time>2011-09-20T12:28:16Z</time>
      </trkpt>
      <trkpt lat="46.57179" lon="5.45654">
        <ele>368.322266</ele>
        <time>2011-09-20T12:28:18Z</time>
      </trkpt>
      <trkpt lat="46.57201" lon="5.45649">
        <ele>367.360962</ele>
        <time>2011-09-20T12:28:20Z</time>
      </trkpt>
      <trkpt lat="46.5728" lon="5.45675">
        <ele>363.035034</ele>
        <time>2011-09-20T12:28:27Z</time>
      </trkpt>
      <trkpt lat="46.57291" lon="5.4568">
        <ele>362.07373</ele>
        <time>2011-09-20T12:28:28Z</time>
      </trkpt>
      <trkpt lat="46.57311" lon="5.45684">
        <ele>361.112427</ele>
        <time>2011-09-20T12:28:30Z</time>
      </trkpt>
      <trkpt lat="46.57336" lon="5.4567">
        <ele>359.189697</ele>
        <time>2011-09-20T12:28:33Z</time>
      </trkpt>
      <trkpt lat="46.57346" lon="5.45634">
        <ele>358.228394</ele>
        <time>2011-09-20T12:28:36Z</time>
      </trkpt>
      <trkpt lat="46.57354" lon="5.45594">
        <ele>357.26709</ele>
        <time>2011-09-20T12:28:39Z</time>
      </trkpt>
      <trkpt lat="46.57356" lon="5.45542">
        <ele>356.305786</ele>
        <time>2011-09-20T12:28:43Z</time>
      </trkpt>
      <trkpt lat="46.5734" lon="5.45429">
        <ele>351.979858</ele>
        <time>2011-09-20T12:28:51Z</time>
      </trkpt>
      <trkpt lat="46.57337" lon="5.45415">
        <ele>351.499146</ele>
        <time>2011-09-20T12:28:52Z</time>
      </trkpt>
      <trkpt lat="46.5731" lon="5.45338">
        <ele>349.576538</ele>
        <time>2011-09-20T12:28:58Z</time>
      </trkpt>
      <trkpt lat="46.57304" lon="5.45274">
        <ele>348.615234</ele>
        <time>2011-09-20T12:29:03Z</time>
      </trkpt>
      <trkpt lat="46.57305" lon="5.45247">
        <ele>347.653931</ele>
        <time>2011-09-20T12:29:05Z</time>
      </trkpt>
      <trkpt lat="46.57325" lon="5.45142">
        <ele>344.289429</ele>
        <time>2011-09-20T12:29:13Z</time>
      </trkpt>
      <trkpt lat="46.57329" lon="5.45122">
        <ele>342.366699</ele>
        <time>2011-09-20T12:29:15Z</time>
      </trkpt>
      <trkpt lat="46.57371" lon="5.45056">
        <ele>340.924683</ele>
        <time>2011-09-20T12:29:22Z</time>
      </trkpt>
      <trkpt lat="46.57375" lon="5.45023">
        <ele>340.444092</ele>
        <time>2011-09-20T12:29:25Z</time>
      </trkpt>
      <trkpt lat="46.57364" lon="5.4497">
        <ele>339.002075</ele>
        <time>2011-09-20T12:29:30Z</time>
      </trkpt>
      <trkpt lat="46.5732" lon="5.44934">
        <ele>338.040771</ele>
        <time>2011-09-20T12:29:37Z</time>
      </trkpt>
      <trkpt lat="46.57303" lon="5.44937">
        <ele>337.560059</ele>
        <time>2011-09-20T12:29:39Z</time>
      </trkpt>
      <trkpt lat="46.57218" lon="5.45">
        <ele>337.079468</ele>
        <time>2011-09-20T12:29:50Z</time>
      </trkpt>
      <trkpt lat="46.57184" lon="5.45029">
        <ele>338.040771</ele>
        <time>2011-09-20T12:29:55Z</time>
      </trkpt>
      <trkpt lat="46.57134" lon="5.45016">
        <ele>337.079468</ele>
        <time>2011-09-20T12:30:02Z</time>
      </trkpt>
      <trkpt lat="46.57129" lon="5.45007">
        <ele>337.079468</ele>
        <time>2011-09-20T12:30:03Z</time>
      </trkpt>
      <trkpt lat="46.57119" lon="5.44991">
        <ele>337.079468</ele>
        <time>2011-09-20T12:30:05Z</time>
      </trkpt>
      <trkpt lat="46.57094" lon="5.44963">
        <ele>336.598877</ele>
        <time>2011-09-20T12:30:09Z</time>
      </trkpt>
      <trkpt lat="46.57075" lon="5.44907">
        <ele>336.118164</ele>
        <time>2011-09-20T12:30:15Z</time>
      </trkpt>
      <trkpt lat="46.57075" lon="5.44883">
        <ele>335.637329</ele>
        <time>2011-09-20T12:30:17Z</time>
      </trkpt>
      <trkpt lat="46.57051" lon="5.44808">
        <ele>332.272827</ele>
        <time>2011-09-20T12:30:23Z</time>
      </trkpt>
      <trkpt lat="46.57045" lon="5.44778">
        <ele>331.311523</ele>
        <time>2011-09-20T12:30:25Z</time>
      </trkpt>
      <trkpt lat="46.57042" lon="5.44762">
        <ele>330.830933</ele>
        <time>2011-09-20T12:30:26Z</time>
      </trkpt>
      <trkpt lat="46.57014" lon="5.44713">
        <ele>328.908325</ele>
        <time>2011-09-20T12:30:30Z</time>
      </trkpt>
      <trkpt lat="46.56971" lon="5.44655">
        <ele>325.543579</ele>
        <time>2011-09-20T12:30:35Z</time>
      </trkpt>
      <trkpt lat="46.56941" lon="5.44607">
        <ele>323.140381</ele>
        <time>2011-09-20T12:30:39Z</time>
      </trkpt>
      <trkpt lat="46.56919" lon="5.4457">
        <ele>321.217773</ele>
        <time>2011-09-20T12:30:42Z</time>
      </trkpt>
      <trkpt lat="46.5686" lon="5.44485">
        <ele>316.411011</ele>
        <time>2011-09-20T12:30:49Z</time>
      </trkpt>
      <trkpt lat="46.56846" lon="5.44459">
        <ele>315.93042</ele>
        <time>2011-09-20T12:30:51Z</time>
      </trkpt>
      <trkpt lat="46.56832" lon="5.44432">
        <ele>314.488403</ele>
        <time>2011-09-20T12:30:53Z</time>
      </trkpt>
      <trkpt lat="46.56805" lon="5.44341">
        <ele>311.123779</ele>
        <time>2011-09-20T12:30:59Z</time>
      </trkpt>
      <trkpt lat="46.56788" lon="5.44253">
        <ele>307.278564</ele>
        <time>2011-09-20T12:31:04Z</time>
      </trkpt>
      <trkpt lat="46.56785" lon="5.44215">
        <ele>305.355957</ele>
        <time>2011-09-20T12:31:06Z</time>
      </trkpt>
      <trkpt lat="46.56775" lon="5.44119">
        <ele>301.029907</ele>
        <time>2011-09-20T12:31:11Z</time>
      </trkpt>
      <trkpt lat="46.56769" lon="5.44081">
        <ele>298.626709</ele>
        <time>2011-09-20T12:31:13Z</time>
      </trkpt>
      <trkpt lat="46.5674" lon="5.44021">
        <ele>295.261963</ele>
        <time>2011-09-20T12:31:17Z</time>
      </trkpt>
      <trkpt lat="46.56719" lon="5.43959">
        <ele>290.936157</ele>
        <time>2011-09-20T12:31:21Z</time>
      </trkpt>
      <trkpt lat="46.56741" lon="5.439">
        <ele>288.052246</ele>
        <time>2011-09-20T12:31:25Z</time>
      </trkpt>
      <trkpt lat="46.56762" lon="5.43883">
        <ele>287.09082</ele>
        <time>2011-09-20T12:31:27Z</time>
      </trkpt>
      <trkpt lat="46.56785" lon="5.43875">
        <ele>287.09082</ele>
        <time>2011-09-20T12:31:29Z</time>
      </trkpt>
      <trkpt lat="46.56844" lon="5.43869">
        <ele>282.765015</ele>
        <time>2011-09-20T12:31:34Z</time>
      </trkpt>
      <trkpt lat="46.56891" lon="5.43864">
        <ele>279.400269</ele>
        <time>2011-09-20T12:31:38Z</time>
      </trkpt>
      <trkpt lat="46.56951" lon="5.43858">
        <ele>276.516357</ele>
        <time>2011-09-20T12:31:43Z</time>
      </trkpt>
      <trkpt lat="46.56999" lon="5.43857">
        <ele>273.151855</ele>
        <time>2011-09-20T12:31:47Z</time>
      </trkpt>
      <trkpt lat="46.57046" lon="5.43866">
        <ele>269.787109</ele>
        <time>2011-09-20T12:31:51Z</time>
      </trkpt>
      <trkpt lat="46.57081" lon="5.4388">
        <ele>268.345093</ele>
        <time>2011-09-20T12:31:54Z</time>
      </trkpt>
      <trkpt lat="46.57124" lon="5.43898">
        <ele>267.383911</ele>
        <time>2011-09-20T12:31:58Z</time>
      </trkpt>
      <trkpt lat="46.57174" lon="5.43889">
        <ele>266.422485</ele>
        <time>2011-09-20T12:32:04Z</time>
      </trkpt>
      <trkpt lat="46.57207" lon="5.43848">
        <ele>265.461304</ele>
        <time>2011-09-20T12:32:13Z</time>
      </trkpt>
      <trkpt lat="46.57207" lon="5.43848">
        <ele>264.980591</ele>
        <time>2011-09-20T12:32:29Z</time>
      </trkpt>
      <trkpt lat="46.57207" lon="5.43848">
        <ele>264.980591</ele>
        <time>2011-09-20T12:32:39Z</time>
      </trkpt>
      <trkpt lat="46.57207" lon="5.43838">
        <ele>265.461304</ele>
        <time>2011-09-20T12:32:45Z</time>
      </trkpt>
      <trkpt lat="46.57202" lon="5.43836">
        <ele>265.941895</ele>
        <time>2011-09-20T12:32:52Z</time>
      </trkpt>
      <trkpt lat="46.572" lon="5.43835">
        <ele>265.941895</ele>
        <time>2011-09-20T12:32:56Z</time>
      </trkpt>
      <trkpt lat="46.57198" lon="5.43842">
        <ele>265.461304</ele>
        <time>2011-09-20T12:33:12Z</time>
      </trkpt>
      <trkpt lat="46.57198" lon="5.43842">
        <ele>265.461304</ele>
        <time>2011-09-20T12:33:55Z</time>
      </trkpt>
      <trkpt lat="46.57198" lon="5.43842">
        <ele>259.693359</ele>
        <time>2011-09-20T12:34:15Z</time>
      </trkpt>
      <trkpt lat="46.57198" lon="5.43842">
        <ele>264.980591</ele>
        <time>2011-09-20T12:34:16Z</time>
      </trkpt>
      <trkpt lat="46.57198" lon="5.43842">
        <ele>264.980591</ele>
        <time>2011-09-20T12:34:32Z</time>
      </trkpt>
      <trkpt lat="46.57201" lon="5.43839">
        <ele>265.461304</ele>
        <time>2011-09-20T12:34:35Z</time>
      </trkpt>
      <trkpt lat="46.57221" lon="5.43847">
        <ele>264.980591</ele>
        <time>2011-09-20T12:34:43Z</time>
      </trkpt>
      <trkpt lat="46.57242" lon="5.43851">
        <ele>263.538574</ele>
        <time>2011-09-20T12:34:48Z</time>
      </trkpt>
      <trkpt lat="46.57262" lon="5.4385">
        <ele>262.577148</ele>
        <time>2011-09-20T12:34:54Z</time>
      </trkpt>
      <trkpt lat="46.57271" lon="5.43846">
        <ele>262.577148</ele>
        <time>2011-09-20T12:34:59Z</time>
      </trkpt>
      <trkpt lat="46.57283" lon="5.43845">
        <ele>261.615967</ele>
        <time>2011-09-20T12:35:05Z</time>
      </trkpt>
      <trkpt lat="46.57283" lon="5.43843">
        <ele>261.615967</ele>
        <time>2011-09-20T12:35:07Z</time>
      </trkpt>
      <trkpt lat="46.57277" lon="5.43843">
        <ele>262.096558</ele>
        <time>2011-09-20T12:35:09Z</time>
      </trkpt>
      <trkpt lat="46.57268" lon="5.43839">
        <ele>262.577148</ele>
        <time>2011-09-20T12:35:12Z</time>
      </trkpt>
      <trkpt lat="46.57255" lon="5.43823">
        <ele>263.057861</ele>
        <time>2011-09-20T12:35:19Z</time>
      </trkpt>
      <trkpt lat="46.57254" lon="5.43812">
        <ele>263.057861</ele>
        <time>2011-09-20T12:35:23Z</time>
      </trkpt>
      <trkpt lat="46.57259" lon="5.43764">
        <ele>262.096558</ele>
        <time>2011-09-20T12:35:33Z</time>
      </trkpt>
      <trkpt lat="46.57261" lon="5.43744">
        <ele>261.615967</ele>
        <time>2011-09-20T12:35:36Z</time>
      </trkpt>
      <trkpt lat="46.57278" lon="5.43684">
        <ele>258.731934</ele>
        <time>2011-09-20T12:35:49Z</time>
      </trkpt>
      <trkpt lat="46.57306" lon="5.43612">
        <ele>255.848022</ele>
        <time>2011-09-20T12:35:59Z</time>
      </trkpt>
      <trkpt lat="46.5735" lon="5.43535">
        <ele>252.483398</ele>
        <time>2011-09-20T12:36:08Z</time>
      </trkpt>
      <trkpt lat="46.5736" lon="5.43516">
        <ele>252.002808</ele>
        <time>2011-09-20T12:36:10Z</time>
      </trkpt>
      <trkpt lat="46.57376" lon="5.43478">
        <ele>248.638184</ele>
        <time>2011-09-20T12:36:15Z</time>
      </trkpt>
      <trkpt lat="46.57379" lon="5.43476">
        <ele>248.638184</ele>
        <time>2011-09-20T12:36:16Z</time>
      </trkpt>
      <trkpt lat="46.57402" lon="5.43505">
        <ele>249.599487</ele>
        <time>2011-09-20T12:36:24Z</time>
      </trkpt>
      <trkpt lat="46.57437" lon="5.4357">
        <ele>251.041382</ele>
        <time>2011-09-20T12:36:35Z</time>
      </trkpt>
      <trkpt lat="46.57452" lon="5.43582">
        <ele>250.560791</ele>
        <time>2011-09-20T12:36:39Z</time>
      </trkpt>
      <trkpt lat="46.5746" lon="5.4358">
        <ele>250.560791</ele>
        <time>2011-09-20T12:36:41Z</time>
      </trkpt>
      <trkpt lat="46.57478" lon="5.43585">
        <ele>250.560791</ele>
        <time>2011-09-20T12:36:45Z</time>
      </trkpt>
      <trkpt lat="46.57493" lon="5.43598">
        <ele>249.118774</ele>
        <time>2011-09-20T12:36:54Z</time>
      </trkpt>
      <trkpt lat="46.57491" lon="5.43595">
        <ele>249.118774</ele>
        <time>2011-09-20T12:37:24Z</time>
      </trkpt>
      <trkpt lat="46.57493" lon="5.43591">
        <ele>249.599487</ele>
        <time>2011-09-20T12:37:42Z</time>
      </trkpt>
      <trkpt lat="46.57494" lon="5.43592">
        <ele>248.638184</ele>
        <time>2011-09-20T12:38:41Z</time>
      </trkpt>
      <trkpt lat="46.57494" lon="5.4359">
        <ele>248.638184</ele>
        <time>2011-09-20T12:39:49Z</time>
      </trkpt>
      <trkpt lat="46.57496" lon="5.43591">
        <ele>248.638184</ele>
        <time>2011-09-20T12:40:45Z</time>
      </trkpt>
      <trkpt lat="46.57496" lon="5.43593">
        <ele>248.157593</ele>
        <time>2011-09-20T12:41:45Z</time>
      </trkpt>
      <trkpt lat="46.57503" lon="5.43598">
        <ele>249.118774</ele>
        <time>2011-09-20T12:42:16Z</time>
      </trkpt>
      <trkpt lat="46.57511" lon="5.43588">
        <ele>249.599487</ele>
        <time>2011-09-20T12:43:10Z</time>
      </trkpt>
      <trkpt lat="46.57518" lon="5.43588">
        <ele>249.599487</ele>
        <time>2011-09-20T12:43:55Z</time>
      </trkpt>
      <trkpt lat="46.5752" lon="5.4359">
        <ele>262.096558</ele>
        <time>2011-09-20T12:44:43Z</time>
      </trkpt>
      <trkpt lat="46.5752" lon="5.43591">
        <ele>252.002808</ele>
        <time>2011-09-20T12:44:44Z</time>
      </trkpt>
      <trkpt lat="46.57518" lon="5.43592">
        <ele>261.135254</ele>
        <time>2011-09-20T12:44:46Z</time>
      </trkpt>
      <trkpt lat="46.57518" lon="5.43592">
        <ele>252.963989</ele>
        <time>2011-09-20T12:44:47Z</time>
      </trkpt>
      <trkpt lat="46.57518" lon="5.43592">
        <ele>250.0802</ele>
        <time>2011-09-20T12:44:49Z</time>
      </trkpt>
      <trkpt lat="46.57516" lon="5.43589">
        <ele>253.444702</ele>
        <time>2011-09-20T12:49:50Z</time>
      </trkpt>
      <trkpt lat="46.57516" lon="5.43589">
        <ele>251.041382</ele>
        <time>2011-09-20T12:49:53Z</time>
      </trkpt>
      <trkpt lat="46.57516" lon="5.43589">
        <ele>247.676758</ele>
        <time>2011-09-20T12:50:31Z</time>
      </trkpt>
      <trkpt lat="46.57516" lon="5.43589">
        <ele>252.963989</ele>
        <time>2011-09-20T12:50:32Z</time>
      </trkpt>
      <trkpt lat="46.57515" lon="5.43589">
        <ele>249.118774</ele>
        <time>2011-09-20T12:51:49Z</time>
      </trkpt>
      <trkpt lat="46.57515" lon="5.43589">
        <ele>253.925415</ele>
        <time>2011-09-20T12:51:50Z</time>
      </trkpt>
      <trkpt lat="46.57515" lon="5.43589">
        <ele>249.118774</ele>
        <time>2011-09-20T12:51:52Z</time>
      </trkpt>
      <trkpt lat="46.57515" lon="5.43589">
        <ele>252.483398</ele>
        <time>2011-09-20T12:51:54Z</time>
      </trkpt>
      <trkpt lat="46.57515" lon="5.43589">
        <ele>249.118774</ele>
        <time>2011-09-20T12:51:58Z</time>
      </trkpt>
      <trkpt lat="46.57515" lon="5.43589">
        <ele>252.483398</ele>
        <time>2011-09-20T12:51:59Z</time>
      </trkpt>
      <trkpt lat="46.57515" lon="5.43585">
        <ele>249.118774</ele>
        <time>2011-09-20T13:05:19Z</time>
      </trkpt>
      <trkpt lat="46.57515" lon="5.43585">
        <ele>254.886597</ele>
        <time>2011-09-20T13:05:20Z</time>
      </trkpt>
      <trkpt lat="46.57516" lon="5.43586">
        <ele>251.522095</ele>
        <time>2011-09-20T13:09:04Z</time>
      </trkpt>
      <trkpt lat="46.57516" lon="5.43586">
        <ele>254.886597</ele>
        <time>2011-09-20T13:09:07Z</time>
      </trkpt>
      <trkpt lat="46.57516" lon="5.43586">
        <ele>251.041382</ele>
        <time>2011-09-20T13:09:18Z</time>
      </trkpt>
      <trkpt lat="46.57516" lon="5.43586">
        <ele>255.36731</ele>
        <time>2011-09-20T13:09:22Z</time>
      </trkpt>
      <trkpt lat="46.57516" lon="5.43585">
        <ele>252.002808</ele>
        <time>2011-09-20T13:11:31Z</time>
      </trkpt>
      <trkpt lat="46.57516" lon="5.43585">
        <ele>256.328735</ele>
        <time>2011-09-20T13:11:34Z</time>
      </trkpt>
      <trkpt lat="46.57516" lon="5.43586">
        <ele>255.848022</ele>
        <time>2011-09-20T13:11:35Z</time>
      </trkpt>
      <trkpt lat="46.57516" lon="5.43586">
        <ele>254.406006</ele>
        <time>2011-09-20T13:11:37Z</time>
      </trkpt>
      <trkpt lat="46.57519" lon="5.43585">
        <ele>257.770752</ele>
        <time>2011-09-20T13:35:00Z</time>
      </trkpt>
      <trkpt lat="46.57517" lon="5.43582">
        <ele>257.770752</ele>
        <time>2011-09-20T13:40:40Z</time>
      </trkpt>
      <trkpt lat="46.57517" lon="5.43582">
        <ele>256.809326</ele>
        <time>2011-09-20T13:40:42Z</time>
      </trkpt>
      <trkpt lat="46.57516" lon="5.43582">
        <ele>259.212646</ele>
        <time>2011-09-20T13:43:38Z</time>
      </trkpt>
      <trkpt lat="46.57516" lon="5.43582">
        <ele>257.290039</ele>
        <time>2011-09-20T13:43:40Z</time>
      </trkpt>
      <trkpt lat="46.57516" lon="5.43583">
        <ele>253.925415</ele>
        <time>2011-09-20T13:45:32Z</time>
      </trkpt>
      <trkpt lat="46.57516" lon="5.43583">
        <ele>257.290039</ele>
        <time>2011-09-20T13:45:33Z</time>
      </trkpt>
      <trkpt lat="46.57516" lon="5.43583">
        <ele>252.483398</ele>
        <time>2011-09-20T13:45:43Z</time>
      </trkpt>
      <trkpt lat="46.57516" lon="5.43583">
        <ele>257.770752</ele>
        <time>2011-09-20T13:45:44Z</time>
      </trkpt>
      <trkpt lat="46.57517" lon="5.43583">
        <ele>257.290039</ele>
        <time>2011-09-20T13:47:01Z</time>
      </trkpt>
      <trkpt lat="46.57515" lon="5.43581">
        <ele>252.963989</ele>
        <time>2011-09-20T14:04:01Z</time>
      </trkpt>
      <trkpt lat="46.57515" lon="5.43581">
        <ele>254.886597</ele>
        <time>2011-09-20T14:05:58Z</time>
      </trkpt>
      <trkpt lat="46.57516" lon="5.43578">
        <ele>251.522095</ele>
        <time>2011-09-20T14:15:24Z</time>
      </trkpt>
      <trkpt lat="46.57516" lon="5.43578">
        <ele>254.886597</ele>
        <time>2011-09-20T14:15:25Z</time>
      </trkpt>
      <trkpt lat="46.57516" lon="5.43577">
        <ele>254.406006</ele>
        <time>2011-09-20T14:17:04Z</time>
      </trkpt>
      <trkpt lat="46.57519" lon="5.43582">
        <ele>254.406006</ele>
        <time>2011-09-20T14:27:27Z</time>
      </trkpt>
      <trkpt lat="46.57518" lon="5.43584">
        <ele>257.290039</ele>
        <time>2011-09-20T14:31:19Z</time>
      </trkpt>
      <trkpt lat="46.57518" lon="5.43583">
        <ele>254.406006</ele>
        <time>2011-09-20T14:32:57Z</time>
      </trkpt>
      <trkpt lat="46.57518" lon="5.43583">
        <ele>213.069336</ele>
        <time>2011-09-20T14:34:02Z</time>
      </trkpt>
      <trkpt lat="46.57518" lon="5.43583">
        <ele>260.654541</ele>
        <time>2011-09-20T14:34:03Z</time>
      </trkpt>
      <trkpt lat="46.57518" lon="5.43583">
        <ele>252.963989</ele>
        <time>2011-09-20T14:34:04Z</time>
      </trkpt>
      <trkpt lat="46.57518" lon="5.43585">
        <ele>256.328735</ele>
        <time>2011-09-20T14:34:17Z</time>
      </trkpt>
      <trkpt lat="46.57519" lon="5.43587">
        <ele>253.925415</ele>
        <time>2011-09-20T14:34:20Z</time>
      </trkpt>
      <trkpt lat="46.57517" lon="5.43587">
        <ele>254.886597</ele>
        <time>2011-09-20T14:34:44Z</time>
      </trkpt>
      <trkpt lat="46.57517" lon="5.43586">
        <ele>253.925415</ele>
        <time>2011-09-20T14:34:46Z</time>
      </trkpt>
      <trkpt lat="46.57517" lon="5.43586">
        <ele>254.406006</ele>
        <time>2011-09-20T14:35:06Z</time>
      </trkpt>
      <trkpt lat="46.57515" lon="5.43583">
        <ele>247.676758</ele>
        <time>2011-09-20T14:40:26Z</time>
      </trkpt>
      <trkpt lat="46.57515" lon="5.43583">
        <ele>255.36731</ele>
        <time>2011-09-20T14:40:27Z</time>
      </trkpt>
      <trkpt lat="46.57504" lon="5.4358">
        <ele>253.444702</ele>
        <time>2011-09-20T14:43:08Z</time>
      </trkpt>
      <trkpt lat="46.57509" lon="5.43585">
        <ele>254.406006</ele>
        <time>2011-09-20T14:43:22Z</time>
      </trkpt>
      <trkpt lat="46.57506" lon="5.43587">
        <ele>254.886597</ele>
        <time>2011-09-20T14:43:57Z</time>
      </trkpt>
      <trkpt lat="46.57511" lon="5.43589">
        <ele>254.886597</ele>
        <time>2011-09-20T14:44:24Z</time>
      </trkpt>
      <trkpt lat="46.57513" lon="5.43579">
        <ele>254.886597</ele>
        <time>2011-09-20T14:44:46Z</time>
      </trkpt>
      <trkpt lat="46.57494" lon="5.43582">
        <ele>253.925415</ele>
        <time>2011-09-20T14:45:25Z</time>
      </trkpt>
      <trkpt lat="46.57493" lon="5.43587">
        <ele>253.925415</ele>
        <time>2011-09-20T14:46:04Z</time>
      </trkpt>
      <trkpt lat="46.57489" lon="5.43586">
        <ele>255.36731</ele>
        <time>2011-09-20T14:50:35Z</time>
      </trkpt>
      <trkpt lat="46.57489" lon="5.43584">
        <ele>255.36731</ele>
        <time>2011-09-20T14:51:16Z</time>
      </trkpt>
      <trkpt lat="46.57495" lon="5.43588">
        <ele>255.848022</ele>
        <time>2011-09-20T14:51:49Z</time>
      </trkpt>
      <trkpt lat="46.57495" lon="5.43591">
        <ele>255.36731</ele>
        <time>2011-09-20T14:51:50Z</time>
      </trkpt>
      <trkpt lat="46.57503" lon="5.43638">
        <ele>255.36731</ele>
        <time>2011-09-20T14:52:03Z</time>
      </trkpt>
      <trkpt lat="46.57505" lon="5.43648">
        <ele>255.36731</ele>
        <time>2011-09-20T14:52:10Z</time>
      </trkpt>
      <trkpt lat="46.57519" lon="5.43673">
        <ele>255.848022</ele>
        <time>2011-09-20T14:52:23Z</time>
      </trkpt>
      <trkpt lat="46.57548" lon="5.43719">
        <ele>255.848022</ele>
        <time>2011-09-20T14:52:38Z</time>
      </trkpt>
      <trkpt lat="46.57569" lon="5.43752">
        <ele>255.848022</ele>
        <time>2011-09-20T14:52:51Z</time>
      </trkpt>
      <trkpt lat="46.57594" lon="5.4379">
        <ele>255.36731</ele>
        <time>2011-09-20T14:53:04Z</time>
      </trkpt>
      <trkpt lat="46.57618" lon="5.43795">
        <ele>254.886597</ele>
        <time>2011-09-20T14:53:12Z</time>
      </trkpt>
      <trkpt lat="46.57669" lon="5.43743">
        <ele>255.848022</ele>
        <time>2011-09-20T14:53:26Z</time>
      </trkpt>
      <trkpt lat="46.577" lon="5.4373">
        <ele>256.328735</ele>
        <time>2011-09-20T14:53:38Z</time>
      </trkpt>
      <trkpt lat="46.57701" lon="5.43729">
        <ele>254.886597</ele>
        <time>2011-09-20T14:53:40Z</time>
      </trkpt>
      <trkpt lat="46.57701" lon="5.43729">
        <ele>257.770752</ele>
        <time>2011-09-20T14:53:56Z</time>
      </trkpt>
      <trkpt lat="46.57711" lon="5.43723">
        <ele>255.848022</ele>
        <time>2011-09-20T14:54:01Z</time>
      </trkpt>
      <trkpt lat="46.57758" lon="5.43643">
        <ele>253.925415</ele>
        <time>2011-09-20T14:54:12Z</time>
      </trkpt>
      <trkpt lat="46.57798" lon="5.43536">
        <ele>250.560791</ele>
        <time>2011-09-20T14:54:21Z</time>
      </trkpt>
      <trkpt lat="46.57803" lon="5.43523">
        <ele>250.560791</ele>
        <time>2011-09-20T14:54:22Z</time>
      </trkpt>
      <trkpt lat="46.57835" lon="5.43423">
        <ele>247.196045</ele>
        <time>2011-09-20T14:54:29Z</time>
      </trkpt>
      <trkpt lat="46.57858" lon="5.43365">
        <ele>245.273438</ele>
        <time>2011-09-20T14:54:33Z</time>
      </trkpt>
      <trkpt lat="46.57889" lon="5.43294">
        <ele>243.35083</ele>
        <time>2011-09-20T14:54:38Z</time>
      </trkpt>
      <trkpt lat="46.57916" lon="5.43229">
        <ele>239.986206</ele>
        <time>2011-09-20T14:54:43Z</time>
      </trkpt>
      <trkpt lat="46.5792" lon="5.43219">
        <ele>239.986206</ele>
        <time>2011-09-20T14:54:44Z</time>
      </trkpt>
      <trkpt lat="46.57924" lon="5.43208">
        <ele>239.505493</ele>
        <time>2011-09-20T14:54:45Z</time>
      </trkpt>
      <trkpt lat="46.57937" lon="5.43148">
        <ele>237.102295</ele>
        <time>2011-09-20T14:54:50Z</time>
      </trkpt>
      <trkpt lat="46.57946" lon="5.42962">
        <ele>233.25708</ele>
        <time>2011-09-20T14:55:03Z</time>
      </trkpt>
      <trkpt lat="46.57951" lon="5.42871">
        <ele>230.373047</ele>
        <time>2011-09-20T14:55:09Z</time>
      </trkpt>
      <trkpt lat="46.57952" lon="5.42778">
        <ele>227.008545</ele>
        <time>2011-09-20T14:55:15Z</time>
      </trkpt>
      <trkpt lat="46.57949" lon="5.42763">
        <ele>226.527832</ele>
        <time>2011-09-20T14:55:16Z</time>
      </trkpt>
      <trkpt lat="46.57941" lon="5.42673">
        <ele>225.085938</ele>
        <time>2011-09-20T14:55:22Z</time>
      </trkpt>
      <trkpt lat="46.57962" lon="5.42589">
        <ele>224.605225</ele>
        <time>2011-09-20T14:55:28Z</time>
      </trkpt>
      <trkpt lat="46.58053" lon="5.42427">
        <ele>224.124512</ele>
        <time>2011-09-20T14:55:44Z</time>
      </trkpt>
      <trkpt lat="46.58143" lon="5.42223">
        <ele>222.682495</ele>
        <time>2011-09-20T14:56:05Z</time>
      </trkpt>
      <trkpt lat="46.58213" lon="5.42088">
        <ele>224.605225</ele>
        <time>2011-09-20T14:56:22Z</time>
      </trkpt>
      <trkpt lat="46.58266" lon="5.41963">
        <ele>226.527832</ele>
        <time>2011-09-20T14:56:43Z</time>
      </trkpt>
      <trkpt lat="46.58303" lon="5.41833">
        <ele>223.643799</ele>
        <time>2011-09-20T14:56:59Z</time>
      </trkpt>
      <trkpt lat="46.58312" lon="5.41692">
        <ele>220.759888</ele>
        <time>2011-09-20T14:57:12Z</time>
      </trkpt>
      <trkpt lat="46.58316" lon="5.41656">
        <ele>220.279175</ele>
        <time>2011-09-20T14:57:15Z</time>
      </trkpt>
      <trkpt lat="46.58354" lon="5.41508">
        <ele>220.279175</ele>
        <time>2011-09-20T14:57:30Z</time>
      </trkpt>
      <trkpt lat="46.584" lon="5.414">
        <ele>218.83728</ele>
        <time>2011-09-20T14:57:44Z</time>
      </trkpt>
      <trkpt lat="46.58459" lon="5.41308">
        <ele>217.875977</ele>
        <time>2011-09-20T14:57:57Z</time>
      </trkpt>
      <trkpt lat="46.58512" lon="5.41219">
        <ele>218.83728</ele>
        <time>2011-09-20T14:58:11Z</time>
      </trkpt>
      <trkpt lat="46.58571" lon="5.41124">
        <ele>221.721191</ele>
        <time>2011-09-20T14:58:29Z</time>
      </trkpt>
      <trkpt lat="46.58592" lon="5.41093">
        <ele>222.201782</ele>
        <time>2011-09-20T14:58:35Z</time>
      </trkpt>
      <trkpt lat="46.58653" lon="5.40999">
        <ele>226.047119</ele>
        <time>2011-09-20T14:58:53Z</time>
      </trkpt>
      <trkpt lat="46.58758" lon="5.40897">
        <ele>226.047119</ele>
        <time>2011-09-20T14:59:14Z</time>
      </trkpt>
      <trkpt lat="46.58927" lon="5.40744">
        <ele>224.605225</ele>
        <time>2011-09-20T14:59:45Z</time>
      </trkpt>
      <trkpt lat="46.59015" lon="5.40643">
        <ele>223.163208</ele>
        <time>2011-09-20T15:00:04Z</time>
      </trkpt>
      <trkpt lat="46.59043" lon="5.40546">
        <ele>223.643799</ele>
        <time>2011-09-20T15:00:16Z</time>
      </trkpt>
      <trkpt lat="46.59084" lon="5.40317">
        <ele>221.721191</ele>
        <time>2011-09-20T15:00:43Z</time>
      </trkpt>
      <trkpt lat="46.59128" lon="5.402">
        <ele>220.759888</ele>
        <time>2011-09-20T15:00:57Z</time>
      </trkpt>
      <trkpt lat="46.59185" lon="5.40119">
        <ele>217.875977</ele>
        <time>2011-09-20T15:01:08Z</time>
      </trkpt>
      <trkpt lat="46.59235" lon="5.40047">
        <ele>214.51123</ele>
        <time>2011-09-20T15:01:16Z</time>
      </trkpt>
      <trkpt lat="46.59317" lon="5.39931">
        <ele>215.472656</ele>
        <time>2011-09-20T15:01:32Z</time>
      </trkpt>
      <trkpt lat="46.5937" lon="5.39856">
        <ele>218.356567</ele>
        <time>2011-09-20T15:01:45Z</time>
      </trkpt>
      <trkpt lat="46.59423" lon="5.39798">
        <ele>220.759888</ele>
        <time>2011-09-20T15:01:59Z</time>
      </trkpt>
      <trkpt lat="46.59446" lon="5.39793">
        <ele>221.240601</ele>
        <time>2011-09-20T15:02:04Z</time>
      </trkpt>
      <trkpt lat="46.59496" lon="5.39798">
        <ele>221.240601</ele>
        <time>2011-09-20T15:02:13Z</time>
      </trkpt>
      <trkpt lat="46.59531" lon="5.39784">
        <ele>220.759888</ele>
        <time>2011-09-20T15:02:19Z</time>
      </trkpt>
      <trkpt lat="46.59561" lon="5.3974">
        <ele>221.240601</ele>
        <time>2011-09-20T15:02:26Z</time>
      </trkpt>
      <trkpt lat="46.59613" lon="5.39594">
        <ele>221.721191</ele>
        <time>2011-09-20T15:02:46Z</time>
      </trkpt>
      <trkpt lat="46.59667" lon="5.39479">
        <ele>222.682495</ele>
        <time>2011-09-20T15:03:06Z</time>
      </trkpt>
      <trkpt lat="46.59713" lon="5.39337">
        <ele>221.721191</ele>
        <time>2011-09-20T15:03:26Z</time>
      </trkpt>
      <trkpt lat="46.59749" lon="5.3922">
        <ele>220.759888</ele>
        <time>2011-09-20T15:03:42Z</time>
      </trkpt>
      <trkpt lat="46.59779" lon="5.39187">
        <ele>220.279175</ele>
        <time>2011-09-20T15:03:49Z</time>
      </trkpt>
      <trkpt lat="46.59866" lon="5.39189">
        <ele>220.279175</ele>
        <time>2011-09-20T15:04:04Z</time>
      </trkpt>
      <trkpt lat="46.59914" lon="5.39179">
        <ele>219.317993</ele>
        <time>2011-09-20T15:04:12Z</time>
      </trkpt>
      <trkpt lat="46.59998" lon="5.39185">
        <ele>216.43396</ele>
        <time>2011-09-20T15:04:27Z</time>
      </trkpt>
      <trkpt lat="46.60025" lon="5.39203">
        <ele>215.953247</ele>
        <time>2011-09-20T15:04:32Z</time>
      </trkpt>
      <trkpt lat="46.60056" lon="5.39283">
        <ele>212.108032</ele>
        <time>2011-09-20T15:04:41Z</time>
      </trkpt>
      <trkpt lat="46.60056" lon="5.39307">
        <ele>211.146729</ele>
        <time>2011-09-20T15:04:43Z</time>
      </trkpt>
      <trkpt lat="46.60054" lon="5.39332">
        <ele>210.185425</ele>
        <time>2011-09-20T15:04:45Z</time>
      </trkpt>
      <trkpt lat="46.60037" lon="5.39428">
        <ele>211.627441</ele>
        <time>2011-09-20T15:04:54Z</time>
      </trkpt>
      <trkpt lat="46.60048" lon="5.39503">
        <ele>210.185425</ele>
        <time>2011-09-20T15:05:02Z</time>
      </trkpt>
      <trkpt lat="46.60065" lon="5.39541">
        <ele>208.262817</ele>
        <time>2011-09-20T15:05:06Z</time>
      </trkpt>
      <trkpt lat="46.6008" lon="5.3957">
        <ele>208.262817</ele>
        <time>2011-09-20T15:05:09Z</time>
      </trkpt>
      <trkpt lat="46.6009" lon="5.39652">
        <ele>204.898071</ele>
        <time>2011-09-20T15:05:16Z</time>
      </trkpt>
      <trkpt lat="46.6008" lon="5.39684">
        <ele>203.456177</ele>
        <time>2011-09-20T15:05:19Z</time>
      </trkpt>
      <trkpt lat="46.60071" lon="5.39703">
        <ele>203.456177</ele>
        <time>2011-09-20T15:05:21Z</time>
      </trkpt>
      <trkpt lat="46.60072" lon="5.39752">
        <ele>202.975464</ele>
        <time>2011-09-20T15:05:26Z</time>
      </trkpt>
      <trkpt lat="46.60086" lon="5.39791">
        <ele>202.494873</ele>
        <time>2011-09-20T15:05:30Z</time>
      </trkpt>
      <trkpt lat="46.60107" lon="5.39823">
        <ele>202.014282</ele>
        <time>2011-09-20T15:05:34Z</time>
      </trkpt>
      <trkpt lat="46.60163" lon="5.39874">
        <ele>202.494873</ele>
        <time>2011-09-20T15:05:43Z</time>
      </trkpt>
      <trkpt lat="46.60188" lon="5.39933">
        <ele>202.975464</ele>
        <time>2011-09-20T15:05:51Z</time>
      </trkpt>
      <trkpt lat="46.60194" lon="5.40078">
        <ele>205.378784</ele>
        <time>2011-09-20T15:06:09Z</time>
      </trkpt>
      <trkpt lat="46.60186" lon="5.40153">
        <ele>206.820679</ele>
        <time>2011-09-20T15:06:24Z</time>
      </trkpt>
      <trkpt lat="46.60178" lon="5.40202">
        <ele>206.340088</ele>
        <time>2011-09-20T15:06:32Z</time>
      </trkpt>
      <trkpt lat="46.60182" lon="5.40233">
        <ele>206.340088</ele>
        <time>2011-09-20T15:06:37Z</time>
      </trkpt>
      <trkpt lat="46.60219" lon="5.40336">
        <ele>206.820679</ele>
        <time>2011-09-20T15:06:54Z</time>
      </trkpt>
      <trkpt lat="46.60223" lon="5.4036">
        <ele>206.820679</ele>
        <time>2011-09-20T15:06:58Z</time>
      </trkpt>
      <trkpt lat="46.60224" lon="5.40383">
        <ele>205.859497</ele>
        <time>2011-09-20T15:07:01Z</time>
      </trkpt>
      <trkpt lat="46.60227" lon="5.40509">
        <ele>202.494873</ele>
        <time>2011-09-20T15:07:14Z</time>
      </trkpt>
      <trkpt lat="46.60236" lon="5.40548">
        <ele>202.014282</ele>
        <time>2011-09-20T15:07:18Z</time>
      </trkpt>
      <trkpt lat="46.60224" lon="5.40628">
        <ele>201.052856</ele>
        <time>2011-09-20T15:07:27Z</time>
      </trkpt>
      <trkpt lat="46.6022" lon="5.40635">
        <ele>201.052856</ele>
        <time>2011-09-20T15:07:28Z</time>
      </trkpt>
      <trkpt lat="46.60184" lon="5.40696">
        <ele>201.052856</ele>
        <time>2011-09-20T15:07:37Z</time>
      </trkpt>
      <trkpt lat="46.60179" lon="5.40784">
        <ele>201.052856</ele>
        <time>2011-09-20T15:07:47Z</time>
      </trkpt>
      <trkpt lat="46.60208" lon="5.40828">
        <ele>201.052856</ele>
        <time>2011-09-20T15:07:54Z</time>
      </trkpt>
      <trkpt lat="46.60289" lon="5.40894">
        <ele>203.456177</ele>
        <time>2011-09-20T15:08:12Z</time>
      </trkpt>
      <trkpt lat="46.60323" lon="5.40951">
        <ele>206.820679</ele>
        <time>2011-09-20T15:08:27Z</time>
      </trkpt>
      <trkpt lat="46.60354" lon="5.40992">
        <ele>210.185425</ele>
        <time>2011-09-20T15:08:43Z</time>
      </trkpt>
      <trkpt lat="46.60395" lon="5.41024">
        <ele>213.069336</ele>
        <time>2011-09-20T15:08:58Z</time>
      </trkpt>
      <trkpt lat="46.60421" lon="5.41081">
        <ele>213.550049</ele>
        <time>2011-09-20T15:09:12Z</time>
      </trkpt>
      <trkpt lat="46.60425" lon="5.41092">
        <ele>213.550049</ele>
        <time>2011-09-20T15:09:14Z</time>
      </trkpt>
      <trkpt lat="46.60467" lon="5.41129">
        <ele>212.108032</ele>
        <time>2011-09-20T15:09:24Z</time>
      </trkpt>
      <trkpt lat="46.60548" lon="5.41134">
        <ele>209.704834</ele>
        <time>2011-09-20T15:09:37Z</time>
      </trkpt>
      <trkpt lat="46.60656" lon="5.41165">
        <ele>206.340088</ele>
        <time>2011-09-20T15:09:53Z</time>
      </trkpt>
      <trkpt lat="46.60685" lon="5.41176">
        <ele>206.340088</ele>
        <time>2011-09-20T15:09:57Z</time>
      </trkpt>
      <trkpt lat="46.60752" lon="5.41251">
        <ele>206.820679</ele>
        <time>2011-09-20T15:10:10Z</time>
      </trkpt>
      <trkpt lat="46.60815" lon="5.41316">
        <ele>203.93689</ele>
        <time>2011-09-20T15:10:22Z</time>
      </trkpt>
      <trkpt lat="46.60866" lon="5.41307">
        <ele>202.494873</ele>
        <time>2011-09-20T15:10:29Z</time>
      </trkpt>
      <trkpt lat="46.60872" lon="5.413">
        <ele>202.494873</ele>
        <time>2011-09-20T15:10:30Z</time>
      </trkpt>
      <trkpt lat="46.60988" lon="5.41169">
        <ele>199.61084</ele>
        <time>2011-09-20T15:10:51Z</time>
      </trkpt>
      <trkpt lat="46.61008" lon="5.41152">
        <ele>199.130127</ele>
        <time>2011-09-20T15:10:55Z</time>
      </trkpt>
      <trkpt lat="46.61038" lon="5.41141">
        <ele>199.61084</ele>
        <time>2011-09-20T15:11:01Z</time>
      </trkpt>
      <trkpt lat="46.61131" lon="5.41168">
        <ele>198.649536</ele>
        <time>2011-09-20T15:11:18Z</time>
      </trkpt>
      <trkpt lat="46.6129" lon="5.41212">
        <ele>199.61084</ele>
        <time>2011-09-20T15:11:48Z</time>
      </trkpt>
      <trkpt lat="46.61431" lon="5.4125">
        <ele>200.091675</ele>
        <time>2011-09-20T15:12:14Z</time>
      </trkpt>
      <trkpt lat="46.61509" lon="5.41272">
        <ele>200.091675</ele>
        <time>2011-09-20T15:12:29Z</time>
      </trkpt>
      <trkpt lat="46.61624" lon="5.41356">
        <ele>199.61084</ele>
        <time>2011-09-20T15:12:52Z</time>
      </trkpt>
      <trkpt lat="46.61713" lon="5.4143">
        <ele>198.649536</ele>
        <time>2011-09-20T15:13:10Z</time>
      </trkpt>
      <trkpt lat="46.61753" lon="5.4142">
        <ele>198.649536</ele>
        <time>2011-09-20T15:13:17Z</time>
      </trkpt>
      <trkpt lat="46.61779" lon="5.41397">
        <ele>198.649536</ele>
        <time>2011-09-20T15:13:23Z</time>
      </trkpt>
      <trkpt lat="46.61795" lon="5.41372">
        <ele>199.130127</ele>
        <time>2011-09-20T15:13:27Z</time>
      </trkpt>
      <trkpt lat="46.6187" lon="5.41235">
        <ele>198.649536</ele>
        <time>2011-09-20T15:13:48Z</time>
      </trkpt>
      <trkpt lat="46.61894" lon="5.412">
        <ele>198.649536</ele>
        <time>2011-09-20T15:13:55Z</time>
      </trkpt>
      <trkpt lat="46.61954" lon="5.41119">
        <ele>198.649536</ele>
        <time>2011-09-20T15:14:12Z</time>
      </trkpt>
      <trkpt lat="46.62017" lon="5.4103">
        <ele>199.61084</ele>
        <time>2011-09-20T15:14:28Z</time>
      </trkpt>
      <trkpt lat="46.62085" lon="5.40833">
        <ele>199.130127</ele>
        <time>2011-09-20T15:14:54Z</time>
      </trkpt>
      <trkpt lat="46.62119" lon="5.4074">
        <ele>199.61084</ele>
        <time>2011-09-20T15:15:07Z</time>
      </trkpt>
      <trkpt lat="46.62139" lon="5.4071">
        <ele>199.130127</ele>
        <time>2011-09-20T15:15:12Z</time>
      </trkpt>
      <trkpt lat="46.62173" lon="5.40695">
        <ele>199.61084</ele>
        <time>2011-09-20T15:15:18Z</time>
      </trkpt>
      <trkpt lat="46.62203" lon="5.40704">
        <ele>199.130127</ele>
        <time>2011-09-20T15:15:24Z</time>
      </trkpt>
      <trkpt lat="46.62282" lon="5.40783">
        <ele>199.130127</ele>
        <time>2011-09-20T15:15:41Z</time>
      </trkpt>
      <trkpt lat="46.62344" lon="5.40875">
        <ele>199.61084</ele>
        <time>2011-09-20T15:15:57Z</time>
      </trkpt>
      <trkpt lat="46.62383" lon="5.4091">
        <ele>199.130127</ele>
        <time>2011-09-20T15:16:05Z</time>
      </trkpt>
      <trkpt lat="46.62426" lon="5.40995">
        <ele>199.61084</ele>
        <time>2011-09-20T15:16:18Z</time>
      </trkpt>
      <trkpt lat="46.62442" lon="5.41038">
        <ele>200.572266</ele>
        <time>2011-09-20T15:16:24Z</time>
      </trkpt>
      <trkpt lat="46.62474" lon="5.41106">
        <ele>201.052856</ele>
        <time>2011-09-20T15:16:39Z</time>
      </trkpt>
      <trkpt lat="46.62529" lon="5.41144">
        <ele>201.052856</ele>
        <time>2011-09-20T15:16:54Z</time>
      </trkpt>
      <trkpt lat="46.6256" lon="5.41156">
        <ele>202.014282</ele>
        <time>2011-09-20T15:17:01Z</time>
      </trkpt>
      <trkpt lat="46.62639" lon="5.41189">
        <ele>203.93689</ele>
        <time>2011-09-20T15:17:16Z</time>
      </trkpt>
      <trkpt lat="46.62739" lon="5.41233">
        <ele>205.378784</ele>
        <time>2011-09-20T15:17:36Z</time>
      </trkpt>
      <trkpt lat="46.62838" lon="5.41276">
        <ele>208.262817</ele>
        <time>2011-09-20T15:17:59Z</time>
      </trkpt>
      <trkpt lat="46.62889" lon="5.41299">
        <ele>211.146729</ele>
        <time>2011-09-20T15:18:14Z</time>
      </trkpt>
      <trkpt lat="46.62945" lon="5.41323">
        <ele>214.03064</ele>
        <time>2011-09-20T15:18:29Z</time>
      </trkpt>
      <trkpt lat="46.63003" lon="5.41347">
        <ele>217.395386</ele>
        <time>2011-09-20T15:18:44Z</time>
      </trkpt>
      <trkpt lat="46.63035" lon="5.41367">
        <ele>219.317993</ele>
        <time>2011-09-20T15:18:52Z</time>
      </trkpt>
      <trkpt lat="46.63105" lon="5.41458">
        <ele>219.798584</ele>
        <time>2011-09-20T15:19:10Z</time>
      </trkpt>
      <trkpt lat="46.63165" lon="5.41583">
        <ele>219.317993</ele>
        <time>2011-09-20T15:19:27Z</time>
      </trkpt>
      <trkpt lat="46.63236" lon="5.41727">
        <ele>219.798584</ele>
        <time>2011-09-20T15:19:47Z</time>
      </trkpt>
      <trkpt lat="46.63281" lon="5.41787">
        <ele>219.798584</ele>
        <time>2011-09-20T15:20:01Z</time>
      </trkpt>
      <trkpt lat="46.63342" lon="5.41875">
        <ele>217.875977</ele>
        <time>2011-09-20T15:20:17Z</time>
      </trkpt>
      <trkpt lat="46.63353" lon="5.41891">
        <ele>218.356567</ele>
        <time>2011-09-20T15:20:20Z</time>
      </trkpt>
      <trkpt lat="46.6341" lon="5.41943">
        <ele>218.83728</ele>
        <time>2011-09-20T15:20:35Z</time>
      </trkpt>
      <trkpt lat="46.63449" lon="5.41962">
        <ele>219.317993</ele>
        <time>2011-09-20T15:20:49Z</time>
      </trkpt>
      <trkpt lat="46.63467" lon="5.41975">
        <ele>219.317993</ele>
        <time>2011-09-20T15:21:03Z</time>
      </trkpt>
      <trkpt lat="46.63517" lon="5.42015">
        <ele>220.279175</ele>
        <time>2011-09-20T15:21:20Z</time>
      </trkpt>
      <trkpt lat="46.6356" lon="5.42008">
        <ele>219.798584</ele>
        <time>2011-09-20T15:21:31Z</time>
      </trkpt>
      <trkpt lat="46.6364" lon="5.41939">
        <ele>218.356567</ele>
        <time>2011-09-20T15:21:49Z</time>
      </trkpt>
      <trkpt lat="46.6373" lon="5.41875">
        <ele>215.953247</ele>
        <time>2011-09-20T15:22:06Z</time>
      </trkpt>
      <trkpt lat="46.63857" lon="5.41797">
        <ele>212.588623</ele>
        <time>2011-09-20T15:22:27Z</time>
      </trkpt>
      <trkpt lat="46.64011" lon="5.41704">
        <ele>214.51123</ele>
        <time>2011-09-20T15:22:54Z</time>
      </trkpt>
      <trkpt lat="46.64096" lon="5.41651">
        <ele>217.875977</ele>
        <time>2011-09-20T15:23:11Z</time>
      </trkpt>
      <trkpt lat="46.64227" lon="5.41568">
        <ele>218.83728</ele>
        <time>2011-09-20T15:23:36Z</time>
      </trkpt>
      <trkpt lat="46.64345" lon="5.41493">
        <ele>216.914673</ele>
        <time>2011-09-20T15:23:56Z</time>
      </trkpt>
      <trkpt lat="46.64448" lon="5.41424">
        <ele>216.43396</ele>
        <time>2011-09-20T15:24:13Z</time>
      </trkpt>
      <trkpt lat="46.64585" lon="5.41332">
        <ele>217.875977</ele>
        <time>2011-09-20T15:24:36Z</time>
      </trkpt>
      <trkpt lat="46.64698" lon="5.41257">
        <ele>214.991943</ele>
        <time>2011-09-20T15:24:54Z</time>
      </trkpt>
      <trkpt lat="46.64816" lon="5.4118">
        <ele>216.43396</ele>
        <time>2011-09-20T15:25:15Z</time>
      </trkpt>
      <trkpt lat="46.64925" lon="5.41108">
        <ele>214.991943</ele>
        <time>2011-09-20T15:25:35Z</time>
      </trkpt>
      <trkpt lat="46.65031" lon="5.41034">
        <ele>212.588623</ele>
        <time>2011-09-20T15:25:52Z</time>
      </trkpt>
      <trkpt lat="46.65113" lon="5.40931">
        <ele>212.108032</ele>
        <time>2011-09-20T15:26:09Z</time>
      </trkpt>
      <trkpt lat="46.65169" lon="5.40849">
        <ele>209.224121</ele>
        <time>2011-09-20T15:26:20Z</time>
      </trkpt>
      <trkpt lat="46.65227" lon="5.40762">
        <ele>205.859497</ele>
        <time>2011-09-20T15:26:30Z</time>
      </trkpt>
      <trkpt lat="46.65245" lon="5.40733">
        <ele>204.41748</ele>
        <time>2011-09-20T15:26:33Z</time>
      </trkpt>
      <trkpt lat="46.65275" lon="5.40667">
        <ele>202.014282</ele>
        <time>2011-09-20T15:26:39Z</time>
      </trkpt>
      <trkpt lat="46.6532" lon="5.40529">
        <ele>201.052856</ele>
        <time>2011-09-20T15:26:52Z</time>
      </trkpt>
      <trkpt lat="46.65382" lon="5.40432">
        <ele>201.052856</ele>
        <time>2011-09-20T15:27:05Z</time>
      </trkpt>
      <trkpt lat="46.65466" lon="5.40317">
        <ele>203.456177</ele>
        <time>2011-09-20T15:27:24Z</time>
      </trkpt>
      <trkpt lat="46.655" lon="5.40273">
        <ele>206.340088</ele>
        <time>2011-09-20T15:27:34Z</time>
      </trkpt>
      <trkpt lat="46.65538" lon="5.40217">
        <ele>209.224121</ele>
        <time>2011-09-20T15:27:46Z</time>
      </trkpt>
      <trkpt lat="46.65568" lon="5.40086">
        <ele>211.627441</ele>
        <time>2011-09-20T15:28:06Z</time>
      </trkpt>
      <trkpt lat="46.6561" lon="5.39976">
        <ele>212.108032</ele>
        <time>2011-09-20T15:28:23Z</time>
      </trkpt>
      <trkpt lat="46.65635" lon="5.39904">
        <ele>211.627441</ele>
        <time>2011-09-20T15:28:34Z</time>
      </trkpt>
      <trkpt lat="46.65669" lon="5.39791">
        <ele>210.666016</ele>
        <time>2011-09-20T15:28:48Z</time>
      </trkpt>
      <trkpt lat="46.65713" lon="5.39757">
        <ele>209.704834</ele>
        <time>2011-09-20T15:28:56Z</time>
      </trkpt>
      <trkpt lat="46.65726" lon="5.39762">
        <ele>209.704834</ele>
        <time>2011-09-20T15:28:58Z</time>
      </trkpt>
      <trkpt lat="46.65813" lon="5.39803">
        <ele>205.859497</ele>
        <time>2011-09-20T15:29:11Z</time>
      </trkpt>
      <trkpt lat="46.6582" lon="5.39805">
        <ele>205.859497</ele>
        <time>2011-09-20T15:29:12Z</time>
      </trkpt>
      <trkpt lat="46.65907" lon="5.39802">
        <ele>202.014282</ele>
        <time>2011-09-20T15:29:24Z</time>
      </trkpt>
      <trkpt lat="46.65923" lon="5.39794">
        <ele>201.052856</ele>
        <time>2011-09-20T15:29:26Z</time>
      </trkpt>
      <trkpt lat="46.65965" lon="5.39766">
        <ele>200.091675</ele>
        <time>2011-09-20T15:29:31Z</time>
      </trkpt>
      <trkpt lat="46.65999" lon="5.39757">
        <ele>199.130127</ele>
        <time>2011-09-20T15:29:35Z</time>
      </trkpt>
      <trkpt lat="46.66015" lon="5.39758">
        <ele>198.649536</ele>
        <time>2011-09-20T15:29:37Z</time>
      </trkpt>
      <trkpt lat="46.66089" lon="5.39725">
        <ele>201.052856</ele>
        <time>2011-09-20T15:29:48Z</time>
      </trkpt>
      <trkpt lat="46.66149" lon="5.3969">
        <ele>204.41748</ele>
        <time>2011-09-20T15:30:00Z</time>
      </trkpt>
      <trkpt lat="46.6624" lon="5.39661">
        <ele>207.301392</ele>
        <time>2011-09-20T15:30:18Z</time>
      </trkpt>
      <trkpt lat="46.6632" lon="5.39681">
        <ele>209.704834</ele>
        <time>2011-09-20T15:30:34Z</time>
      </trkpt>
      <trkpt lat="46.66369" lon="5.39757">
        <ele>211.627441</ele>
        <time>2011-09-20T15:30:48Z</time>
      </trkpt>
      <trkpt lat="46.66376" lon="5.39778">
        <ele>212.108032</ele>
        <time>2011-09-20T15:30:51Z</time>
      </trkpt>
      <trkpt lat="46.66384" lon="5.39796">
        <ele>212.588623</ele>
        <time>2011-09-20T15:30:54Z</time>
      </trkpt>
      <trkpt lat="46.66423" lon="5.39841">
        <ele>211.146729</ele>
        <time>2011-09-20T15:31:04Z</time>
      </trkpt>
      <trkpt lat="46.66433" lon="5.39847">
        <ele>210.666016</ele>
        <time>2011-09-20T15:31:06Z</time>
      </trkpt>
      <trkpt lat="46.66462" lon="5.3986">
        <ele>209.704834</ele>
        <time>2011-09-20T15:31:11Z</time>
      </trkpt>
      <trkpt lat="46.66564" lon="5.39943">
        <ele>210.666016</ele>
        <time>2011-09-20T15:31:29Z</time>
      </trkpt>
      <trkpt lat="46.66578" lon="5.39958">
        <ele>211.146729</ele>
        <time>2011-09-20T15:31:32Z</time>
      </trkpt>
      <trkpt lat="46.66591" lon="5.39973">
        <ele>212.108032</ele>
        <time>2011-09-20T15:31:35Z</time>
      </trkpt>
      <trkpt lat="46.66673" lon="5.4001">
        <ele>213.550049</ele>
        <time>2011-09-20T15:31:47Z</time>
      </trkpt>
      <trkpt lat="46.66769" lon="5.40064">
        <ele>212.588623</ele>
        <time>2011-09-20T15:32:04Z</time>
      </trkpt>
      <trkpt lat="46.66829" lon="5.40103">
        <ele>212.108032</ele>
        <time>2011-09-20T15:32:14Z</time>
      </trkpt>
      <trkpt lat="46.6686" lon="5.40107">
        <ele>212.108032</ele>
        <time>2011-09-20T15:32:19Z</time>
      </trkpt>
      <trkpt lat="46.66953" lon="5.40108">
        <ele>213.069336</ele>
        <time>2011-09-20T15:32:33Z</time>
      </trkpt>
      <trkpt lat="46.67047" lon="5.40116">
        <ele>213.550049</ele>
        <time>2011-09-20T15:32:52Z</time>
      </trkpt>
      <trkpt lat="46.67061" lon="5.40116">
        <ele>213.069336</ele>
        <time>2011-09-20T15:33:03Z</time>
      </trkpt>
      <trkpt lat="46.6706" lon="5.40118">
        <ele>216.43396</ele>
        <time>2011-09-20T15:33:37Z</time>
      </trkpt>
      <trkpt lat="46.6706" lon="5.40118">
        <ele>213.069336</ele>
        <time>2011-09-20T15:33:38Z</time>
      </trkpt>
      <trkpt lat="46.6706" lon="5.40119">
        <ele>213.069336</ele>
        <time>2011-09-20T15:35:25Z</time>
      </trkpt>
      <trkpt lat="46.67069" lon="5.40116">
        <ele>213.550049</ele>
        <time>2011-09-20T15:36:11Z</time>
      </trkpt>
      <trkpt lat="46.67071" lon="5.40116">
        <ele>213.550049</ele>
        <time>2011-09-20T15:36:12Z</time>
      </trkpt>
      <trkpt lat="46.67075" lon="5.40106">
        <ele>213.550049</ele>
        <time>2011-09-20T15:36:16Z</time>
      </trkpt>
      <trkpt lat="46.67082" lon="5.40043">
        <ele>214.51123</ele>
        <time>2011-09-20T15:36:33Z</time>
      </trkpt>
      <trkpt lat="46.6709" lon="5.39958">
        <ele>215.472656</ele>
        <time>2011-09-20T15:36:48Z</time>
      </trkpt>
      <trkpt lat="46.67102" lon="5.39832">
        <ele>214.51123</ele>
        <time>2011-09-20T15:37:05Z</time>
      </trkpt>
      <trkpt lat="46.67111" lon="5.39728">
        <ele>211.627441</ele>
        <time>2011-09-20T15:37:15Z</time>
      </trkpt>
      <trkpt lat="46.67121" lon="5.39625">
        <ele>208.743408</ele>
        <time>2011-09-20T15:37:23Z</time>
      </trkpt>
      <trkpt lat="46.67145" lon="5.39385">
        <ele>207.301392</ele>
        <time>2011-09-20T15:37:43Z</time>
      </trkpt>
      <trkpt lat="46.67158" lon="5.39268">
        <ele>210.666016</ele>
        <time>2011-09-20T15:37:55Z</time>
      </trkpt>
      <trkpt lat="46.67177" lon="5.39224">
        <ele>212.108032</ele>
        <time>2011-09-20T15:38:05Z</time>
      </trkpt>
      <trkpt lat="46.67196" lon="5.39226">
        <ele>212.588623</ele>
        <time>2011-09-20T15:38:14Z</time>
      </trkpt>
      <trkpt lat="46.67199" lon="5.39223">
        <ele>212.108032</ele>
        <time>2011-09-20T15:38:36Z</time>
      </trkpt>
      <trkpt lat="46.67201" lon="5.3922">
        <ele>211.146729</ele>
        <time>2011-09-20T15:39:28Z</time>
      </trkpt>
      <trkpt lat="46.67201" lon="5.39218">
        <ele>212.108032</ele>
        <time>2011-09-20T15:41:06Z</time>
      </trkpt>
      <trkpt lat="46.67202" lon="5.39217">
        <ele>215.953247</ele>
        <time>2011-09-20T15:45:43Z</time>
      </trkpt>
      <trkpt lat="46.67202" lon="5.39217">
        <ele>212.588623</ele>
        <time>2011-09-20T15:45:44Z</time>
      </trkpt>
      <trkpt lat="46.67216" lon="5.39199">
        <ele>212.588623</ele>
        <time>2011-09-20T15:46:08Z</time>
      </trkpt>
      <trkpt lat="46.67228" lon="5.39186">
        <ele>212.588623</ele>
        <time>2011-09-20T15:46:12Z</time>
      </trkpt>
      <trkpt lat="46.673" lon="5.39106">
        <ele>211.146729</ele>
        <time>2011-09-20T15:46:30Z</time>
      </trkpt>
      <trkpt lat="46.67377" lon="5.39023">
        <ele>207.782104</ele>
        <time>2011-09-20T15:46:45Z</time>
      </trkpt>
      <trkpt lat="46.67475" lon="5.3892">
        <ele>207.782104</ele>
        <time>2011-09-20T15:47:04Z</time>
      </trkpt>
      <trkpt lat="46.67543" lon="5.3885">
        <ele>206.340088</ele>
        <time>2011-09-20T15:47:16Z</time>
      </trkpt>
      <trkpt lat="46.6763" lon="5.3876">
        <ele>207.301392</ele>
        <time>2011-09-20T15:47:34Z</time>
      </trkpt>
      <trkpt lat="46.67701" lon="5.38684">
        <ele>210.185425</ele>
        <time>2011-09-20T15:47:52Z</time>
      </trkpt>
      <trkpt lat="46.67778" lon="5.38607">
        <ele>212.108032</ele>
        <time>2011-09-20T15:48:13Z</time>
      </trkpt>
      <trkpt lat="46.67848" lon="5.38533">
        <ele>212.588623</ele>
        <time>2011-09-20T15:48:30Z</time>
      </trkpt>
      <trkpt lat="46.67947" lon="5.38435">
        <ele>213.069336</ele>
        <time>2011-09-20T15:48:52Z</time>
      </trkpt>
      <trkpt lat="46.67955" lon="5.38427">
        <ele>213.069336</ele>
        <time>2011-09-20T15:48:54Z</time>
      </trkpt>
      <trkpt lat="46.68044" lon="5.38327">
        <ele>213.550049</ele>
        <time>2011-09-20T15:49:15Z</time>
      </trkpt>
      <trkpt lat="46.68143" lon="5.38231">
        <ele>210.185425</ele>
        <time>2011-09-20T15:49:33Z</time>
      </trkpt>
      <trkpt lat="46.68184" lon="5.38191">
        <ele>208.262817</ele>
        <time>2011-09-20T15:49:40Z</time>
      </trkpt>
      <trkpt lat="46.68304" lon="5.38065">
        <ele>207.301392</ele>
        <time>2011-09-20T15:50:01Z</time>
      </trkpt>
      <trkpt lat="46.68393" lon="5.37973">
        <ele>210.185425</ele>
        <time>2011-09-20T15:50:21Z</time>
      </trkpt>
      <trkpt lat="46.68414" lon="5.37954">
        <ele>210.185425</ele>
        <time>2011-09-20T15:50:26Z</time>
      </trkpt>
      <trkpt lat="46.68497" lon="5.3787">
        <ele>212.108032</ele>
        <time>2011-09-20T15:50:45Z</time>
      </trkpt>
      <trkpt lat="46.68593" lon="5.37767">
        <ele>212.588623</ele>
        <time>2011-09-20T15:51:06Z</time>
      </trkpt>
      <trkpt lat="46.68697" lon="5.37663">
        <ele>209.704834</ele>
        <time>2011-09-20T15:51:26Z</time>
      </trkpt>
      <trkpt lat="46.68785" lon="5.37568">
        <ele>211.146729</ele>
        <time>2011-09-20T15:51:44Z</time>
      </trkpt>
      <trkpt lat="46.68871" lon="5.37479">
        <ele>210.666016</ele>
        <time>2011-09-20T15:52:05Z</time>
      </trkpt>
      <trkpt lat="46.68923" lon="5.3743">
        <ele>208.262817</ele>
        <time>2011-09-20T15:52:21Z</time>
      </trkpt>
      <trkpt lat="46.68927" lon="5.37426">
        <ele>207.301392</ele>
        <time>2011-09-20T15:52:36Z</time>
      </trkpt>
      <trkpt lat="46.68947" lon="5.37403">
        <ele>207.301392</ele>
        <time>2011-09-20T15:52:49Z</time>
      </trkpt>
      <trkpt lat="46.69012" lon="5.37327">
        <ele>203.93689</ele>
        <time>2011-09-20T15:53:03Z</time>
      </trkpt>
      <trkpt lat="46.69027" lon="5.37307">
        <ele>203.93689</ele>
        <time>2011-09-20T15:53:06Z</time>
      </trkpt>
      <trkpt lat="46.69054" lon="5.37239">
        <ele>202.975464</ele>
        <time>2011-09-20T15:53:17Z</time>
      </trkpt>
      <trkpt lat="46.69057" lon="5.37224">
        <ele>202.014282</ele>
        <time>2011-09-20T15:53:20Z</time>
      </trkpt>
      <trkpt lat="46.69085" lon="5.37239">
        <ele>202.494873</ele>
        <time>2011-09-20T15:53:28Z</time>
      </trkpt>
      <trkpt lat="46.69156" lon="5.37315">
        <ele>201.533569</ele>
        <time>2011-09-20T15:53:44Z</time>
      </trkpt>
      <trkpt lat="46.69249" lon="5.37414">
        <ele>200.572266</ele>
        <time>2011-09-20T15:54:05Z</time>
      </trkpt>
      <trkpt lat="46.69361" lon="5.37527">
        <ele>198.168945</ele>
        <time>2011-09-20T15:54:28Z</time>
      </trkpt>
      <trkpt lat="46.69428" lon="5.37574">
        <ele>198.649536</ele>
        <time>2011-09-20T15:54:41Z</time>
      </trkpt>
      <trkpt lat="46.6948" lon="5.37608">
        <ele>200.572266</ele>
        <time>2011-09-20T15:54:56Z</time>
      </trkpt>
      <trkpt lat="46.69543" lon="5.37649">
        <ele>203.93689</ele>
        <time>2011-09-20T15:55:16Z</time>
      </trkpt>
      <trkpt lat="46.69587" lon="5.37681">
        <ele>204.41748</ele>
        <time>2011-09-20T15:55:30Z</time>
      </trkpt>
      <trkpt lat="46.69657" lon="5.37727">
        <ele>204.898071</ele>
        <time>2011-09-20T15:55:50Z</time>
      </trkpt>
      <trkpt lat="46.69733" lon="5.37776">
        <ele>202.014282</ele>
        <time>2011-09-20T15:56:04Z</time>
      </trkpt>
      <trkpt lat="46.69852" lon="5.37852">
        <ele>202.494873</ele>
        <time>2011-09-20T15:56:25Z</time>
      </trkpt>
      <trkpt lat="46.69923" lon="5.37899">
        <ele>205.378784</ele>
        <time>2011-09-20T15:56:43Z</time>
      </trkpt>
      <trkpt lat="46.69978" lon="5.37937">
        <ele>206.340088</ele>
        <time>2011-09-20T15:56:58Z</time>
      </trkpt>
      <trkpt lat="46.70023" lon="5.37989">
        <ele>206.820679</ele>
        <time>2011-09-20T15:57:11Z</time>
      </trkpt>
      <trkpt lat="46.70036" lon="5.38008">
        <ele>206.820679</ele>
        <time>2011-09-20T15:57:15Z</time>
      </trkpt>
      <trkpt lat="46.70052" lon="5.38033">
        <ele>206.820679</ele>
        <time>2011-09-20T15:57:20Z</time>
      </trkpt>
      <trkpt lat="46.701" lon="5.38114">
        <ele>204.898071</ele>
        <time>2011-09-20T15:57:33Z</time>
      </trkpt>
      <trkpt lat="46.70152" lon="5.38199">
        <ele>205.859497</ele>
        <time>2011-09-20T15:57:46Z</time>
      </trkpt>
      <trkpt lat="46.70188" lon="5.38265">
        <ele>208.743408</ele>
        <time>2011-09-20T15:57:57Z</time>
      </trkpt>
      <trkpt lat="46.70204" lon="5.38285">
        <ele>209.224121</ele>
        <time>2011-09-20T15:58:00Z</time>
      </trkpt>
      <trkpt lat="46.70252" lon="5.38359">
        <ele>211.146729</ele>
        <time>2011-09-20T15:58:15Z</time>
      </trkpt>
      <trkpt lat="46.70284" lon="5.38419">
        <ele>211.627441</ele>
        <time>2011-09-20T15:58:28Z</time>
      </trkpt>
      <trkpt lat="46.70309" lon="5.38459">
        <ele>211.146729</ele>
        <time>2011-09-20T15:58:36Z</time>
      </trkpt>
      <trkpt lat="46.7032" lon="5.38476">
        <ele>210.666016</ele>
        <time>2011-09-20T15:58:39Z</time>
      </trkpt>
      <trkpt lat="46.70369" lon="5.38552">
        <ele>208.743408</ele>
        <time>2011-09-20T15:58:50Z</time>
      </trkpt>
      <trkpt lat="46.70431" lon="5.38643">
        <ele>205.378784</ele>
        <time>2011-09-20T15:59:01Z</time>
      </trkpt>
      <trkpt lat="46.70523" lon="5.38782">
        <ele>202.494873</ele>
        <time>2011-09-20T15:59:17Z</time>
      </trkpt>
      <trkpt lat="46.70653" lon="5.38976">
        <ele>200.091675</ele>
        <time>2011-09-20T15:59:40Z</time>
      </trkpt>
      <trkpt lat="46.70752" lon="5.39129">
        <ele>197.688232</ele>
        <time>2011-09-20T16:00:01Z</time>
      </trkpt>
      <trkpt lat="46.70773" lon="5.39161">
        <ele>196.726929</ele>
        <time>2011-09-20T16:00:05Z</time>
      </trkpt>
      <trkpt lat="46.70906" lon="5.39365">
        <ele>194.32373</ele>
        <time>2011-09-20T16:00:30Z</time>
      </trkpt>
      <trkpt lat="46.70989" lon="5.39529">
        <ele>194.804321</ele>
        <time>2011-09-20T16:00:51Z</time>
      </trkpt>
      <trkpt lat="46.7104" lon="5.3966">
        <ele>195.284912</ele>
        <time>2011-09-20T16:01:06Z</time>
      </trkpt>
      <trkpt lat="46.71089" lon="5.39784">
        <ele>195.284912</ele>
        <time>2011-09-20T16:01:22Z</time>
      </trkpt>
      <trkpt lat="46.7114" lon="5.399">
        <ele>194.804321</ele>
        <time>2011-09-20T16:01:36Z</time>
      </trkpt>
      <trkpt lat="46.71192" lon="5.40026">
        <ele>195.284912</ele>
        <time>2011-09-20T16:01:53Z</time>
      </trkpt>
      <trkpt lat="46.71202" lon="5.4005">
        <ele>195.284912</ele>
        <time>2011-09-20T16:01:56Z</time>
      </trkpt>
      <trkpt lat="46.71209" lon="5.40072">
        <ele>194.804321</ele>
        <time>2011-09-20T16:01:59Z</time>
      </trkpt>
      <trkpt lat="46.71247" lon="5.40164">
        <ele>194.804321</ele>
        <time>2011-09-20T16:02:11Z</time>
      </trkpt>
      <trkpt lat="46.71309" lon="5.40318">
        <ele>195.765625</ele>
        <time>2011-09-20T16:02:31Z</time>
      </trkpt>
      <trkpt lat="46.71357" lon="5.40445">
        <ele>196.246338</ele>
        <time>2011-09-20T16:02:48Z</time>
      </trkpt>
      <trkpt lat="46.7139" lon="5.40534">
        <ele>197.688232</ele>
        <time>2011-09-20T16:03:01Z</time>
      </trkpt>
      <trkpt lat="46.71432" lon="5.4064">
        <ele>199.61084</ele>
        <time>2011-09-20T16:03:19Z</time>
      </trkpt>
      <trkpt lat="46.71447" lon="5.40672">
        <ele>200.572266</ele>
        <time>2011-09-20T16:03:30Z</time>
      </trkpt>
      <trkpt lat="46.71454" lon="5.40691">
        <ele>201.052856</ele>
        <time>2011-09-20T16:03:46Z</time>
      </trkpt>
      <trkpt lat="46.71453" lon="5.40693">
        <ele>200.572266</ele>
        <time>2011-09-20T16:04:08Z</time>
      </trkpt>
      <trkpt lat="46.71453" lon="5.40694">
        <ele>200.572266</ele>
        <time>2011-09-20T16:04:20Z</time>
      </trkpt>
      <trkpt lat="46.71436" lon="5.40709">
        <ele>198.649536</ele>
        <time>2011-09-20T16:04:30Z</time>
      </trkpt>
      <trkpt lat="46.71355" lon="5.40725">
        <ele>196.726929</ele>
        <time>2011-09-20T16:04:39Z</time>
      </trkpt>
      <trkpt lat="46.71244" lon="5.4075">
        <ele>195.284912</ele>
        <time>2011-09-20T16:04:52Z</time>
      </trkpt>
      <trkpt lat="46.71164" lon="5.40819">
        <ele>194.804321</ele>
        <time>2011-09-20T16:05:06Z</time>
      </trkpt>
      <trkpt lat="46.71089" lon="5.40891">
        <ele>195.284912</ele>
        <time>2011-09-20T16:05:23Z</time>
      </trkpt>
      <trkpt lat="46.71074" lon="5.40905">
        <ele>195.284912</ele>
        <time>2011-09-20T16:05:26Z</time>
      </trkpt>
      <trkpt lat="46.71052" lon="5.40915">
        <ele>195.284912</ele>
        <time>2011-09-20T16:05:30Z</time>
      </trkpt>
      <trkpt lat="46.71021" lon="5.40916">
        <ele>196.246338</ele>
        <time>2011-09-20T16:05:39Z</time>
      </trkpt>
      <trkpt lat="46.70993" lon="5.40918">
        <ele>197.688232</ele>
        <time>2011-09-20T16:05:47Z</time>
      </trkpt>
      <trkpt lat="46.70969" lon="5.40928">
        <ele>199.130127</ele>
        <time>2011-09-20T16:05:55Z</time>
      </trkpt>
      <trkpt lat="46.70935" lon="5.40949">
        <ele>202.494873</ele>
        <time>2011-09-20T16:06:08Z</time>
      </trkpt>
      <trkpt lat="46.70909" lon="5.40962">
        <ele>202.494873</ele>
        <time>2011-09-20T16:06:15Z</time>
      </trkpt>
      <trkpt lat="46.70859" lon="5.40999">
        <ele>201.533569</ele>
        <time>2011-09-20T16:06:26Z</time>
      </trkpt>
      <trkpt lat="46.70754" lon="5.41052">
        <ele>202.975464</ele>
        <time>2011-09-20T16:06:40Z</time>
      </trkpt>
      <trkpt lat="46.70718" lon="5.41077">
        <ele>203.93689</ele>
        <time>2011-09-20T16:06:47Z</time>
      </trkpt>
      <trkpt lat="46.70698" lon="5.41128">
        <ele>205.378784</ele>
        <time>2011-09-20T16:06:56Z</time>
      </trkpt>
      <trkpt lat="46.70732" lon="5.41237">
        <ele>204.898071</ele>
        <time>2011-09-20T16:07:14Z</time>
      </trkpt>
      <trkpt lat="46.70775" lon="5.41347">
        <ele>201.533569</ele>
        <time>2011-09-20T16:07:28Z</time>
      </trkpt>
      <trkpt lat="46.70795" lon="5.41395">
        <ele>199.130127</ele>
        <time>2011-09-20T16:07:33Z</time>
      </trkpt>
      <trkpt lat="46.70816" lon="5.41447">
        <ele>197.688232</ele>
        <time>2011-09-20T16:07:38Z</time>
      </trkpt>
      <trkpt lat="46.70848" lon="5.41502">
        <ele>196.246338</ele>
        <time>2011-09-20T16:07:44Z</time>
      </trkpt>
      <trkpt lat="46.70876" lon="5.41545">
        <ele>195.284912</ele>
        <time>2011-09-20T16:07:49Z</time>
      </trkpt>
      <trkpt lat="46.70892" lon="5.41597">
        <ele>194.32373</ele>
        <time>2011-09-20T16:07:54Z</time>
      </trkpt>
      <trkpt lat="46.709" lon="5.41739">
        <ele>193.843018</ele>
        <time>2011-09-20T16:08:08Z</time>
      </trkpt>
      <trkpt lat="46.70875" lon="5.41868">
        <ele>194.32373</ele>
        <time>2011-09-20T16:08:23Z</time>
      </trkpt>
      <trkpt lat="46.70834" lon="5.42086">
        <ele>196.726929</ele>
        <time>2011-09-20T16:08:50Z</time>
      </trkpt>
      <trkpt lat="46.70801" lon="5.4217">
        <ele>197.20752</ele>
        <time>2011-09-20T16:09:05Z</time>
      </trkpt>
      <trkpt lat="46.70769" lon="5.42244">
        <ele>199.130127</ele>
        <time>2011-09-20T16:09:20Z</time>
      </trkpt>
      <trkpt lat="46.70726" lon="5.42344">
        <ele>202.014282</ele>
        <time>2011-09-20T16:09:41Z</time>
      </trkpt>
      <trkpt lat="46.70673" lon="5.42466">
        <ele>200.091675</ele>
        <time>2011-09-20T16:10:00Z</time>
      </trkpt>
      <trkpt lat="46.70629" lon="5.4257">
        <ele>198.649536</ele>
        <time>2011-09-20T16:10:17Z</time>
      </trkpt>
      <trkpt lat="46.70659" lon="5.42621">
        <ele>199.130127</ele>
        <time>2011-09-20T16:10:29Z</time>
      </trkpt>
      <trkpt lat="46.70737" lon="5.42736">
        <ele>198.168945</ele>
        <time>2011-09-20T16:10:51Z</time>
      </trkpt>
      <trkpt lat="46.7082" lon="5.42862">
        <ele>196.726929</ele>
        <time>2011-09-20T16:11:12Z</time>
      </trkpt>
      <trkpt lat="46.70909" lon="5.42997">
        <ele>194.804321</ele>
        <time>2011-09-20T16:11:33Z</time>
      </trkpt>
      <trkpt lat="46.70913" lon="5.43004">
        <ele>194.804321</ele>
        <time>2011-09-20T16:11:34Z</time>
      </trkpt>
      <trkpt lat="46.70983" lon="5.43105">
        <ele>195.284912</ele>
        <time>2011-09-20T16:11:51Z</time>
      </trkpt>
      <trkpt lat="46.7102" lon="5.43159">
        <ele>195.765625</ele>
        <time>2011-09-20T16:12:00Z</time>
      </trkpt>
      <trkpt lat="46.71026" lon="5.43173">
        <ele>195.765625</ele>
        <time>2011-09-20T16:12:02Z</time>
      </trkpt>
      <trkpt lat="46.71031" lon="5.4321">
        <ele>196.246338</ele>
        <time>2011-09-20T16:12:07Z</time>
      </trkpt>
      <trkpt lat="46.71029" lon="5.43223">
        <ele>196.726929</ele>
        <time>2011-09-20T16:12:09Z</time>
      </trkpt>
      <trkpt lat="46.71024" lon="5.43313">
        <ele>199.130127</ele>
        <time>2011-09-20T16:12:24Z</time>
      </trkpt>
      <trkpt lat="46.71021" lon="5.43354">
        <ele>199.61084</ele>
        <time>2011-09-20T16:12:34Z</time>
      </trkpt>
      <trkpt lat="46.71017" lon="5.43393">
        <ele>201.052856</ele>
        <time>2011-09-20T16:12:44Z</time>
      </trkpt>
      <trkpt lat="46.71009" lon="5.4345">
        <ele>202.494873</ele>
        <time>2011-09-20T16:12:58Z</time>
      </trkpt>
      <trkpt lat="46.71001" lon="5.43529">
        <ele>204.898071</ele>
        <time>2011-09-20T16:13:15Z</time>
      </trkpt>
      <trkpt lat="46.70996" lon="5.43601">
        <ele>206.820679</ele>
        <time>2011-09-20T16:13:33Z</time>
      </trkpt>
      <trkpt lat="46.70992" lon="5.43645">
        <ele>208.262817</ele>
        <time>2011-09-20T16:13:49Z</time>
      </trkpt>
      <trkpt lat="46.70986" lon="5.43713">
        <ele>210.666016</ele>
        <time>2011-09-20T16:14:06Z</time>
      </trkpt>
      <trkpt lat="46.70979" lon="5.4378">
        <ele>212.588623</ele>
        <time>2011-09-20T16:14:22Z</time>
      </trkpt>
      <trkpt lat="46.70972" lon="5.43851">
        <ele>213.550049</ele>
        <time>2011-09-20T16:14:39Z</time>
      </trkpt>
      <trkpt lat="46.70964" lon="5.43935">
        <ele>214.51123</ele>
        <time>2011-09-20T16:14:55Z</time>
      </trkpt>
      <trkpt lat="46.70947" lon="5.44072">
        <ele>214.03064</ele>
        <time>2011-09-20T16:15:16Z</time>
      </trkpt>
      <trkpt lat="46.7093" lon="5.44186">
        <ele>213.069336</ele>
        <time>2011-09-20T16:15:29Z</time>
      </trkpt>
      <trkpt lat="46.70945" lon="5.44332">
        <ele>212.588623</ele>
        <time>2011-09-20T16:15:50Z</time>
      </trkpt>
      <trkpt lat="46.70969" lon="5.44449">
        <ele>214.03064</ele>
        <time>2011-09-20T16:16:10Z</time>
      </trkpt>
      <trkpt lat="46.70969" lon="5.44537">
        <ele>214.51123</ele>
        <time>2011-09-20T16:16:27Z</time>
      </trkpt>
      <trkpt lat="46.70962" lon="5.44552">
        <ele>214.03064</ele>
        <time>2011-09-20T16:16:43Z</time>
      </trkpt>
      <trkpt lat="46.70963" lon="5.44554">
        <ele>214.03064</ele>
        <time>2011-09-20T16:17:04Z</time>
      </trkpt>
      <trkpt lat="46.70962" lon="5.44555">
        <ele>214.03064</ele>
        <time>2011-09-20T16:17:56Z</time>
      </trkpt>
      <trkpt lat="46.70956" lon="5.44561">
        <ele>213.550049</ele>
        <time>2011-09-20T16:18:09Z</time>
      </trkpt>
      <trkpt lat="46.70938" lon="5.44571">
        <ele>214.03064</ele>
        <time>2011-09-20T16:18:32Z</time>
      </trkpt>
      <trkpt lat="46.70907" lon="5.44601">
        <ele>214.51123</ele>
        <time>2011-09-20T16:18:47Z</time>
      </trkpt>
      <trkpt lat="46.70851" lon="5.44664">
        <ele>214.03064</ele>
        <time>2011-09-20T16:19:06Z</time>
      </trkpt>
      <trkpt lat="46.70803" lon="5.44732">
        <ele>213.550049</ele>
        <time>2011-09-20T16:19:21Z</time>
      </trkpt>
      <trkpt lat="46.70774" lon="5.44833">
        <ele>213.550049</ele>
        <time>2011-09-20T16:19:38Z</time>
      </trkpt>
      <trkpt lat="46.70763" lon="5.44962">
        <ele>210.185425</ele>
        <time>2011-09-20T16:19:53Z</time>
      </trkpt>
      <trkpt lat="46.70757" lon="5.45048">
        <ele>209.704834</ele>
        <time>2011-09-20T16:20:02Z</time>
      </trkpt>
      <trkpt lat="46.70768" lon="5.45159">
        <ele>212.588623</ele>
        <time>2011-09-20T16:20:19Z</time>
      </trkpt>
      <trkpt lat="46.70792" lon="5.45307">
        <ele>212.588623</ele>
        <time>2011-09-20T16:20:42Z</time>
      </trkpt>
      <trkpt lat="46.70812" lon="5.45441">
        <ele>212.588623</ele>
        <time>2011-09-20T16:21:02Z</time>
      </trkpt>
      <trkpt lat="46.70828" lon="5.45548">
        <ele>212.588623</ele>
        <time>2011-09-20T16:21:19Z</time>
      </trkpt>
      <trkpt lat="46.70829" lon="5.45554">
        <ele>213.069336</ele>
        <time>2011-09-20T16:21:20Z</time>
      </trkpt>
      <trkpt lat="46.70827" lon="5.4563">
        <ele>214.991943</ele>
        <time>2011-09-20T16:21:35Z</time>
      </trkpt>
      <trkpt lat="46.70807" lon="5.45725">
        <ele>213.550049</ele>
        <time>2011-09-20T16:21:50Z</time>
      </trkpt>
      <trkpt lat="46.70765" lon="5.45909">
        <ele>211.146729</ele>
        <time>2011-09-20T16:22:12Z</time>
      </trkpt>
      <trkpt lat="46.70753" lon="5.45997">
        <ele>211.146729</ele>
        <time>2011-09-20T16:22:28Z</time>
      </trkpt>
      <trkpt lat="46.70738" lon="5.46068">
        <ele>211.146729</ele>
        <time>2011-09-20T16:22:49Z</time>
      </trkpt>
      <trkpt lat="46.70738" lon="5.46072">
        <ele>211.146729</ele>
        <time>2011-09-20T16:23:01Z</time>
      </trkpt>
      <trkpt lat="46.70735" lon="5.46068">
        <ele>210.666016</ele>
        <time>2011-09-20T16:23:19Z</time>
      </trkpt>
      <trkpt lat="46.70735" lon="5.46077">
        <ele>211.146729</ele>
        <time>2011-09-20T16:23:46Z</time>
      </trkpt>
      <trkpt lat="46.70733" lon="5.4608">
        <ele>211.146729</ele>
        <time>2011-09-20T16:24:03Z</time>
      </trkpt>
      <trkpt lat="46.70736" lon="5.46086">
        <ele>210.666016</ele>
        <time>2011-09-20T16:24:41Z</time>
      </trkpt>
      <trkpt lat="46.70737" lon="5.46091">
        <ele>210.666016</ele>
        <time>2011-09-20T16:25:02Z</time>
      </trkpt>
      <trkpt lat="46.70731" lon="5.46104">
        <ele>210.666016</ele>
        <time>2011-09-20T16:25:22Z</time>
      </trkpt>
      <trkpt lat="46.70728" lon="5.46103">
        <ele>210.666016</ele>
        <time>2011-09-20T16:26:29Z</time>
      </trkpt>
      <trkpt lat="46.70727" lon="5.46106">
        <ele>211.146729</ele>
        <time>2011-09-20T16:27:08Z</time>
      </trkpt>
      <trkpt lat="46.70732" lon="5.46105">
        <ele>210.666016</ele>
        <time>2011-09-20T16:27:31Z</time>
      </trkpt>
      <trkpt lat="46.70732" lon="5.46105">
        <ele>210.666016</ele>
        <time>2011-09-20T16:28:19Z</time>
      </trkpt>
      <trkpt lat="46.70733" lon="5.46104">
        <ele>210.666016</ele>
        <time>2011-09-20T16:28:37Z</time>
      </trkpt>
      <trkpt lat="46.70733" lon="5.46104">
        <ele>210.185425</ele>
        <time>2011-09-20T16:29:20Z</time>
      </trkpt>
      <trkpt lat="46.70736" lon="5.46103">
        <ele>210.185425</ele>
        <time>2011-09-20T16:29:39Z</time>
      </trkpt>
      <trkpt lat="46.70738" lon="5.46102">
        <ele>210.666016</ele>
        <time>2011-09-20T16:29:41Z</time>
      </trkpt>
      <trkpt lat="46.70747" lon="5.4611">
        <ele>210.666016</ele>
        <time>2011-09-20T16:29:47Z</time>
      </trkpt>
      <trkpt lat="46.70776" lon="5.46178">
        <ele>210.666016</ele>
        <time>2011-09-20T16:30:05Z</time>
      </trkpt>
      <trkpt lat="46.70809" lon="5.46255">
        <ele>210.666016</ele>
        <time>2011-09-20T16:30:25Z</time>
      </trkpt>
      <trkpt lat="46.70857" lon="5.46363">
        <ele>210.666016</ele>
        <time>2011-09-20T16:30:46Z</time>
      </trkpt>
      <trkpt lat="46.70915" lon="5.46495">
        <ele>212.588623</ele>
        <time>2011-09-20T16:31:12Z</time>
      </trkpt>
      <trkpt lat="46.70966" lon="5.4661">
        <ele>212.588623</ele>
        <time>2011-09-20T16:31:32Z</time>
      </trkpt>
      <trkpt lat="46.71014" lon="5.4672">
        <ele>213.550049</ele>
        <time>2011-09-20T16:31:50Z</time>
      </trkpt>
      <trkpt lat="46.71028" lon="5.46758">
        <ele>214.51123</ele>
        <time>2011-09-20T16:32:03Z</time>
      </trkpt>
      <trkpt lat="46.71002" lon="5.46781">
        <ele>214.991943</ele>
        <time>2011-09-20T16:32:14Z</time>
      </trkpt>
      <trkpt lat="46.70964" lon="5.46806">
        <ele>214.991943</ele>
        <time>2011-09-20T16:32:25Z</time>
      </trkpt>
      <trkpt lat="46.70914" lon="5.46884">
        <ele>215.472656</ele>
        <time>2011-09-20T16:32:43Z</time>
      </trkpt>
      <trkpt lat="46.70868" lon="5.46996">
        <ele>214.991943</ele>
        <time>2011-09-20T16:33:03Z</time>
      </trkpt>
      <trkpt lat="46.708" lon="5.47125">
        <ele>214.991943</ele>
        <time>2011-09-20T16:33:26Z</time>
      </trkpt>
      <trkpt lat="46.70762" lon="5.4725">
        <ele>216.43396</ele>
        <time>2011-09-20T16:33:47Z</time>
      </trkpt>
      <trkpt lat="46.70764" lon="5.47372">
        <ele>217.395386</ele>
        <time>2011-09-20T16:34:06Z</time>
      </trkpt>
      <trkpt lat="46.70804" lon="5.47502">
        <ele>217.395386</ele>
        <time>2011-09-20T16:34:30Z</time>
      </trkpt>
      <trkpt lat="46.7085" lon="5.47644">
        <ele>215.472656</ele>
        <time>2011-09-20T16:34:54Z</time>
      </trkpt>
      <trkpt lat="46.70892" lon="5.47769">
        <ele>212.588623</ele>
        <time>2011-09-20T16:35:12Z</time>
      </trkpt>
      <trkpt lat="46.70922" lon="5.4786">
        <ele>209.224121</ele>
        <time>2011-09-20T16:35:23Z</time>
      </trkpt>
      <trkpt lat="46.7095" lon="5.47946">
        <ele>205.859497</ele>
        <time>2011-09-20T16:35:32Z</time>
      </trkpt>
      <trkpt lat="46.70956" lon="5.47962">
        <ele>205.378784</ele>
        <time>2011-09-20T16:35:34Z</time>
      </trkpt>
      <trkpt lat="46.70971" lon="5.48012">
        <ele>204.41748</ele>
        <time>2011-09-20T16:35:45Z</time>
      </trkpt>
      <trkpt lat="46.70972" lon="5.48018">
        <ele>204.41748</ele>
        <time>2011-09-20T16:36:10Z</time>
      </trkpt>
      <trkpt lat="46.70993" lon="5.48024">
        <ele>204.898071</ele>
        <time>2011-09-20T16:36:21Z</time>
      </trkpt>
      <trkpt lat="46.71087" lon="5.47963">
        <ele>203.456177</ele>
        <time>2011-09-20T16:36:40Z</time>
      </trkpt>
      <trkpt lat="46.7119" lon="5.47891">
        <ele>202.014282</ele>
        <time>2011-09-20T16:37:00Z</time>
      </trkpt>
      <trkpt lat="46.71277" lon="5.47831">
        <ele>201.052856</ele>
        <time>2011-09-20T16:37:19Z</time>
      </trkpt>
      <trkpt lat="46.71339" lon="5.47773">
        <ele>201.052856</ele>
        <time>2011-09-20T16:37:35Z</time>
      </trkpt>
      <trkpt lat="46.71388" lon="5.47711">
        <ele>201.533569</ele>
        <time>2011-09-20T16:37:51Z</time>
      </trkpt>
      <trkpt lat="46.71419" lon="5.47712">
        <ele>201.052856</ele>
        <time>2011-09-20T16:37:58Z</time>
      </trkpt>
      <trkpt lat="46.71435" lon="5.47713">
        <ele>200.091675</ele>
        <time>2011-09-20T16:38:01Z</time>
      </trkpt>
      <trkpt lat="46.71505" lon="5.47671">
        <ele>199.61084</ele>
        <time>2011-09-20T16:38:14Z</time>
      </trkpt>
      <trkpt lat="46.7162" lon="5.47589">
        <ele>199.130127</ele>
        <time>2011-09-20T16:38:36Z</time>
      </trkpt>
      <trkpt lat="46.71648" lon="5.47583">
        <ele>199.61084</ele>
        <time>2011-09-20T16:38:41Z</time>
      </trkpt>
      <trkpt lat="46.71659" lon="5.47584">
        <ele>199.61084</ele>
        <time>2011-09-20T16:38:43Z</time>
      </trkpt>
      <trkpt lat="46.71682" lon="5.47583">
        <ele>199.61084</ele>
        <time>2011-09-20T16:38:48Z</time>
      </trkpt>
      <trkpt lat="46.71718" lon="5.47574">
        <ele>199.130127</ele>
        <time>2011-09-20T16:38:56Z</time>
      </trkpt>
      <trkpt lat="46.71747" lon="5.47604">
        <ele>197.688232</ele>
        <time>2011-09-20T16:39:04Z</time>
      </trkpt>
      <trkpt lat="46.71753" lon="5.47623">
        <ele>196.726929</ele>
        <time>2011-09-20T16:39:06Z</time>
      </trkpt>
      <trkpt lat="46.71777" lon="5.47646">
        <ele>196.246338</ele>
        <time>2011-09-20T16:39:10Z</time>
      </trkpt>
      <trkpt lat="46.71875" lon="5.47664">
        <ele>195.284912</ele>
        <time>2011-09-20T16:39:24Z</time>
      </trkpt>
      <trkpt lat="46.71985" lon="5.47653">
        <ele>194.804321</ele>
        <time>2011-09-20T16:39:41Z</time>
      </trkpt>
      <trkpt lat="46.72091" lon="5.47644">
        <ele>193.843018</ele>
        <time>2011-09-20T16:40:00Z</time>
      </trkpt>
      <trkpt lat="46.72199" lon="5.47634">
        <ele>192.881714</ele>
        <time>2011-09-20T16:40:19Z</time>
      </trkpt>
      <trkpt lat="46.72271" lon="5.47629">
        <ele>192.881714</ele>
        <time>2011-09-20T16:40:32Z</time>
      </trkpt>
      <trkpt lat="46.72349" lon="5.47659">
        <ele>192.881714</ele>
        <time>2011-09-20T16:40:48Z</time>
      </trkpt>
      <trkpt lat="46.72438" lon="5.47694">
        <ele>193.362305</ele>
        <time>2011-09-20T16:41:05Z</time>
      </trkpt>
      <trkpt lat="46.72556" lon="5.47758">
        <ele>193.843018</ele>
        <time>2011-09-20T16:41:26Z</time>
      </trkpt>
      <trkpt lat="46.72661" lon="5.47836">
        <ele>193.362305</ele>
        <time>2011-09-20T16:41:47Z</time>
      </trkpt>
      <trkpt lat="46.72717" lon="5.47878">
        <ele>192.881714</ele>
        <time>2011-09-20T16:42:03Z</time>
      </trkpt>
      <trkpt lat="46.72719" lon="5.4788">
        <ele>192.401123</ele>
        <time>2011-09-20T16:42:32Z</time>
      </trkpt>
      <trkpt lat="46.72736" lon="5.47892">
        <ele>193.362305</ele>
        <time>2011-09-20T16:42:46Z</time>
      </trkpt>
      <trkpt lat="46.72799" lon="5.47936">
        <ele>193.843018</ele>
        <time>2011-09-20T16:43:01Z</time>
      </trkpt>
      <trkpt lat="46.72881" lon="5.47996">
        <ele>193.843018</ele>
        <time>2011-09-20T16:43:14Z</time>
      </trkpt>
      <trkpt lat="46.72955" lon="5.48051">
        <ele>193.843018</ele>
        <time>2011-09-20T16:43:30Z</time>
      </trkpt>
      <trkpt lat="46.7303" lon="5.48107">
        <ele>193.843018</ele>
        <time>2011-09-20T16:43:48Z</time>
      </trkpt>
      <trkpt lat="46.73116" lon="5.48146">
        <ele>194.32373</ele>
        <time>2011-09-20T16:44:06Z</time>
      </trkpt>
      <trkpt lat="46.73258" lon="5.48204">
        <ele>194.804321</ele>
        <time>2011-09-20T16:44:34Z</time>
      </trkpt>
      <trkpt lat="46.73405" lon="5.48266">
        <ele>194.804321</ele>
        <time>2011-09-20T16:45:02Z</time>
      </trkpt>
      <trkpt lat="46.73531" lon="5.48339">
        <ele>195.284912</ele>
        <time>2011-09-20T16:45:26Z</time>
      </trkpt>
      <trkpt lat="46.73661" lon="5.48422">
        <ele>195.765625</ele>
        <time>2011-09-20T16:45:52Z</time>
      </trkpt>
      <trkpt lat="46.73802" lon="5.48517">
        <ele>196.246338</ele>
        <time>2011-09-20T16:46:21Z</time>
      </trkpt>
      <trkpt lat="46.73935" lon="5.48604">
        <ele>196.246338</ele>
        <time>2011-09-20T16:46:48Z</time>
      </trkpt>
      <trkpt lat="46.73958" lon="5.48608">
        <ele>195.765625</ele>
        <time>2011-09-20T16:46:52Z</time>
      </trkpt>
      <trkpt lat="46.74038" lon="5.48562">
        <ele>195.765625</ele>
        <time>2011-09-20T16:47:07Z</time>
      </trkpt>
      <trkpt lat="46.74141" lon="5.48489">
        <ele>195.765625</ele>
        <time>2011-09-20T16:47:27Z</time>
      </trkpt>
      <trkpt lat="46.74186" lon="5.48504">
        <ele>196.246338</ele>
        <time>2011-09-20T16:47:36Z</time>
      </trkpt>
      <trkpt lat="46.74192" lon="5.48518">
        <ele>195.765625</ele>
        <time>2011-09-20T16:47:38Z</time>
      </trkpt>
      <trkpt lat="46.74213" lon="5.48607">
        <ele>195.765625</ele>
        <time>2011-09-20T16:47:49Z</time>
      </trkpt>
      <trkpt lat="46.74225" lon="5.48772">
        <ele>196.246338</ele>
        <time>2011-09-20T16:48:05Z</time>
      </trkpt>
      <trkpt lat="46.74268" lon="5.48903">
        <ele>196.246338</ele>
        <time>2011-09-20T16:48:19Z</time>
      </trkpt>
      <trkpt lat="46.74332" lon="5.49025">
        <ele>196.726929</ele>
        <time>2011-09-20T16:48:35Z</time>
      </trkpt>
      <trkpt lat="46.74375" lon="5.49141">
        <ele>196.246338</ele>
        <time>2011-09-20T16:48:50Z</time>
      </trkpt>
      <trkpt lat="46.74413" lon="5.49244">
        <ele>197.20752</ele>
        <time>2011-09-20T16:49:05Z</time>
      </trkpt>
      <trkpt lat="46.74425" lon="5.49307">
        <ele>197.688232</ele>
        <time>2011-09-20T16:49:19Z</time>
      </trkpt>
      <trkpt lat="46.74417" lon="5.49359">
        <ele>197.688232</ele>
        <time>2011-09-20T16:49:29Z</time>
      </trkpt>
      <trkpt lat="46.74416" lon="5.49386">
        <ele>197.688232</ele>
        <time>2011-09-20T16:49:33Z</time>
      </trkpt>
      <trkpt lat="46.74417" lon="5.494">
        <ele>197.688232</ele>
        <time>2011-09-20T16:49:35Z</time>
      </trkpt>
      <trkpt lat="46.74429" lon="5.49441">
        <ele>197.688232</ele>
        <time>2011-09-20T16:49:42Z</time>
      </trkpt>
      <trkpt lat="46.74465" lon="5.49508">
        <ele>197.20752</ele>
        <time>2011-09-20T16:50:02Z</time>
      </trkpt>
      <trkpt lat="46.74475" lon="5.49519">
        <ele>197.688232</ele>
        <time>2011-09-20T16:50:16Z</time>
      </trkpt>
      <trkpt lat="46.74478" lon="5.49521">
        <ele>198.168945</ele>
        <time>2011-09-20T16:50:18Z</time>
      </trkpt>
      <trkpt lat="46.74479" lon="5.49531">
        <ele>198.168945</ele>
        <time>2011-09-20T16:50:23Z</time>
      </trkpt>
      <trkpt lat="46.7447" lon="5.49567">
        <ele>198.649536</ele>
        <time>2011-09-20T16:50:40Z</time>
      </trkpt>
      <trkpt lat="46.74453" lon="5.49626">
        <ele>198.649536</ele>
        <time>2011-09-20T16:50:53Z</time>
      </trkpt>
      <trkpt lat="46.7444" lon="5.49646">
        <ele>198.649536</ele>
        <time>2011-09-20T16:50:58Z</time>
      </trkpt>
      <trkpt lat="46.74376" lon="5.49688">
        <ele>199.130127</ele>
        <time>2011-09-20T16:51:14Z</time>
      </trkpt>
      <trkpt lat="46.74334" lon="5.49698">
        <ele>198.649536</ele>
        <time>2011-09-20T16:51:23Z</time>
      </trkpt>
      <trkpt lat="46.74323" lon="5.49728">
        <ele>198.649536</ele>
        <time>2011-09-20T16:51:29Z</time>
      </trkpt>
      <trkpt lat="46.74352" lon="5.4982">
        <ele>198.649536</ele>
        <time>2011-09-20T16:51:42Z</time>
      </trkpt>
      <trkpt lat="46.74381" lon="5.49964">
        <ele>198.649536</ele>
        <time>2011-09-20T16:52:01Z</time>
      </trkpt>
      <trkpt lat="46.74383" lon="5.49979">
        <ele>198.649536</ele>
        <time>2011-09-20T16:52:03Z</time>
      </trkpt>
      <trkpt lat="46.74384" lon="5.49994">
        <ele>199.130127</ele>
        <time>2011-09-20T16:52:05Z</time>
      </trkpt>
      <trkpt lat="46.74377" lon="5.50014">
        <ele>199.130127</ele>
        <time>2011-09-20T16:52:08Z</time>
      </trkpt>
      <trkpt lat="46.74361" lon="5.50047">
        <ele>198.649536</ele>
        <time>2011-09-20T16:52:13Z</time>
      </trkpt>
      <trkpt lat="46.74295" lon="5.50173">
        <ele>199.61084</ele>
        <time>2011-09-20T16:52:33Z</time>
      </trkpt>
      <trkpt lat="46.74225" lon="5.50328">
        <ele>199.130127</ele>
        <time>2011-09-20T16:52:56Z</time>
      </trkpt>
      <trkpt lat="46.74164" lon="5.5049">
        <ele>200.091675</ele>
        <time>2011-09-20T16:53:18Z</time>
      </trkpt>
      <trkpt lat="46.7415" lon="5.50624">
        <ele>202.975464</ele>
        <time>2011-09-20T16:53:39Z</time>
      </trkpt>
      <trkpt lat="46.74176" lon="5.50733">
        <ele>205.859497</ele>
        <time>2011-09-20T16:53:58Z</time>
      </trkpt>
      <trkpt lat="46.74208" lon="5.50869">
        <ele>207.782104</ele>
        <time>2011-09-20T16:54:21Z</time>
      </trkpt>
      <trkpt lat="46.74234" lon="5.50973">
        <ele>210.666016</ele>
        <time>2011-09-20T16:54:37Z</time>
      </trkpt>
      <trkpt lat="46.74262" lon="5.51039">
        <ele>214.03064</ele>
        <time>2011-09-20T16:54:49Z</time>
      </trkpt>
      <trkpt lat="46.74267" lon="5.51057">
        <ele>214.991943</ele>
        <time>2011-09-20T16:54:52Z</time>
      </trkpt>
      <trkpt lat="46.74269" lon="5.51083">
        <ele>215.472656</ele>
        <time>2011-09-20T16:54:56Z</time>
      </trkpt>
      <trkpt lat="46.74267" lon="5.51236">
        <ele>214.03064</ele>
        <time>2011-09-20T16:55:16Z</time>
      </trkpt>
      <trkpt lat="46.74273" lon="5.514">
        <ele>215.953247</ele>
        <time>2011-09-20T16:55:37Z</time>
      </trkpt>
      <trkpt lat="46.74273" lon="5.51532">
        <ele>217.875977</ele>
        <time>2011-09-20T16:55:56Z</time>
      </trkpt>
      <trkpt lat="46.74287" lon="5.51569">
        <ele>218.83728</ele>
        <time>2011-09-20T16:56:02Z</time>
      </trkpt>
      <trkpt lat="46.74335" lon="5.51642">
        <ele>221.721191</ele>
        <time>2011-09-20T16:56:16Z</time>
      </trkpt>
      <trkpt lat="46.74339" lon="5.51648">
        <ele>222.201782</ele>
        <time>2011-09-20T16:56:17Z</time>
      </trkpt>
      <trkpt lat="46.74404" lon="5.51713">
        <ele>224.605225</ele>
        <time>2011-09-20T16:56:33Z</time>
      </trkpt>
      <trkpt lat="46.74513" lon="5.51795">
        <ele>227.008545</ele>
        <time>2011-09-20T16:56:54Z</time>
      </trkpt>
      <trkpt lat="46.746" lon="5.51843">
        <ele>227.489136</ele>
        <time>2011-09-20T16:57:10Z</time>
      </trkpt>
      <trkpt lat="46.74686" lon="5.51899">
        <ele>226.527832</ele>
        <time>2011-09-20T16:57:25Z</time>
      </trkpt>
      <trkpt lat="46.74755" lon="5.51984">
        <ele>225.566528</ele>
        <time>2011-09-20T16:57:39Z</time>
      </trkpt>
      <trkpt lat="46.74853" lon="5.5205">
        <ele>224.605225</ele>
        <time>2011-09-20T16:57:57Z</time>
      </trkpt>
      <trkpt lat="46.74946" lon="5.52103">
        <ele>221.240601</ele>
        <time>2011-09-20T16:58:12Z</time>
      </trkpt>
      <trkpt lat="46.75037" lon="5.52156">
        <ele>221.240601</ele>
        <time>2011-09-20T16:58:26Z</time>
      </trkpt>
      <trkpt lat="46.75054" lon="5.52177">
        <ele>221.240601</ele>
        <time>2011-09-20T16:58:30Z</time>
      </trkpt>
      <trkpt lat="46.75062" lon="5.52194">
        <ele>221.721191</ele>
        <time>2011-09-20T16:58:33Z</time>
      </trkpt>
      <trkpt lat="46.75067" lon="5.52209">
        <ele>221.721191</ele>
        <time>2011-09-20T16:58:36Z</time>
      </trkpt>
      <trkpt lat="46.75073" lon="5.52233">
        <ele>222.682495</ele>
        <time>2011-09-20T16:58:41Z</time>
      </trkpt>
      <trkpt lat="46.75127" lon="5.52318">
        <ele>224.124512</ele>
        <time>2011-09-20T16:58:57Z</time>
      </trkpt>
      <trkpt lat="46.75207" lon="5.52402">
        <ele>224.605225</ele>
        <time>2011-09-20T16:59:16Z</time>
      </trkpt>
      <trkpt lat="46.75275" lon="5.52449">
        <ele>223.163208</ele>
        <time>2011-09-20T16:59:28Z</time>
      </trkpt>
      <trkpt lat="46.75351" lon="5.52513">
        <ele>221.721191</ele>
        <time>2011-09-20T16:59:40Z</time>
      </trkpt>
      <trkpt lat="46.75398" lon="5.52551">
        <ele>225.085938</ele>
        <time>2011-09-20T16:59:48Z</time>
      </trkpt>
      <trkpt lat="46.75432" lon="5.52589">
        <ele>228.450439</ele>
        <time>2011-09-20T16:59:54Z</time>
      </trkpt>
      <trkpt lat="46.75479" lon="5.52636">
        <ele>231.334351</ele>
        <time>2011-09-20T17:00:02Z</time>
      </trkpt>
      <trkpt lat="46.75556" lon="5.5269">
        <ele>228.931152</ele>
        <time>2011-09-20T17:00:16Z</time>
      </trkpt>
      <trkpt lat="46.75624" lon="5.52738">
        <ele>226.527832</ele>
        <time>2011-09-20T17:00:26Z</time>
      </trkpt>
      <trkpt lat="46.7569" lon="5.5282">
        <ele>224.124512</ele>
        <time>2011-09-20T17:00:38Z</time>
      </trkpt>
      <trkpt lat="46.75769" lon="5.52899">
        <ele>227.489136</ele>
        <time>2011-09-20T17:00:53Z</time>
      </trkpt>
      <trkpt lat="46.75773" lon="5.52904">
        <ele>227.969727</ele>
        <time>2011-09-20T17:00:54Z</time>
      </trkpt>
      <trkpt lat="46.75787" lon="5.52936">
        <ele>227.969727</ele>
        <time>2011-09-20T17:00:59Z</time>
      </trkpt>
      <trkpt lat="46.75804" lon="5.53021">
        <ele>226.527832</ele>
        <time>2011-09-20T17:01:11Z</time>
      </trkpt>
      <trkpt lat="46.7584" lon="5.53057">
        <ele>223.163208</ele>
        <time>2011-09-20T17:01:18Z</time>
      </trkpt>
      <trkpt lat="46.75897" lon="5.53059">
        <ele>218.83728</ele>
        <time>2011-09-20T17:01:24Z</time>
      </trkpt>
      <trkpt lat="46.75936" lon="5.53061">
        <ele>215.472656</ele>
        <time>2011-09-20T17:01:28Z</time>
      </trkpt>
      <trkpt lat="46.75981" lon="5.53063">
        <ele>212.108032</ele>
        <time>2011-09-20T17:01:33Z</time>
      </trkpt>
      <trkpt lat="46.75989" lon="5.53064">
        <ele>212.108032</ele>
        <time>2011-09-20T17:01:34Z</time>
      </trkpt>
      <trkpt lat="46.76028" lon="5.53075">
        <ele>209.224121</ele>
        <time>2011-09-20T17:01:42Z</time>
      </trkpt>
      <trkpt lat="46.76035" lon="5.53083">
        <ele>208.262817</ele>
        <time>2011-09-20T17:01:46Z</time>
      </trkpt>
      <trkpt lat="46.76024" lon="5.53123">
        <ele>209.704834</ele>
        <time>2011-09-20T17:01:55Z</time>
      </trkpt>
      <trkpt lat="46.76022" lon="5.53129">
        <ele>209.704834</ele>
        <time>2011-09-20T17:01:56Z</time>
      </trkpt>
      <trkpt lat="46.75999" lon="5.53242">
        <ele>210.185425</ele>
        <time>2011-09-20T17:02:11Z</time>
      </trkpt>
      <trkpt lat="46.75985" lon="5.53423">
        <ele>211.146729</ele>
        <time>2011-09-20T17:02:33Z</time>
      </trkpt>
      <trkpt lat="46.75981" lon="5.53533">
        <ele>214.03064</ele>
        <time>2011-09-20T17:02:48Z</time>
      </trkpt>
      <trkpt lat="46.75975" lon="5.53561">
        <ele>214.991943</ele>
        <time>2011-09-20T17:02:52Z</time>
      </trkpt>
      <trkpt lat="46.75974" lon="5.53635">
        <ele>216.43396</ele>
        <time>2011-09-20T17:03:02Z</time>
      </trkpt>
      <trkpt lat="46.75992" lon="5.53685">
        <ele>215.953247</ele>
        <time>2011-09-20T17:03:10Z</time>
      </trkpt>
      <trkpt lat="46.75997" lon="5.5375">
        <ele>214.03064</ele>
        <time>2011-09-20T17:03:18Z</time>
      </trkpt>
      <trkpt lat="46.75976" lon="5.53916">
        <ele>212.108032</ele>
        <time>2011-09-20T17:03:37Z</time>
      </trkpt>
      <trkpt lat="46.75971" lon="5.53938">
        <ele>213.069336</ele>
        <time>2011-09-20T17:03:40Z</time>
      </trkpt>
      <trkpt lat="46.75958" lon="5.54022">
        <ele>215.472656</ele>
        <time>2011-09-20T17:03:51Z</time>
      </trkpt>
      <trkpt lat="46.7597" lon="5.54127">
        <ele>215.472656</ele>
        <time>2011-09-20T17:04:06Z</time>
      </trkpt>
      <trkpt lat="46.75975" lon="5.54149">
        <ele>215.472656</ele>
        <time>2011-09-20T17:04:09Z</time>
      </trkpt>
      <trkpt lat="46.75985" lon="5.54228">
        <ele>214.51123</ele>
        <time>2011-09-20T17:04:22Z</time>
      </trkpt>
      <trkpt lat="46.75966" lon="5.54228">
        <ele>216.43396</ele>
        <time>2011-09-20T17:04:31Z</time>
      </trkpt>
      <trkpt lat="46.75964" lon="5.54212">
        <ele>216.43396</ele>
        <time>2011-09-20T17:04:46Z</time>
      </trkpt>
      <trkpt lat="46.75965" lon="5.54208">
        <ele>216.43396</ele>
        <time>2011-09-20T17:05:08Z</time>
      </trkpt>
      <trkpt lat="46.75965" lon="5.5421">
        <ele>216.43396</ele>
        <time>2011-09-20T17:05:24Z</time>
      </trkpt>
      <trkpt lat="46.75966" lon="5.54209">
        <ele>216.914673</ele>
        <time>2011-09-20T17:06:30Z</time>
      </trkpt>
    </trkseg>
  </trk>
</gpx>